[[{"header":{"parameterUnit":"m.s-1","parameterCategory":1,"la1":30.6,"la2":29.2853,"lo1":-89.7004,"lo2":-87.6739,"dy":0.0162,"dx":0.0183,"nx":112,"ny":82,"refTime":"2023-06-27T12:00:00:Z","depth":0,"parameterNumber":2,"parameterNumberName":"U-component_of_WINDS"},"data":[0.0,0.0,0.0,0.0,0.0,0.0,0.0,0.0,0.0,0.0,0.0,0.0,0.0,0.0,0.0,0.0,0.0,0.0,0.0,0.0,0.0,0.0,0.0,0.0,0.0,0.0,0.0,0.0,0.0,0.0,0.0,0.0,0.0,0.0,0.0,0.0,0.0,0.0,0.0,0.0,0.0,0.0,0.0,0.0,0.0,0.0,0.0,0.0,0.0,0.0,0.0,0.0,0.0,0.0,0.0,0.0,0.0,0.0,0.0,0.0,0.0,0.0,0.0,0.0,0.0,0.0,0.0,0.0,0.0,0.0,0.0,0.0,0.0,0.0,0.0,0.0,0.0,0.0,0.0,0.0,0.0,0.0,0.0,0.0,0.0,0.0,0.0,0.0,0.0,0.0,1.9825,1.8643,1.5062,1.1908,0.9791,0.8234,0.7409,0.7479,0.0,0.0,0.0,0.0,0.0,0.0,0.0,0.0,0.0,0.0,0.0,0.0,0.0,0.0,0.0,0.0,0.0,0.0,0.0,0.0,0.0,0.0,0.0,0.0,0.0,0.0,0.0,0.0,0.0,0.0,0.0,0.0,0.0,0.0,0.0,0.0,0.0,0.0,0.0,0.0,0.0,0.0,0.0,0.0,0.0,0.0,0.0,0.0,0.0,0.0,0.0,0.0,0.0,0.0,0.0,0.0,0.0,0.0,0.0,0.0,0.0,0.0,0.0,0.0,0.0,0.0,0.0,0.0,0.0,0.0,0.0,0.0,0.0,0.0,0.0,0.0,0.0,0.0,0.0,0.0,0.0,0.0,0.0,0.0,0.0,0.0,0.0,0.0,0.0,0.0,0.0,0.0,0.0,0.0,0.0,0.0,0.0,0.0,0.0,0.0,0.0,0.0,0.0,0.0,2.0331,1.9568,1.5851,1.3036,1.1995,1.0392,0.9393,0.9219,0.0,0.0,0.0,0.0,0.0,0.0,0.0,0.0,0.0,0.0,0.0,0.0,0.0,0.0,0.0,0.0,0.0,0.0,0.0,0.0,0.0,0.0,0.0,0.0,0.0,0.0,0.0,0.0,0.0,0.0,0.0,0.0,0.0,0.0,0.0,0.0,0.0,0.0,0.0,0.0,0.0,0.0,0.0,0.0,0.0,0.0,0.0,0.0,0.0,0.0,0.0,0.0,0.0,0.0,0.0,0.0,0.0,0.0,0.0,0.0,0.0,0.0,0.0,0.0,0.0,0.0,0.0,0.0,0.0,0.0,0.0,0.0,0.0,0.0,0.0,0.0,0.0,0.0,0.0,0.0,0.0,0.0,0.0,0.0,0.0,0.0,0.0,0.0,0.0,0.0,0.0,0.0,0.0,0.0,0.0,0.0,0.0,0.0,0.0,0.0,0.0,0.0,0.0,2.1269,2.0329,1.9652,1.7069,1.4932,1.3792,1.2258,1.1332,1.1278,1.0897,0.0,0.0,0.0,0.0,0.0,0.0,0.0,0.0,0.0,0.0,0.0,0.0,0.0,0.0,0.0,0.0,0.0,0.0,0.0,0.0,0.0,0.0,0.0,0.0,0.0,0.0,0.0,0.0,0.0,0.0,0.0,0.0,0.0,0.0,0.0,0.0,0.0,0.0,0.0,0.0,0.0,0.0,0.0,0.0,0.0,0.0,0.0,0.0,0.0,0.0,0.0,0.0,0.0,0.0,0.0,0.0,0.0,0.0,0.0,0.0,0.0,0.0,0.0,0.0,0.0,0.0,0.0,0.0,0.0,0.0,0.0,0.0,0.0,0.0,0.0,0.0,0.0,0.0,0.0,0.0,0.0,0.0,0.0,0.0,0.0,0.0,0.0,0.0,0.0,0.0,0.0,0.0,0.0,0.0,0.0,0.0,0.0,0.0,0.0,0.0,0.0,0.0,2.1696,2.0786,2.0479,1.8854,1.7299,1.6052,1.4692,1.3828,1.3644,1.3127,0.0,0.0,0.0,0.0,0.0,0.0,0.0,0.0,0.0,0.0,0.0,0.0,0.0,0.0,0.0,0.0,0.0,0.0,0.0,0.0,0.0,0.0,0.0,0.0,0.0,0.0,0.0,0.0,0.0,0.0,0.0,0.0,0.0,0.0,0.0,0.0,0.0,0.0,0.0,0.0,0.0,0.0,0.0,0.0,0.0,0.0,0.0,0.0,0.0,0.0,0.0,0.0,0.0,0.0,0.0,0.0,0.0,0.0,0.0,0.0,0.0,0.0,0.0,0.0,0.0,0.0,0.0,0.0,0.0,0.0,0.0,0.0,0.0,0.0,0.0,0.0,0.0,0.0,0.0,0.0,0.0,0.0,0.0,0.0,0.0,0.0,0.0,0.0,0.0,0.0,0.0,0.0,0.0,0.0,0.0,0.0,0.0,0.0,0.0,0.0,0.0,0.0,2.2873,2.2444,2.3143,2.155,2.0134,1.9415,1.8349,1.7353,1.6474,1.5673,0.0,0.0,0.0,0.0,0.0,0.0,0.0,0.0,0.0,0.0,0.0,0.0,0.0,0.0,0.0,0.0,0.0,0.0,0.0,0.0,0.0,0.0,0.0,0.0,0.0,0.0,0.0,0.0,0.0,0.0,0.0,0.0,0.0,0.0,0.0,0.0,0.0,0.0,0.0,0.0,0.0,0.0,0.0,0.0,0.0,0.0,0.0,0.0,0.0,0.0,0.0,0.0,0.0,0.0,0.0,0.0,0.0,0.0,0.0,0.0,0.0,0.0,0.0,0.0,0.0,0.0,0.0,0.0,0.0,0.0,0.0,0.0,0.0,0.0,0.0,0.0,0.0,0.0,0.0,0.0,0.0,0.0,0.0,0.0,0.0,0.0,0.0,0.0,0.0,0.0,0.0,0.0,0.0,0.0,0.0,0.0,0.0,0.0,0.0,0.0,0.0,0.0,2.3843,2.3355,2.3785,2.2536,2.1533,2.1175,2.0114,1.9209,1.8547,0.0,0.0,0.0,0.0,0.0,0.0,0.0,0.0,0.0,0.0,0.0,0.0,0.0,0.0,0.0,0.0,0.0,0.0,0.0,0.0,0.0,0.0,0.0,0.0,0.0,0.0,0.0,0.0,0.0,0.0,0.0,0.0,0.0,0.0,0.0,0.0,0.0,0.0,0.0,0.0,0.0,0.0,0.0,0.0,0.0,0.0,0.0,0.0,0.0,0.0,0.0,0.0,0.0,0.0,0.0,0.0,0.0,0.0,0.0,0.0,0.0,0.0,0.0,0.0,0.0,0.0,0.0,0.0,0.0,0.0,0.0,0.0,0.0,0.0,0.0,0.0,0.0,0.0,0.0,0.0,0.0,0.0,0.0,0.0,0.0,0.0,0.0,0.0,0.0,0.0,0.0,0.0,0.0,0.0,0.0,0.0,0.0,0.0,0.0,0.0,0.0,0.0,2.5312,2.4715,2.4277,2.4399,2.3727,2.3144,2.2912,2.198,2.1163,2.0582,0.0,0.0,0.0,0.0,0.0,0.0,0.0,0.0,0.0,0.0,0.0,0.0,0.0,0.0,0.0,0.0,0.0,0.0,0.0,0.0,0.0,0.0,0.0,0.0,0.0,0.0,0.0,0.0,0.0,0.0,0.0,0.0,0.0,0.0,0.0,0.0,0.0,0.0,0.0,0.0,0.0,0.0,0.0,0.0,0.0,0.0,0.0,0.0,0.0,0.0,0.0,0.0,0.0,0.0,0.0,0.0,0.0,0.0,0.0,0.0,0.0,0.0,0.0,0.0,0.0,0.0,0.0,0.0,0.0,0.0,0.0,0.0,0.0,0.0,0.0,0.0,0.0,0.0,0.0,0.0,0.0,0.0,0.0,0.0,0.0,0.0,0.0,0.0,0.0,0.0,0.0,0.0,0.0,0.0,0.0,0.0,0.0,0.0,0.0,0.0,0.0,0.0,2.5434,2.5442,2.5364,2.5312,2.5294,2.515,2.4822,2.4189,2.3446,0.0,0.0,0.0,0.0,0.0,0.0,0.0,0.0,0.0,0.0,0.0,0.0,0.0,0.0,0.0,0.0,0.0,0.0,0.0,0.0,0.0,0.0,0.0,0.0,0.0,0.0,0.0,0.0,0.0,0.0,0.0,0.0,0.0,0.0,0.0,0.0,0.0,0.0,0.0,0.0,0.0,0.0,0.0,0.0,0.0,0.0,0.0,0.0,0.0,0.0,0.0,0.0,0.0,0.0,0.0,0.0,0.0,0.0,0.0,0.0,0.0,0.0,0.0,0.0,0.0,0.0,0.0,0.0,0.0,0.0,0.0,0.0,0.0,0.0,0.0,0.0,0.0,0.0,0.0,0.0,0.0,0.0,0.0,0.0,0.0,0.0,0.0,0.0,0.0,0.0,0.0,0.0,0.0,0.0,0.0,0.0,0.0,0.0,0.0,0.0,0.0,0.0,0.0,2.549,2.5389,2.5258,2.5234,2.5053,2.4874,2.4669,2.4007,2.3164,2.2173,0.0,0.0,0.0,0.0,0.0,0.0,0.0,0.0,0.0,0.0,0.0,0.0,0.0,0.0,0.0,0.0,0.0,0.0,0.0,0.0,0.0,0.0,0.0,0.0,0.0,0.0,0.0,0.0,0.0,0.0,0.0,0.0,0.0,0.0,0.0,0.0,0.0,0.0,0.0,0.0,0.0,0.0,0.0,0.0,0.0,0.0,0.0,0.0,0.0,0.0,0.0,0.0,0.0,0.0,0.0,0.0,0.0,0.0,0.0,0.0,0.0,0.0,0.0,0.0,0.0,0.0,0.0,0.0,0.0,0.0,0.0,0.0,0.0,0.0,0.0,0.0,0.0,0.0,0.0,0.0,0.0,0.0,0.0,0.0,0.0,0.0,0.0,0.0,0.0,0.0,0.0,0.0,0.0,0.0,0.0,0.0,0.0,0.0,0.0,0.0,0.0,0.0,2.5302,2.5177,2.4997,2.4866,2.4717,2.4482,2.4203,2.3498,2.266,2.1737,0.0,0.0,0.0,0.0,0.0,0.0,0.0,0.0,0.0,0.0,0.0,0.0,0.0,0.0,0.0,0.0,0.0,0.0,0.0,0.0,0.0,0.0,0.0,0.0,0.0,0.0,0.0,0.0,0.0,0.0,0.0,0.0,0.0,0.0,0.0,0.0,0.0,0.0,0.0,0.0,0.0,0.0,0.0,0.0,0.0,0.0,0.0,0.0,0.0,0.0,0.0,0.0,0.0,0.0,0.0,0.0,0.0,0.0,0.0,0.0,0.0,0.0,0.0,0.0,0.0,0.0,0.0,0.0,0.0,0.0,0.0,0.0,0.0,0.0,0.0,0.0,0.0,0.0,0.0,0.0,0.0,0.0,0.0,0.0,0.0,0.0,0.0,0.0,0.0,0.0,0.0,0.0,0.0,0.0,0.0,0.0,0.0,0.0,0.0,0.0,0.0,0.0,2.4988,2.4846,2.4545,2.4221,2.415,2.3934,2.3394,2.2685,2.1936,2.121,0.0,0.0,0.0,0.0,0.0,0.0,0.0,0.0,0.0,0.0,0.0,0.0,0.0,0.0,0.0,0.0,0.0,0.0,0.0,0.0,0.0,0.0,0.0,0.0,0.0,0.0,0.0,0.0,0.0,0.0,0.0,0.0,0.0,0.0,0.0,0.0,0.0,0.0,0.0,0.0,0.0,0.0,0.0,0.0,0.0,0.0,0.0,0.0,0.0,0.0,0.0,0.0,0.0,0.0,0.0,0.0,0.0,0.0,0.0,0.0,0.6474,0.0,0.0,0.0,0.0,0.0,0.0,0.0,0.0,0.0,0.0,0.0,0.0,0.0,0.0,0.0,0.0,0.0,0.0,0.0,0.0,0.0,0.0,0.0,0.0,0.0,0.0,0.0,0.0,0.0,0.0,0.0,0.0,0.0,0.0,0.0,0.0,0.0,0.0,0.0,0.0,0.0,2.4813,2.4285,2.3624,2.3239,2.3069,2.2761,2.228,2.1516,2.0858,2.0317,1.906,0.0,0.0,0.0,0.0,0.0,0.0,0.0,0.0,0.0,0.0,0.0,0.0,0.0,0.0,0.0,0.0,0.0,0.0,0.0,0.0,0.0,0.0,0.0,0.0,0.0,0.0,0.0,0.0,0.0,0.0,0.0,0.0,0.0,0.0,0.0,0.0,0.0,0.0,0.0,0.0,0.0,0.0,0.0,0.0,0.0,0.0,0.0,0.0,0.0,0.0,0.0,0.0,0.0,0.0,0.0,0.0,0.0,0.0,0.0,0.0,0.4577,0.0,0.0,0.0,0.0,0.0,0.0,0.0,0.0,0.0,0.0,0.0,0.0,0.0,0.0,0.0,0.0,0.0,0.0,0.0,0.0,0.0,0.0,0.0,0.0,0.0,0.0,0.0,0.0,0.0,0.0,0.0,0.0,0.0,0.0,0.0,0.0,0.0,0.0,0.0,0.0,2.3928,2.3082,2.2323,2.2245,2.1894,2.1524,2.1124,2.0282,1.9451,1.8672,1.7599,0.0,0.0,0.0,0.0,0.0,0.0,0.0,0.0,0.0,0.0,0.0,0.0,0.0,0.0,0.0,0.0,0.0,0.0,0.0,0.0,0.0,0.0,0.0,0.0,0.0,0.0,0.0,0.0,0.0,0.0,0.0,0.0,0.0,0.0,0.0,0.0,0.0,0.0,0.0,0.0,0.0,0.0,0.0,0.0,0.0,0.0,0.0,0.0,0.0,0.0,0.0,0.0,0.0,0.3935,0.1631,-0.0289,-0.1013,-0.0429,0.1121,0.1292,0.0916,0.0188,0.1728,0.0,0.0,0.0,0.0,0.0,0.0,0.0,0.0,0.0,0.0,0.0,0.0,0.0,0.0,0.0,0.0,0.0,0.0,0.0,0.0,0.0,0.0,0.0,0.0,0.7998,0.7675,0.956,0.0,0.0,0.0,0.0,0.0,0.0,0.0,0.0,0.0,0.0,0.0,2.1999,2.1108,2.0399,2.0655,2.0286,1.9888,1.9547,1.8705,1.7822,1.6883,1.6074,1.528,0.0,0.0,0.0,0.0,0.0,0.0,0.0,0.0,0.0,0.0,0.0,0.0,0.0,0.0,0.0,0.0,0.0,0.0,0.0,0.0,0.0,0.0,0.0,0.0,0.0,0.0,0.0,0.0,0.0,0.0,0.0,0.0,1.1396,0.964,0.0,0.0,0.0,0.0,0.0,0.0,0.0,0.0,0.0,0.0,0.0,0.0,0.0,0.2531,0.2379,0.1438,0.0976,0.1074,0.216,0.1736,-0.0145,-0.3871,-0.5343,-0.4948,-0.1295,0.0,-0.4306,-0.0966,0.0,0.0,0.0,0.0,0.0,0.0,0.0,0.0,0.0,0.0,0.0,0.0,0.0,0.0,0.0,0.0,0.0,0.0,0.0,0.0,0.0,0.0,0.3016,0.2454,0.1618,0.1029,0.0,0.5486,0.9271,0.9619,1.1763,0.0,0.0,0.0,0.0,0.0,0.0,0.0,1.8106,1.7688,1.7287,1.7456,1.7458,1.7223,1.687,1.6253,1.5874,1.5743,1.4408,1.3678,1.3906,1.1402,0.0,0.0,0.0,0.0,0.0,0.0,0.0,0.0,0.0,0.0,0.0,0.0,0.0,0.0,0.0,0.0,0.0,0.0,0.0,0.0,0.0,0.0,0.0,0.0,0.0,0.0,0.0,0.0,0.0,1.2877,1.1276,0.9142,0.8648,0.8329,0.0,0.0,0.0,0.0,0.0,0.0,0.0,0.0,0.0,0.2405,0.0553,-0.1116,-0.2617,-0.3128,-0.3395,-0.3556,-0.2745,-0.2769,-0.3489,-0.2964,-0.404,-0.6208,-0.4346,-0.4249,-0.5271,-0.3706,-0.1871,0.0145,0.0,0.0,0.0,0.0,0.4995,0.6283,0.4413,0.1113,-0.21,-0.1058,0.0,0.0,0.0,0.0,0.0,0.0,0.0,0.0,0.0,0.0,-0.0421,-0.194,-0.255,-0.2885,-0.3071,-0.1051,0.1783,0.0,0.6934,0.7871,0.7701,0.0,0.0,0.0,0.0,1.3027,1.4496,1.4473,1.4473,1.4803,1.4896,1.4914,1.4763,1.4247,1.3867,1.3662,1.2679,1.1831,1.136,0.9511,0.8904,0.0,0.0,0.0,0.0,0.0,0.0,0.0,0.0,0.0,0.0,0.0,0.0,0.0,0.0,0.0,0.0,0.0,0.0,0.0,0.0,0.0,0.0,0.0,0.0,0.0,0.0,0.0,0.0,1.2011,1.0989,0.9055,0.8351,0.7654,0.0,0.0,0.0,0.0,0.0,0.0,0.2614,0.1172,0.0073,-0.0657,-0.2261,-0.4024,-0.5825,-0.5825,-0.5956,-0.6225,-0.628,-0.6043,-0.5338,-0.1644,-0.2276,-0.6335,-0.6335,-0.5454,-0.401,-0.3986,-0.2438,-0.0,-0.0,0.081,0.1998,0.1986,0.288,0.402,0.3992,-0.0147,-0.5417,-0.538,-0.2964,0.0221,0.1632,0.0,0.0,0.0,0.0,0.1154,0.0656,-0.0977,-0.2925,-0.452,-0.4879,-0.4945,-0.5213,-0.4981,-0.3592,0.0,0.1893,0.2918,0.3755,0.0,0.0,0.0,0.0,0.968,1.0698,1.1172,1.1586,1.2054,1.2196,1.2263,1.2263,1.1907,1.1701,1.1687,1.0893,1.0176,0.9538,0.807,0.7477,0.7828,0.0,0.0,0.0,0.0,0.0,0.0,0.0,0.0,0.0,0.0,0.0,0.0,0.0,0.0,0.0,0.0,0.0,0.0,0.0,0.0,0.0,0.0,0.0,0.0,0.0,0.0,0.0,0.0,0.0,0.9395,0.7267,0.0,0.0,0.0,0.0,0.3634,0.2274,0.0923,-0.0309,-0.1579,-0.341,-0.6096,-0.6112,-0.6034,-0.602,-0.602,-0.6023,-0.6034,-0.6207,-0.5249,-0.3203,-0.1019,-0.228,-0.6267,-0.6267,-0.4023,-0.0235,-0.0306,-0.0153,-0.0,-0.0,0.0077,0.0156,0.0152,0.023,0.0234,0.0304,-0.2188,-0.5415,-0.5386,-0.2931,-0.0,0.008,0.0235,0.0,0.0,0.3236,-0.0668,-0.4119,-0.5114,-0.5139,-0.494,-0.4909,-0.4909,-0.4909,-0.3827,-0.3264,0.0,-0.216,0.0194,0.0259,0.0,0.0991,0.2814,0.3619,0.468,0.6578,0.7559,0.838,0.9065,0.9029,0.8961,0.8961,0.8916,0.9323,1.0256,0.9123,0.8828,0.9713,0.78,0.6772,0.6772,0.5862,0.0,0.0,0.0,0.0,0.0,0.0,0.0,0.0,0.0,0.0,0.0,0.0,0.0,0.0,0.0,0.0,0.0,0.0,0.0,0.0,0.0,0.0,0.0,0.0,0.0,0.0,0.0,0.0,0.878,0.5921,0.0,0.4064,0.2701,0.1591,0.0962,-0.0654,-0.2472,-0.4489,-0.509,-0.5773,-0.6637,-0.6512,-0.6441,-0.6417,-0.6264,-0.6217,-0.62,-0.6281,-0.5914,-0.5037,-0.1569,-0.0786,-0.2281,-0.2281,0.0157,0.409,0.4057,0.2417,-0.0,-0.0,-0.0,-0.0,-0.0,-0.0,-0.0,-0.0,-0.0872,-0.1907,-0.1924,-0.1028,-0.0,-0.0,-0.0,0.0303,0.1817,0.1196,-0.0293,-0.1586,-0.2797,-0.365,-0.3547,-0.3468,-0.3825,-0.498,-0.4799,-0.4649,-0.524,-0.4327,-0.2759,-0.0365,-0.0,0.0211,0.0836,0.212,0.372,0.5579,0.6397,0.6835,0.6904,0.7305,0.7533,0.7533,0.7533,0.8037,0.9233,0.8346,0.8025,0.8645,0.7911,0.7386,0.6955,0.6367,0.6225,0.0,0.0,0.0,0.0,0.0,0.0,0.0,0.0,0.0,0.0,0.0,0.0,0.0,0.0,0.0,0.0,0.0,0.0,0.0,0.0,0.0,0.0,0.0,0.0,0.0,0.0,0.918,0.9572,0.6399,0.3639,0.2182,0.0674,-0.0849,-0.2569,-0.3758,-0.5192,-0.6963,-0.7102,-0.7021,-0.686,-0.6823,-0.6411,-0.5633,-0.5383,-0.5222,-0.5223,-0.5974,-0.6314,-0.6151,-0.1931,0.0884,0.2413,0.2413,0.3443,0.5263,0.6122,0.4813,0.2223,0.1507,0.1207,0.1232,0.1232,0.1238,0.1162,0.1071,0.1068,0.1066,0.1058,0.056,-0.0,-0.0,-0.0,-0.0,-0.0,-0.0,-0.0,-0.0,-0.0895,-0.1789,-0.1789,-0.1778,-0.1693,-0.1473,-0.1473,-0.1695,-0.2361,-0.3102,-0.283,-0.0382,-0.0,-0.0,-0.0,0.1563,0.338,0.5153,0.566,0.5732,0.5568,0.5961,0.6187,0.6178,0.6174,0.6728,0.7852,0.7145,0.7093,0.7952,0.7775,0.7626,0.7517,0.6972,0.6867,0.7337,0.0,0.0,0.0,0.0,0.0,0.0,0.0,0.0,0.0,0.0,0.0,0.0,0.0,0.0,0.0,0.0,0.0,0.0,0.0,0.0,0.0,0.0,0.0,1.1924,1.006,0.9307,1.1849,0.8521,0.4504,0.0424,-0.0,-0.1936,-0.6499,-0.6917,-0.7175,-0.7434,-0.7192,-0.701,-0.6964,-0.7021,-0.6031,-0.3762,-0.3262,-0.3023,-0.3022,-0.5147,-0.6011,-0.5751,-0.1601,0.2696,0.7035,0.7035,0.5658,0.3404,0.5756,0.6664,0.6529,0.4465,0.3701,0.3692,0.3692,0.3742,0.3628,0.3379,0.3183,0.3168,0.3182,0.1834,0.0157,0.008,0.008,0.0079,0.0079,0.0079,0.0079,0.0079,0.0079,0.0079,0.0079,0.0077,0.1212,0.5333,0.6263,0.5714,0.3632,0.1588,0.015,0.0147,0.0075,0.0075,0.0073,0.1637,0.0,0.5196,0.5203,0.5138,0.5138,0.5013,0.4874,0.4724,0.4847,0.529,0.6177,0.5549,0.6029,0.7962,0.7444,0.7545,0.8425,0.7627,0.725,0.7291,0.0,0.0,0.0,0.0,0.0,0.0,0.0,0.0,0.0,0.0,0.0,0.0,0.0,0.0,0.0,0.0,0.0,0.0,0.0,0.0,0.0,0.0,0.9056,0.9513,0.6711,0.5442,0.767,0.4244,0.1299,0.0092,-0.0,-0.0559,-0.1872,-0.3528,-0.4598,-0.4718,-0.4805,-0.4716,-0.4528,-0.6222,-0.6833,-0.617,-0.2629,-0.0894,-0.0882,-0.1412,0.0264,0.4054,0.4783,0.4915,0.4637,0.6369,0.6579,0.5693,0.6496,0.6781,0.6654,0.6255,0.6179,0.6129,0.6129,0.615,0.6091,0.6052,0.5742,0.5426,0.5399,0.5028,0.4316,0.2756,0.2278,0.2267,0.2267,0.2267,0.2267,0.2267,0.2267,0.2267,0.2267,0.2255,0.2554,0.3722,0.5212,0.616,0.5523,0.4974,0.413,0.2829,0.2373,0.2285,0.223,0.3771,0.0,0.5554,0.5426,0.5298,0.5298,0.5264,0.5223,0.5182,0.5216,0.5621,0.6502,0.6359,0.6859,0.8256,0.8575,0.8931,0.9304,0.9207,0.8569,0.0,0.0,0.0,0.0,0.0,0.0,0.0,0.0,0.0,0.0,0.0,0.0,0.0,0.0,0.0,0.0,0.0,0.0,0.0,0.0,0.0,0.0,0.9209,0.8779,0.8223,0.5346,0.3364,0.3603,0.1533,-0.0,-0.0,-0.0,-0.0,-0.0,-0.1274,-0.2063,-0.2119,-0.2255,-0.2258,-0.2118,-0.3378,-0.4135,-0.4087,-0.1411,0.1118,0.3322,0.3322,0.4428,0.6368,0.6972,0.6529,0.5242,0.6551,0.6925,0.6695,0.6837,0.6854,0.0,0.0,0.0,0.0,0.0,0.7138,0.7128,0.707,0.6841,0.6529,0.6466,0.6447,0.6224,0.4916,0.4593,0.4598,0.4598,0.4598,0.4588,0.4463,0.4484,0.4576,0.4484,0.4418,0.4437,0.4467,0.541,0.6305,0.6359,0.6369,0.0,0.5073,0.4773,0.4535,0.4472,0.519,0.5731,0.5715,0.5504,0.5428,0.5428,0.5428,0.5335,0.527,0.5325,0.0,0.0,0.0,0.7634,0.9253,1.003,0.0,0.0,0.0,0.9735,0.8867,0.0,0.0,0.0,0.7078,0.6467,0.0,0.0,0.0,0.0,0.0,0.0,0.0,0.0,0.0,0.0,0.0,0.0,0.0,0.0,0.0,0.0,0.887,0.873,0.7811,0.5642,0.3058,0.0296,0.0492,0.088,0.0865,0.0585,0.0492,0.0492,0.05,0.0501,0.0492,0.0,0.0,0.0,0.0,0.0492,0.0492,0.0484,0.2878,0.7538,0.7832,0.6742,0.449,0.6677,0.755,0.7421,0.7175,0.7007,0.6939,0.7082,0.7065,0.6953,0.6953,0.7031,0.7139,0.7139,0.7139,0.7122,0.6997,0.0,0.0,0.677,0.6636,0.6629,0.6629,0.6646,0.6662,0.6662,0.6662,0.6632,0.641,0.6558,0.6678,0.6407,0.6347,0.6314,0.6329,0.6298,0.6329,0.643,0.6461,0.6512,0.663,0.6631,0.6634,0.6393,0.5979,0.5702,0.5686,0.5586,0.5476,0.5476,0.0,0.0,0.537,0.5554,0.5695,0.5807,0.6839,0.8468,1.0575,1.1488,1.1991,1.2245,1.1269,1.0761,1.0783,0.8714,0.7763,0.7778,0.6579,0.5003,0.0,0.0,0.0,0.0,0.0,0.0,0.0,0.0,0.0,0.0,0.0,0.0,0.0,0.0,0.0,0.8058,0.7935,0.7903,0.7887,0.7485,0.5406,0.0605,0.3819,0.6439,0.6418,0.4501,0.3198,0.3198,0.3209,0.321,0.3198,0.3209,0.321,0.3198,0.3198,0.3198,0.3198,0.3187,0.3778,0.4777,0.0,0.0,0.7276,0.7534,0.7594,0.7553,0.74,0.718,0.6939,0.7082,0.7126,0.7099,0.7099,0.7115,0.7139,0.7139,0.7139,0.7136,0.7109,0.7024,0.6922,0.6895,0.6803,0.6702,0.6702,0.6709,0.0,0.6712,0.6712,0.6705,0.6671,0.6688,0.6695,0.6637,0.6549,0.6471,0.6441,0.6434,0.641,0.6318,0.6393,0.6444,0.6363,0.6476,0.652,0.6437,0.6183,0.5872,0.5823,0.5752,0.5718,0.5718,0.5827,0.6175,0.6997,0.7097,0.741,0.8087,0.927,1.029,1.1233,1.1666,1.1897,1.1951,1.1754,1.1348,1.0783,0.9546,0.8576,0.7783,0.6696,0.5132,0.0,0.0,0.0,0.0,0.0,0.0,0.0,0.0,0.0,0.0,0.0,1.0266,0.0,0.0,0.629,0.5894,0.6923,0.7837,0.8019,0.8035,0.7031,0.4328,0.6369,0.7998,0.8016,0.6765,0.6042,0.6042,0.6042,0.6042,0.6042,0.6042,0.6042,0.6042,0.6042,0.6042,0.6042,0.6042,0.6039,0.6037,0.7366,0.7972,0.7952,0.7798,0.7684,0.7695,0.755,0.7404,0.7268,0.7343,0.737,0.737,0.737,0.7275,0.7139,0.7139,0.7139,0.7139,0.7139,0.7442,0.7899,0.7899,0.8259,0.8709,0.8888,0.8764,0.873,0.9,0.8918,0.8687,0.8768,0.8687,0.8472,0.7714,0.7593,0.7409,0.6763,0.6586,0.6586,0.6593,0.659,0.6586,0.6593,0.659,0.6536,0.639,0.6176,0.6003,0.5925,0.5847,0.58,0.58,0.5871,0.6273,0.7279,0.7947,0.8689,0.9652,1.0315,1.1058,1.1799,1.2011,1.2084,1.2084,1.2084,1.1932,1.1545,1.0045,0.9069,0.8542,0.703,0.5718,0.0,0.0,0.0,0.0,0.0,0.0,0.0,0.0,0.8515,0.9906,0.9957,0.9327,0.791,0.5888,0.4226,0.3393,0.5008,0.6848,0.7864,0.708,0.6629,0.7272,0.7827,0.8053,0.8089,0.8069,0.8052,0.8029,0.8049,0.8052,0.8026,0.8049,0.8066,0.8066,0.8066,0.8066,0.8066,0.8039,0.8022,0.8012,0.7982,0.7955,0.8035,0.7913,0.7838,0.7804,0.7939,0.7966,0.7969,0.828,0.8367,0.834,0.8374,0.8199,0.793,0.7403,0.7317,0.7578,0.7578,0.8197,0.9084,0.9345,1.0045,1.0855,1.0992,1.0906,1.0835,1.1287,1.1038,1.0768,1.0896,1.0789,1.0413,0.9219,0.8963,0.8729,0.7673,0.7398,0.7431,0.7535,0.7468,0.7431,0.7539,0.7442,0.7174,0.6417,0.6196,0.6095,0.6037,0.6092,0.6165,0.6133,0.6375,0.6893,0.7888,0.9057,1.0053,1.0858,1.1046,1.1465,1.2305,1.2305,1.2305,1.2305,1.2305,1.2305,1.2305,1.0496,0.9468,0.9281,0.7451,0.6525,0.7699,0.7719,0.778,0.8425,0.8313,0.8217,0.0,0.0,0.7879,0.5756,0.5206,0.5816,0.7655,0.769,0.5996,0.1193,0.0718,0.2503,0.7325,0.3921,0.2007,0.4892,0.7089,0.8444,0.8489,0.8452,0.8387,0.8258,0.8367,0.8384,0.8258,0.837,0.8438,0.8438,0.8438,0.8438,0.8438,0.8313,0.8248,0.8248,0.8109,0.8041,0.8038,0.8021,0.794,0.7901,0.8859,0.9245,0.9347,1.074,1.1175,1.1109,1.1214,1.114,1.074,0.8374,0.8277,0.9276,0.9276,0.9276,0.964,1.0832,1.1288,1.1343,1.1174,1.1107,1.1091,1.1143,1.1122,1.1127,1.1328,1.123,1.0982,1.0843,1.0459,1.0183,0.9991,0.9986,0.9937,0.9866,0.9878,0.9937,0.9861,0.9811,0.9066,0.6791,0.6434,0.6325,0.6064,0.6957,0.7505,0.7335,0.8286,0.929,1.0324,1.1329,1.2024,1.2104,1.2131,1.215,1.2305,1.2305,1.2305,1.2305,1.2305,1.2305,1.2305,1.1168,1.022,0.9418,0.8326,0.7242,0.9395,0.9373,0.9457,0.8883,0.9071,0.9335,0.9877,0.8321,0.6368,0.5276,0.3351,0.2124,0.3128,0.3368,0.2617,0.0,-0.0,0.0752,0.2992,0.1376,0.124,0.4554,0.7463,0.9108,0.8682,0.8621,0.8554,0.8404,0.9268,0.9792,0.9725,1.0505,1.0958,1.0958,1.0958,1.0958,1.0958,1.0773,1.0681,1.0676,1.0384,1.0288,1.0288,1.0288,1.0245,1.0162,1.0651,1.0901,1.0905,1.1571,1.1748,1.1767,1.1768,1.222,1.2664,1.0627,1.0168,1.0624,1.0624,1.1089,1.1736,1.229,1.2933,1.358,1.3622,1.3531,1.344,1.3592,1.3525,1.3434,1.3543,1.3489,1.3189,1.2309,1.1936,1.1574,1.067,1.0554,1.0529,1.0437,1.0493,1.0524,1.0437,1.0422,1.009,0.8968,0.8506,0.8269,0.7996,0.8335,0.8656,0.8566,0.9531,1.034,1.0783,1.1694,1.2305,1.2305,1.2305,1.2305,1.2305,1.2305,1.2385,1.2559,1.2559,1.2652,1.2832,1.1803,1.0746,0.9722,0.8685,0.7612,1.1121,1.1154,1.1289,1.053,1.0524,1.061,1.0404,0.8433,0.6791,0.6898,0.4777,0.26,0.169,0.1428,0.1426,0.1426,0.1426,0.1424,0.1548,0.1418,0.2551,0.5957,0.8378,0.9483,0.9015,0.892,0.8815,0.8621,1.0008,1.083,1.0728,1.213,1.2893,1.2893,1.2893,1.2893,1.2893,1.2669,1.2526,1.2465,1.2147,1.2006,1.1945,1.1945,1.1945,1.1945,1.2334,1.2425,1.2528,1.2818,1.3017,1.3017,1.3017,1.359,1.4315,1.3082,1.2477,1.2199,1.2199,1.2668,1.3424,1.3799,1.4545,1.5224,1.5357,1.5251,1.511,1.5244,1.5124,1.4983,1.5064,1.5023,1.4744,1.3779,1.342,1.3133,1.2063,1.1712,1.1684,1.1838,1.1706,1.1662,1.1662,1.1662,1.1558,1.1327,1.0989,1.0415,0.9499,0.9559,0.982,1.0126,1.0789,1.1236,1.1236,1.1848,1.2305,1.2305,1.2305,1.2305,1.2305,1.2378,1.2525,1.2822,1.2909,1.2986,1.3213,1.2473,1.1531,1.0437,0.9379,0.8346,1.2583,1.2715,1.2934,1.379,1.2929,1.1712,1.0603,1.0365,1.0303,1.0478,1.0515,0.9288,0.5895,0.5296,0.5248,0.5248,0.5248,0.5221,0.5276,0.5008,0.6002,0.9587,0.97,0.9513,0.0,0.9449,0.9239,0.8947,1.0369,1.119,1.0941,1.2378,1.3244,1.3244,1.3244,1.3244,1.3244,1.3123,1.2898,1.2582,1.247,1.2256,1.1945,1.1945,1.1945,1.1945,1.3295,1.3878,1.3974,1.5146,1.5635,1.5635,1.5635,1.573,1.573,1.571,1.4924,1.3855,1.3855,1.3849,1.4046,1.5317,1.571,1.5752,1.5478,1.5391,1.5331,1.5057,1.497,1.503,1.5311,1.517,1.503,1.5304,1.515,1.4943,1.4847,1.4621,1.4502,1.4787,1.4608,1.4415,1.4415,1.4415,1.4223,1.3563,1.3457,1.2581,0.9985,1.0334,1.1168,1.2077,1.2224,1.2224,1.2224,1.2298,1.2305,1.2305,1.2305,1.2305,1.2305,1.2579,1.2815,1.2822,1.3046,1.32,1.3213,1.3134,1.2692,1.1852,1.0689,0.9715,1.4251,1.4399,1.4614,1.4344,1.4069,1.3859,1.3833,1.3761,1.3504,1.2668,1.133,0.9887,0.8742,0.8728,0.8969,0.8969,0.8981,0.8915,0.8654,0.8505,0.8814,0.9735,0.9744,0.0,0.0,0.0,0.0,1.0705,1.2208,1.3409,1.4482,1.5893,1.6648,1.6464,1.6464,1.6371,1.6174,1.5903,1.5632,1.5355,1.4912,1.4557,1.4465,1.4465,1.4465,1.4465,1.4949,1.5146,1.5146,1.5635,1.5832,1.5832,1.5832,1.5832,1.5832,1.5832,1.5534,1.5146,1.5146,1.5146,1.5242,1.5635,1.5832,1.5812,1.5712,1.5685,1.5625,1.5331,1.5391,1.5518,1.5424,1.5471,1.5518,1.5418,1.5317,1.5197,1.501,1.4883,1.4843,1.4943,1.4883,1.475,1.4556,1.4522,1.4322,1.3728,1.33,1.2733,1.1831,1.1797,1.1922,1.2224,1.2305,1.2305,1.2305,1.2305,1.2305,1.2305,1.2305,1.2392,1.2585,1.2768,1.2933,1.3333,1.3447,1.3594,1.3794,1.3794,1.3233,1.2199,1.177,1.1048,1.6138,1.6523,1.702,1.6223,1.5784,1.5751,1.6138,1.5908,1.5248,1.4226,1.2766,1.1744,1.1615,1.1712,1.1545,1.0998,1.0966,1.0884,1.0253,1.0166,1.0082,1.0032,0.9885,0.9764,0.0,0.0,0.0,1.176,1.3705,1.5263,1.6304,1.7584,1.8243,1.8056,1.7943,1.7782,1.7589,1.7402,1.7101,1.67,1.6112,1.5832,1.5832,1.5832,1.5832,1.5832,1.5832,1.5832,1.5832,1.5832,1.5832,1.5832,1.5832,1.5832,1.5832,1.5832,1.5832,1.5832,1.5832,1.5832,1.5832,1.5832,1.5832,1.5832,1.5832,1.5832,1.5765,1.5478,1.5531,1.5631,1.5444,1.5531,1.5651,1.5571,1.5551,1.5504,1.5311,1.519,1.515,1.5251,1.5104,1.4903,1.471,1.4502,1.4235,1.3854,1.338,1.2993,1.2849,1.2485,1.2305,1.2305,1.2398,1.2458,1.2458,1.2559,1.2625,1.2625,1.2625,1.2712,1.2906,1.3013,1.3247,1.3552,1.3748,1.3895,1.4088,1.4088,1.373,1.2942,1.2504,1.1901,1.8252,1.8935,2.0079,1.9319,1.826,1.7505,1.7771,1.6778,1.5676,1.5539,1.5062,1.4565,0.0,0.0,1.3263,1.1701,1.1741,1.1642,1.0387,1.0065,1.0044,0.0,0.0,0.0,0.0,0.0,0.0,1.2308,0.0,1.6492,1.6464,1.7469,1.8103,1.807,1.7782,1.7615,1.7582,1.7555,1.7255,1.67,1.6112,1.5832,1.5832,1.5832,1.5832,1.5832,1.5832,1.5832,1.5832,1.5832,1.5832,1.5832,1.5832,1.5832,1.5832,1.5832,1.5832,1.5832,1.5832,1.5832,1.5832,1.5832,1.5832,1.5832,1.5832,1.5832,1.5772,1.5498,1.5418,1.5418,1.5418,1.5418,1.5484,1.5765,1.5832,1.5832,1.5832,1.5611,1.5504,1.5772,1.5357,1.4963,1.4963,1.4476,1.4088,1.4088,1.3834,1.344,1.2943,1.2532,1.2351,1.2351,1.2599,1.2849,1.2849,1.3039,1.3213,1.3213,1.3213,1.322,1.3233,1.3494,1.3654,1.3667,1.3941,1.4088,1.4088,1.4088,1.4088,1.4088,1.2942,1.2413,2.0623,2.1107,2.165,2.2033,2.0988,2.0116,2.0765,1.9787,1.8239,1.6828,1.6143,1.5319,0.0,0.0,0.0,1.3461,1.4058,0.0,1.406,1.4093,0.0,1.3607,0.0,1.3807,1.3435,1.5204,0.0,0.0,1.6497,1.7432,1.8544,1.8836,1.8831,1.839,1.8303,1.8043,1.7589,1.7148,1.6854,1.67,1.6112,1.5832,1.5832,1.5832,1.5832,1.5832,1.5832,1.5832,1.5832,1.5832,1.5832,1.5832,1.5832,1.5832,1.5832,1.5832,1.5832,1.5832,1.5832,1.5832,1.5832,1.5832,1.5832,1.5832,1.5832,1.5832,1.5812,1.5738,1.5718,1.5718,1.5718,1.5718,1.5738,1.5812,1.5832,1.5832,1.5832,1.5772,1.5738,1.5812,1.5357,1.4963,1.4963,1.4476,1.4088,1.4088,1.3834,1.3587,1.3434,1.316,1.2979,1.2979,1.3046,1.3093,1.3093,1.3166,1.3213,1.3213,1.3213,1.3307,1.3527,1.3519,1.3748,1.3968,1.4048,1.4088,1.4088,1.4088,1.4088,1.4088,1.3822,1.3646,2.1895,2.2333,2.2936,2.2716,2.2185,2.1516,2.1339,2.0651,1.9562,1.7673,1.695,1.6209,1.4727,1.4866,1.5029,0.0,0.0,0.0,1.5196,1.51,1.5126,0.0,1.5202,0.0,1.5029,1.6708,1.7753,0.0,1.794,1.8587,1.9559,1.9312,1.8965,1.8504,1.8364,1.8003,1.7402,1.6934,1.664,1.6513,1.6046,1.5832,1.5832,1.5832,1.5832,1.5832,0.0,1.5832,1.5832,1.5832,1.5832,1.5832,1.5832,1.5832,1.5832,1.5832,1.5832,1.5832,1.5832,1.5832,1.5832,1.5832,1.5832,1.5832,1.5832,1.5832,1.5832,1.5832,1.5832,1.5832,1.5832,1.5832,1.5832,1.5832,1.5832,1.5832,1.5832,1.5832,1.5792,1.5665,1.5378,1.507,1.4816,1.4496,1.4235,1.4108,1.3948,1.3841,1.3841,1.3474,1.3213,1.3213,1.3327,1.34,1.34,1.352,1.3594,1.3594,1.3594,1.3667,1.3834,1.3841,1.3915,1.4082,1.4088,1.4088,1.4088,1.4088,1.4088,1.4088,1.4088,1.4088,2.2685,2.3099,2.3859,2.2843,2.2586,2.2299,2.1071,2.0547,1.9895,1.8151,1.7455,1.6987,1.6653,1.6867,1.6727,1.5438,0.0,1.6541,1.5864,1.5547,1.5612,1.6387,1.607,1.582,1.6113,1.7426,1.8209,1.7787,1.9118,1.9826,1.9746,1.9259,1.8831,1.8504,1.8163,1.7736,1.7215,1.6914,1.662,1.6326,1.6025,1.5865,1.5832,1.5832,1.5832,1.5832,1.5832,1.5832,1.5832,1.5832,1.5832,1.5832,1.5832,1.5832,1.5832,1.5832,1.5832,1.5832,1.5832,1.5832,1.5832,1.5832,1.5832,1.5832,1.5832,1.5832,1.5832,1.5832,1.5832,1.5832,1.5832,1.5832,1.5832,1.5832,1.5832,1.5832,1.5832,1.5832,1.5752,1.5504,1.5424,1.5237,1.4723,1.4603,1.4482,1.4188,1.4142,1.4128,1.4088,1.3641,1.3327,1.3327,1.3554,1.3701,1.3701,1.3941,1.4088,1.4088,1.4088,1.4088,1.4088,1.4088,1.4088,1.4088,1.4088,1.4088,1.4088,1.4088,1.4088,1.4088,1.4128,1.4142,2.4469,2.4469,2.444,2.4954,2.4162,2.3062,2.2237,2.1051,0.0,1.7401,1.6854,1.662,1.6079,1.642,1.6899,1.7351,1.8039,1.9018,2.048,1.9826,1.9707,0.0,2.0234,1.9691,1.9383,2.0035,0.0,0.0,2.0033,1.9947,1.9466,1.9345,1.9045,1.851,1.7949,1.7615,1.7508,1.7215,1.6927,1.6627,1.6339,1.6066,1.5832,1.5832,1.5832,1.5832,1.5832,0.0,1.5832,1.5832,1.5832,1.5832,1.5832,1.5832,1.5832,1.5832,1.5832,1.5832,1.5832,1.5832,1.5832,1.5832,1.5832,1.5832,1.5832,1.5832,1.5832,1.5832,1.5832,1.5832,1.5832,1.5832,1.5832,1.5832,1.5832,1.5832,1.5832,1.5832,1.5812,1.5765,1.5558,1.5364,1.5264,1.5044,1.4783,1.4489,1.4442,1.4355,1.4122,1.4001,1.3935,1.3935,1.3981,1.4008,1.4008,1.4055,1.4088,1.4088,1.4088,1.4088,1.4088,1.4088,1.4088,1.4088,1.4088,1.4088,1.4088,1.4088,1.4088,1.4095,1.4335,1.4442,2.4854,2.458,2.4521,2.4941,2.445,2.3657,2.2372,0.0,0.0,1.7613,1.6725,1.6166,1.5879,1.6313,0.0,1.7268,1.8486,2.0022,2.1698,2.1959,2.2425,2.3583,2.3457,2.3052,2.2602,2.2299,2.1838,2.1201,2.0465,1.9887,1.9606,1.9305,1.8938,1.8504,1.8056,1.7675,1.7361,1.7215,1.6927,1.648,1.6339,1.6119,1.5832,1.5832,1.5832,1.5832,1.5832,1.5832,1.5832,1.5832,1.5832,1.5832,1.5832,1.5832,1.5832,1.5832,1.5832,1.5832,1.5832,1.5832,1.5832,1.5832,1.5832,1.5832,1.5832,1.5832,1.5832,1.5832,1.5832,1.5832,1.5832,1.5832,1.5832,1.5832,1.5832,1.5832,1.5832,1.5832,1.5832,1.5832,1.5718,1.5571,1.5424,1.5284,1.509,1.4796,1.4623,1.4469,1.4329,1.4182,1.4088,1.4088,1.4088,1.4088,1.4088,1.4088,1.4088,1.4088,1.4088,1.4088,1.4088,1.4088,1.4088,1.4088,1.4088,1.4088,1.4088,1.4088,1.4168,1.4315,1.4456,1.4603,2.5239,2.4736,2.4514,2.4614,2.4461,2.3915,2.2373,2.0974,0.0,1.8031,1.6669,1.5832,1.5832,1.6206,1.656,0.0,1.8299,2.0181,2.1777,2.2879,2.3973,2.5436,2.5586,0.0,2.4711,2.4055,0.0,2.2581,2.111,2.0047,1.9706,1.9152,1.8724,1.8497,1.8136,1.7722,1.7248,1.7181,1.6887,1.6366,1.6299,1.6119,1.5832,1.5832,1.5832,1.5832,1.5832,1.5832,1.5832,1.5832,1.5832,1.5832,1.5832,1.5832,1.5832,1.5832,1.5832,1.5832,1.5832,1.5832,1.5832,1.5832,1.5832,1.5832,1.5832,1.5832,1.5832,1.5832,1.5832,1.5832,1.5832,1.5832,1.5832,1.5832,1.5832,1.5832,1.5832,1.5832,1.5832,1.5832,1.5832,1.5758,1.5531,1.5491,1.5391,1.5104,1.4803,1.4589,1.4529,1.4269,1.4088,1.4088,1.4088,1.4088,1.4088,1.4088,1.4088,1.4088,1.4088,1.4088,1.4088,1.4088,1.4088,1.4088,1.4088,1.4088,1.4088,1.4148,1.4295,1.4522,1.4649,1.483,2.6915,2.583,2.4857,2.5197,2.4535,2.3557,2.2309,0.0,1.9646,1.8031,1.6669,1.5832,1.5832,1.5872,1.6086,1.662,0.0,1.9636,2.2429,2.302,2.4065,2.6099,0.0,0.0,2.4711,2.4989,2.4789,2.4196,2.2482,2.0852,1.9522,1.8851,1.8517,1.849,1.7929,1.7602,1.7542,1.7281,1.6987,1.666,1.64,1.6119,1.5832,1.5832,1.5832,1.5832,1.5832,1.5832,0.0,1.5832,1.5832,1.5832,1.5832,1.5832,1.5832,1.5832,1.5832,1.5832,1.5832,1.5832,1.5832,1.5832,1.5832,1.5832,1.5832,1.5832,1.5832,1.5832,1.5832,1.5832,1.5832,1.5832,1.5832,1.5832,1.5832,1.5832,1.5832,1.5832,1.5832,1.5832,1.5832,1.5818,1.5792,1.5792,1.5691,1.5398,1.511,1.4823,1.4556,1.4269,1.4088,1.4088,1.4088,1.4088,1.4088,1.4088,1.4088,1.4088,1.4088,1.4088,1.4088,1.4088,1.4088,1.4088,1.4088,1.4088,1.4088,1.4349,1.4496,1.4536,1.507,1.5331,2.6851,2.6285,2.5852,2.6048,2.5041,2.3978,2.37,0.0,2.0121,1.9031,1.777,1.6669,1.592,1.5832,1.5905,0.0,0.0,0.0,2.1677,2.3314,2.5034,2.7012,2.7438,0.0,0.0,0.0,2.5861,2.4094,2.315,2.2292,2.175,1.9864,1.8671,1.8497,1.8083,1.7769,1.7589,1.7468,1.7174,1.6707,1.6774,1.6553,1.6092,1.6092,1.6092,1.6086,1.5905,1.5832,0.0,1.5832,1.5832,1.5832,1.5832,1.5832,1.5832,1.5832,1.5832,1.5832,1.5832,1.5832,1.5832,1.5832,1.5832,1.5832,1.5832,1.5832,1.5832,1.5832,1.5832,1.5832,1.5832,1.5832,1.5832,1.5832,1.5832,1.5832,1.5832,1.5832,1.5832,1.5832,1.5832,1.5832,1.5832,1.5832,1.5792,1.5671,1.5411,1.5117,1.4823,1.4683,1.4476,1.4122,1.4088,1.4088,1.4088,1.4088,1.4088,1.4088,1.4249,1.4269,1.4095,1.4429,1.4529,1.4349,1.4522,1.4616,1.4616,1.473,1.4877,1.505,1.5284,1.5491,2.7298,2.7094,2.6964,2.6964,2.5765,2.4634,0.0,0.0,2.0884,2.0219,1.9039,1.7863,1.6567,1.6662,1.6655,0.0,0.0,2.0289,2.1092,2.3496,2.5576,2.6934,0.0,2.8359,0.0,2.7842,2.6882,2.5313,2.4367,2.3829,2.3829,2.136,1.9541,1.9002,1.8273,1.7802,1.7589,1.7495,1.7201,1.6707,1.6827,1.6673,1.6273,1.6179,1.6186,1.6259,1.5959,1.5832,0.0,1.5832,1.5832,1.5832,1.5832,1.5832,1.5832,1.5832,1.5832,1.5832,1.5832,1.5832,1.5832,1.5832,1.5832,1.5832,1.5832,1.5832,1.5832,1.5832,1.5832,1.5832,1.5832,1.5832,1.5832,1.5832,1.5832,1.5832,1.5832,1.5832,1.5832,1.5832,1.5832,1.5832,1.5832,1.5832,1.5832,1.5832,1.5585,1.5324,1.5117,1.5017,1.477,1.4269,1.4215,1.4182,1.4095,1.4088,1.4088,1.4088,1.4362,1.4429,1.4222,1.4696,1.4863,1.4656,1.5198,1.5569,1.5569,1.601,1.6346,1.6471,1.6564,1.6722,2.8863,2.8521,2.8084,2.8084,2.6806,2.544,0.0,0.0,2.195,2.1371,2.0305,1.9131,1.787,1.868,1.8672,1.6197,1.884,0.0,2.0853,2.3321,2.5244,0.0,0.0,2.7031,2.7031,2.7803,2.8301,2.8291,2.6444,0.0,2.5335,2.3241,2.1498,2.0128,1.8464,1.7589,1.7582,1.7295,1.7001,1.67,1.642,1.6279,1.6259,1.5972,1.5999,1.6259,1.5959,1.5832,0.0,1.5832,1.5832,1.5832,1.5832,1.5832,1.5832,1.5832,1.5832,1.5832,1.5832,1.5832,1.5832,1.5832,1.5832,1.5832,1.5832,1.5832,1.5832,1.5832,1.5832,1.5832,1.5832,1.5832,1.5832,1.5832,1.5832,1.5832,1.5832,1.5832,1.5832,1.5832,1.5832,1.5832,1.5832,1.5832,1.5832,1.5832,1.5585,1.5398,1.5391,1.5137,1.485,1.4543,1.4516,1.4402,1.4115,1.4088,1.4088,1.4088,1.4362,1.4522,1.4516,1.4803,1.4963,1.4957,1.6161,1.6763,1.6763,1.8338,1.9049,1.9057,1.9323,1.9488,2.81,2.8525,2.8531,2.8161,2.7212,2.6124,2.5499,0.0,2.2649,2.1502,2.1025,2.0395,1.9131,1.9222,1.9222,1.8488,2.0025,0.0,0.0,0.0,0.0,2.5644,2.7266,2.832,0.0,0.0,2.8291,2.8291,2.692,2.6161,2.6446,2.4416,2.2545,2.1107,1.9565,1.8702,1.8599,1.7394,1.68,1.6707,1.6613,1.6466,1.6273,1.6179,1.6186,1.6259,1.5959,1.5832,1.5832,1.5832,1.5832,1.5832,1.5832,1.5832,1.5832,1.5832,1.5832,1.5832,1.5832,1.5832,1.5832,1.5832,1.5832,1.5832,1.5832,1.5832,1.5832,1.5832,1.5832,1.5832,1.5832,1.5832,1.5832,1.5832,1.5832,1.5832,1.5832,1.5832,1.5832,1.5832,1.5832,1.5832,1.5832,1.5832,1.5832,1.5832,1.5752,1.5618,1.5424,1.5491,1.5364,1.4877,1.5003,1.4917,1.4429,1.4382,1.4469,1.4676,1.4963,1.503,1.483,1.5297,1.5814,1.6487,1.6253,1.6989,1.8603,1.8284,1.8613,1.9422,1.9439,1.9497,0.0,2.8009,2.8953,2.8258,2.7738,0.0,0.0,0.0,0.0,2.2494,2.2174,2.1578,2.0395,2.0584,2.0584,1.9679,2.0845,2.19,0.0,0.0,0.0,2.54,0.0,0.0,0.0,2.7773,2.7812,2.7812,2.6924,2.6435,2.6533,2.5045,2.3624,2.2426,2.0793,1.983,1.9737,1.8124,1.7329,1.7218,1.6738,1.6446,1.6273,1.6159,1.6166,1.6259,1.5959,1.5832,0.0,1.5832,1.5832,1.5832,1.5832,1.5832,1.5832,1.5832,1.5832,1.5832,1.5832,1.5832,1.5832,1.5832,1.5832,1.5832,1.5832,1.5832,1.5832,1.5832,1.5832,1.5832,1.5832,1.5832,1.5832,1.5832,1.5832,1.5832,1.5832,1.5832,1.5832,1.5832,1.5832,1.5832,1.5832,1.5832,1.5832,1.5832,1.5832,1.5765,1.5585,1.5718,1.5825,1.5784,1.5552,1.542,1.5478,1.5008,1.477,1.495,1.5237,1.5317,1.5137,1.5578,1.6108,1.6629,1.7008,1.7755,1.8864,1.8956,1.9679,2.0863,2.0863,2.0863,0.0,2.6889,2.8963,2.8201,2.8209,2.8079,0.0,0.0,0.0,0.0,0.0,0.0,2.1621,2.2287,2.2413,2.0133,2.1676,2.2821,0.0,2.3379,0.0,0.0,2.5859,0.0,2.5781,2.6426,2.6894,2.6924,2.6504,2.6084,2.5713,2.5264,2.4658,2.3857,2.2143,2.1122,2.1032,1.9419,1.8446,1.817,1.7015,1.6434,1.642,1.5952,1.5979,0.0,1.5945,1.5832,0.0,1.5832,1.5832,1.5832,1.5832,1.5832,1.5832,1.5832,1.5832,1.5832,1.5832,1.5832,1.5832,1.5832,1.5832,1.5832,1.5832,1.5832,1.5832,1.5832,1.5832,1.5832,1.5832,1.5832,1.5832,1.5832,1.5832,1.5832,1.5832,1.5832,1.5832,1.5832,1.5832,1.5832,1.5832,1.5832,1.5832,1.5832,1.5832,1.5832,1.5832,1.5832,1.6175,1.7137,1.6225,1.6049,1.7281,1.5944,1.5093,1.5203,1.546,1.5609,1.5701,1.596,1.6103,1.6103,1.8303,1.8956,1.7692,2.0034,2.1756,2.2862,2.296,2.296,1.9817,0.0,2.6709,2.6859,2.7253,2.7268,0.0,0.0,0.0,0.0,0.0,0.0,0.0,0.0,2.2872,2.2325,2.2775,2.2998,2.283,2.3754,0.0,2.5947,2.5967,2.585,2.5752,2.5615,2.5664,2.6016,2.5312,2.498,2.5215,2.4805,2.4473,2.4277,2.3572,2.2668,2.1635,2.0027,1.9378,1.9461,1.8003,1.7341,1.7334,1.6231,1.5865,1.5925,1.5858,0.0,1.5832,1.5832,1.5832,1.5832,1.5832,1.5832,1.5832,1.5832,1.5832,1.5832,1.5832,1.5832,1.5832,1.5832,1.5832,1.5832,1.5832,1.5832,1.5832,1.5832,1.5832,1.5832,1.5832,1.5832,1.5832,1.5832,1.5832,1.5832,1.5832,1.5832,1.5832,1.5832,1.5832,1.5832,1.5832,1.5832,1.5832,1.5832,1.5832,1.5832,1.5832,1.5832,1.6264,1.7479,1.7294,1.7657,1.8819,1.6718,1.5844,1.6985,1.7165,1.7565,1.8462,1.8632,1.8672,1.8672,1.9222,1.8956,1.7692,1.9222,2.0034,2.0404,2.1302,2.1747,1.727,2.081,2.4249,2.4694,2.5677,2.6213,0.0,0.0,0.0,0.0,0.0,0.0,0.0,0.0,0.0,0.0,2.1734,0.0,0.0,0.0,2.3125,2.3794,2.3675,2.3547,0.0,2.324,2.3204,2.3432,2.3522,2.3579,2.371,2.3973,2.4043,2.3838,2.3603,2.3217,2.2765,2.1148,2.0408,2.0506,1.9136,1.8503,1.8503,1.7217,1.6662,1.6669,1.6015,0.0,1.5832,1.5832,1.5832,1.5832,1.5832,1.5832,1.5832,1.5832,1.5832,1.5832,1.5832,1.5832,1.5832,1.5832,1.5832,1.5832,1.5832,1.5832,1.5832,1.5832,1.5832,1.5832,1.5832,1.5832,1.5832,1.5832,1.5832,1.5832,1.5832,1.5832,1.5832,1.5832,1.5832,1.5832,1.5832,1.5832,1.5832,1.5832,1.6292,1.648,1.5927,1.6298,1.7124,1.8411,1.8048,1.8411,2.0215,1.7957,1.7035,1.8403,1.8503,1.8864,1.9488,1.8956,1.868,1.868,1.8126,1.8303,1.9314,1.9488,2.0042,2.1132,2.1854,2.212,1.5311,1.8133,2.1109,2.244,2.3884,2.4687,2.3503,0.0,0.0,0.0,0.0,0.0,0.0,2.1397,0.0,0.0,0.0,0.0,1.9552,2.0009,2.0189,2.0238,2.0197,0.0,2.0284,2.0284,2.0388,2.0595,2.156,2.199,2.1668,2.2572,2.2961,2.2599,2.2589,2.2859,2.3403,2.2199,2.1569,2.1569,2.0305,1.9761,1.9761,1.8503,1.7956,1.7863,0.0,0.0,1.6109,1.5927,1.5832,1.5832,1.5832,1.5832,1.5832,1.5832,1.5832,1.5832,1.5832,1.5832,1.5832,1.5832,1.5832,1.5832,1.5832,1.5832,1.5832,1.5832,1.5832,1.5832,1.5832,1.5832,1.5832,1.5832,1.5832,1.5832,1.5832,1.5832,1.5832,1.5832,1.5832,1.5832,1.5832,1.5832,1.5832,1.5832,1.685,1.7318,1.6204,1.7217,1.8411,1.9679,1.868,1.8864,2.1114,1.9222,1.8411,1.9405,1.9497,1.9579,1.9761,1.8411,1.7692,1.7692,1.648,1.7382,2.0477,1.967,2.0314,2.2315,2.2677,2.2862,1.2254,1.3739,1.6114,2.0841,2.2067,2.211,2.2157,0.0,0.0,0.0,0.0,0.0,0.0,1.9233,1.9092,0.0,0.0,1.6369,0.0,0.0,1.6588,1.6854,0.0,1.6879,1.7863,1.7963,1.8458,1.9653,1.9845,1.9912,1.9853,2.0036,2.0102,2.0042,2.0042,2.061,2.166,2.2432,2.2862,2.2775,2.1578,2.1025,2.1025,1.9761,1.9222,1.9131,0.0,1.7412,1.7318,1.6197,1.5832,1.5832,1.5832,1.5832,1.5832,1.5832,1.5832,1.5832,1.5832,1.5832,1.5832,1.5832,1.5832,1.5832,1.5832,1.5832,1.5832,1.5832,1.5832,1.5832,1.5832,1.5832,1.5832,1.5832,1.5832,1.5832,1.5832,1.5832,1.5832,1.5832,1.5832,1.5832,1.5832,1.5832,1.5832,1.5832,1.685,1.7598,1.7412,1.8503,1.9679,2.0935,1.9943,1.9761,2.1203,2.0034,1.9314,1.9497,1.9497,1.9943,2.1025,1.8864,1.7692,1.7692,1.648,1.6103,1.6655,1.7584,1.8141,1.8603,2.0576,2.1569,1.0536,1.1013,1.2127,1.5565,1.7432,1.8382,1.8143,0.0,0.0,0.0,0.0,0.0,0.0,0.0,1.5915,1.5259,0.0,1.3377,1.3808,1.372,1.3472,0.0,0.0,1.3125,1.4349,1.4463,1.4754,1.5341,1.6664,1.7416,1.7416,1.874,1.9497,1.9497,1.9497,1.9761,2.0305,2.0854,2.1774,2.3047,2.258,2.2306,2.2217,2.1033,2.0486,2.0395,0.0,1.868,1.8596,1.7311,1.6857,1.6763,1.6109,1.5832,1.5832,1.5832,1.5832,1.5832,1.5832,1.5832,1.5832,1.5832,1.5832,1.5832,1.5832,1.5832,1.5832,1.5832,1.5832,1.5832,1.5832,1.5832,1.5832,1.5832,1.5832,1.5832,1.5832,1.5832,1.5832,1.5832,1.5832,1.5832,1.5832,1.5832,1.5832,1.5832,1.7397,1.8411,1.7777,1.9314,2.0666,2.1203,2.0845,2.0666,2.1293,2.0215,1.9497,1.9497,1.9497,1.9497,1.9405,1.8326,1.7412,1.6669,1.6109,1.6109,1.6857,1.7412,1.8411,1.967,2.0755,2.1658,0.9008,0.9194,0.9585,1.0761,0.0,1.4622,1.4263,0.0,0.0,0.0,0.0,0.0,0.0,1.317,0.0,1.2597,1.0784,0.9602,1.0005,1.0009,0.979,0.9064,0.936,1.0105,1.1346,1.1463,1.1556,1.1853,1.3741,1.4779,1.4779,1.6951,1.818,1.818,1.848,1.8764,1.9039,1.9039,2.0133,2.2227,2.2227,2.2227,2.2227,2.1302,2.0845,2.0845,1.9579,1.9039,1.8956,1.777,1.7225,1.7131,1.6204,1.6015,1.6204,1.592,1.6015,1.6197,1.592,1.5832,1.5832,1.5832,1.5832,1.5832,1.5832,1.5879,1.5932,1.5932,1.5985,1.6005,1.5865,1.5932,1.6012,1.5952,1.5985,1.6012,1.5945,1.5932,1.5912,1.5845,1.5832,1.5832,1.5832,1.5832,1.5832,1.5832,1.794,1.9131,1.8234,2.0223,2.1747,2.1747,2.148,2.1114,2.0486,1.9306,1.8672,1.8672,1.8672,1.8311,1.7692,1.7412,1.6943,1.6298,1.592,1.6574,1.8141,1.8141,1.9222,2.1293,2.1569,2.2217,0.7318,0.8259,0.9251,0.9054,1.0318,0.0,1.1963,1.2141,0.0,0.0,0.0,0.0,0.0,1.05,1.0833,1.0757,0.7214,0.4505,0.4606,0.0,0.4906,0.5606,0.7126,0.8638,0.9998,1.0096,1.0583,1.1848,1.2042,1.2134,1.2134,1.3578,1.4345,1.4345,1.5419,1.6662,1.7777,1.787,1.8503,1.977,1.977,1.977,1.977,1.9679,1.9588,1.9579,1.8319,1.787,1.7684,1.648,1.592,1.592,1.5825,1.648,1.7412,1.6204,1.6574,1.7412,1.6204,1.5832,1.5832,1.5832,1.5832,1.5832,1.5832,1.6019,1.6239,1.6239,1.6433,1.6513,1.5972,1.6233,1.6573,1.6306,1.6446,1.6567,1.6299,1.6239,1.6159,1.5879,1.5832,1.5832,1.5832,1.5832,1.5832,1.5832,1.794,1.9497,1.9405,2.1498,2.296,2.296,2.1943,2.0395,1.8141,1.6756,1.6109,1.6109,1.6109,1.6567,1.7692,1.6574,1.648,1.7505,1.6386,1.7023,1.9405,1.9405,2.0034,2.1293,2.2492,2.3047,0.6441,0.6915,0.7387,0.7315,0.0,0.0,0.0,0.0,0.0,0.0,0.7382,0.0,0.0,0.0,0.9007,0.9007,0.4734,0.1511,0.1511,0.1511,0.2213,0.4318,0.6548,0.8168,0.873,0.8726,0.892,0.941,1.0293,1.0681,1.0681,1.1945,1.3006,1.3878,1.4364,1.5229,1.648,1.648,1.6756,1.7203,1.8764,1.9497,1.9497,1.9497,1.9497,1.9488,1.9039,1.8864,1.868,1.749,1.6943,1.6943,1.6109,1.6574,1.7591,1.7131,1.7318,1.7777,1.8033,1.7117,1.592,1.6756,1.6943,1.6892,1.6334,1.6753,1.7265,1.6684,1.6754,1.6887,1.648,1.654,1.6673,1.6567,1.6627,1.6627,1.6333,1.6273,1.6239,1.6126,1.6106,1.6166,1.6346,1.6226,1.6106,1.6106,1.7435,1.868,1.9405,2.0314,2.1409,2.296,2.1311,1.9497,1.787,1.6574,1.5832,1.5832,1.5832,1.6015,1.648,1.685,1.7225,1.7684,1.7225,1.777,1.9497,1.8772,1.9405,2.1293,2.1756,2.2403,0.636,0.6474,0.6551,0.0,0.0,0.0,0.0,0.0,0.0,0.0,0.3738,0.0,0.0,0.0,0.0,0.0,0.3536,0.0606,0.2322,0.2524,0.3228,0.5027,0.6856,0.7972,0.8041,0.8038,0.8038,0.8038,0.8825,0.941,0.941,1.0583,1.194,1.3199,1.3686,1.4555,1.5825,1.5832,1.5832,1.5825,1.7483,1.8303,1.8303,1.8303,1.8303,1.8303,1.8303,1.8303,1.8303,1.7397,1.7131,1.7037,1.6109,1.6574,1.7692,1.7692,1.7963,1.8411,1.9222,1.8126,1.6574,1.7412,1.7759,1.769,1.6587,1.7267,1.8236,1.7182,1.7061,1.7241,1.7034,1.6981,1.6961,1.6867,1.6847,1.6767,1.6473,1.6339,1.6273,1.6273,1.6192,1.6226,1.652,1.64,1.6239,1.6146,1.707,1.8077,1.888,1.9222,2.0133,2.1774,2.0133,1.8596,1.7777,1.6574,1.5832,1.5832,1.5832,1.5832,1.5832,1.7037,1.7692,1.7692,1.7692,1.8319,1.9497,1.868,1.9314,2.1293,2.1667,2.2306,0.7146,0.7137,0.7078,0.0,0.0,0.0,0.0,0.0,0.0,0.0,0.0,-0.0,-0.0,0.0,0.0,0.7922,0.3534,0.1918,0.7202,0.8022,0.8012,0.7975,0.7972,0.7965,0.8041,0.8038,0.8038,0.8038,0.8038,0.8038,0.8038,0.9217,1.0583,1.1848,1.3199,1.4459,1.5825,1.5832,1.5832,1.5832,1.5832,1.5832,1.5832,1.5832,1.5832,1.5832,1.5832,1.5832,1.5832,1.5832,1.5832,1.5832,1.5832,1.6574,1.7692,1.7692,1.8503,1.9497,1.9497,1.868,1.7692,1.7692,1.8003,1.8074,1.6752,1.7662,1.8947,1.7551,1.7361,1.7582,1.7575,1.7575,1.7508,1.7215,1.7148,1.7068,1.6767,1.6473,1.6273,1.6279,1.6039,1.5925,1.6226,1.6279,1.6172,1.5879,1.7113,1.7955,1.7729,1.8772,1.9488,1.9497,1.8411,1.7692,1.7692,1.6574,1.5832,1.5832,1.5832,1.5832,1.5832,1.7037,1.7692,1.7692,1.7692,1.8319,1.9497,1.9497,2.0124,2.1293,2.2501,2.3047,0.8546,0.8413,0.0,0.0,0.0,0.0,0.0,0.0,0.0,0.0,0.1611,0.0552,0.2188,0.0,0.0,0.5539,0.3891,0.3419,0.4933,0.6768,0.7995,0.7975,0.7972,0.7965,0.8041,0.8038,0.8038,0.8038,0.8038,0.8038,0.8038,0.8333,0.9604,1.1848,1.2334,1.3596,1.5737,1.5832,1.5832,1.5832,1.5832,1.5832,1.5832,1.5832,1.5832,1.5832,1.5832,1.5832,1.5832,1.5832,1.5832,1.5832,1.5832,1.6574,1.7692,1.7692,1.7963,1.8319,1.9222,1.868,1.7721,1.7953,1.8642,1.909,1.7448,1.7908,1.8752,1.7551,1.7361,1.7488,1.7074,1.7121,1.7255,1.7174,1.7148,1.7014,1.6506,1.6333,1.6333,1.6533,1.6339,1.6299,1.68,1.6547,1.6246,1.6152,1.632,1.649,1.64,1.8218,1.8856,1.7117,1.7404,1.7318,1.648,1.6015,1.5832,1.5832,1.5832,1.5832,1.5832,1.7037,1.7692,1.7692,1.7692,1.8319,1.9497,1.8688,1.9314,2.1293,2.1667,2.2306,0.9291,0.9184,0.0,0.0,0.0,0.8155,0.8358,0.0,0.0,0.0,0.0,0.2976,0.351,0.581,0.0,0.5719,0.551,0.5575,0.5468,0.6924,0.7979,0.7962,0.7959,0.7955,0.8041,0.8038,0.8038,0.8038,0.8038,0.8038,0.8038,0.8528,0.9702,1.1848,1.2431,1.3686,1.5737,1.5832,1.5832,1.5832,1.5832,1.5832,1.5832,1.5832,1.5832,1.5832,1.5832,1.5832,1.5832,1.5832,1.5832,1.5832,1.5832,1.6292,1.7037,1.7505,1.7692,1.787,1.9039,1.868,1.7744,1.797,1.8632,1.9106,1.8003,1.8261,1.8755,1.7966,1.7503,1.7154,1.6794,1.684,1.6974,1.6974,1.6887,1.6707,1.6353,1.6179,1.6219,1.6627,1.6373,1.6279,1.6874,1.658,1.6233,1.6112,1.6046,1.5965,1.5845,1.7334,1.7816,1.6204,1.6773,1.7035,1.6179,1.6072,1.6005,1.6005,1.5892,1.5832,1.5832,1.7037,1.7505,1.6943,1.7956,1.8503,1.8772,1.9039,1.9852,2.1293,2.1756,2.2403,0.986,0.0,0.0,0.0,0.9129,0.0,0.9296,0.7922,0.6599,0.6843,0.0,0.6435,0.4281,0.5631,0.7224,0.7527,0.777,0.7966,0.7748,0.7875,0.7962,0.8041,0.8038,0.8038,0.8038,0.8038,0.8038,0.8038,0.8137,0.8134,0.8134,0.941,1.0779,1.2042,1.3295,1.4555,1.5825,1.5832,1.5832,1.5832,1.5832,1.5832,1.5832,1.5832,1.5832,1.5832,1.5832,1.5832,1.5832,1.5832,1.5832,1.5832,1.5832,1.5832,1.592,1.7131,1.7505,1.7684,1.8772,1.8495,1.7744,1.7875,1.817,1.8414,1.8363,1.8459,1.8648,1.8324,1.7563,1.6693,1.664,1.6647,1.666,1.6633,1.6446,1.6273,1.6273,1.6059,1.6046,1.6633,1.6273,1.6059,1.6647,1.646,1.6139,1.5872,1.6059,1.6146,1.5899,1.6339,1.6673,1.6528,1.6646,1.6707,1.69,1.6538,1.6273,1.6273,1.5992,1.5832,1.5832,1.6943,1.6943,1.5825,1.8118,1.8772,1.7692,2.0034,2.1221,2.1356,2.246,2.3037,0.0,1.139,0.0,0.0,1.0966,1.0265,0.9448,0.8956,0.8513,0.7844,0.7222,0.6642,0.6254,0.6694,0.7218,0.7414,0.7655,0.7824,0.7818,0.795,0.8045,0.8038,0.8038,0.8038,0.8038,0.8038,0.8038,0.8038,0.9019,0.9608,0.9608,1.0779,1.2139,1.3392,1.3782,1.4555,1.5825,1.5832,1.5832,0.0,1.5832,1.5832,1.5832,1.5832,1.5832,1.5832,1.5832,1.5832,1.5832,1.5832,1.5832,1.5832,1.5832,1.5832,1.5832,1.6109,1.6204,1.6292,1.6473,1.7124,1.7557,1.6938,1.7971,1.9249,1.7584,1.7775,1.8309,1.71,1.6724,1.66,1.6139,1.6192,1.6306,1.6072,1.6152,1.6273,1.6273,1.6219,1.6353,1.6941,1.658,1.6359,1.6954,1.6426,1.5905,1.5838,1.5885,1.5985,1.6152,1.6286,1.6813,1.8047,1.7251,1.7093,1.8163,1.7016,1.6273,1.6273,1.5992,1.5832,1.5832,1.6015,1.6109,1.5832,1.7311,1.7963,1.7692,1.9131,2.0559,2.1889,2.208,2.2894,0.0,0.0,0.0,0.0,0.0,1.2044,1.152,1.1087,1.0455,0.9504,0.8589,0.806,0.8267,0.8466,0.8653,0.8911,0.9246,0.9489,0.9489,0.9723,0.9899,0.9899,0.9899,0.9899,0.9899,0.9899,0.9899,0.9899,1.0485,1.0877,1.0877,1.2134,1.3199,1.3878,1.4459,1.5146,1.5825,1.5832,1.5832,1.5832,1.5832,1.5832,1.5832,1.5832,1.5832,1.5832,1.5832,1.5832,1.5832,1.5832,1.5832,1.5832,1.5832,1.5832,1.5832,1.5832,1.5832,1.5832,1.5832,1.6204,1.6718,1.6366,1.7021,1.7976,1.8208,1.8208,1.8155,1.8628,1.7955,1.707,1.6746,1.6415,1.6019,1.5865,1.6052,1.6273,1.6273,1.6273,1.6446,1.7034,1.656,1.6246,1.6834,1.6319,1.5832,1.5832,1.5952,1.6046,1.6059,1.6426,1.6987,1.7676,1.7353,1.7367,1.7917,1.7038,1.642,1.6279,1.5992,1.5832,1.5832,1.5832,1.5832,1.5832,1.7037,1.7963,1.8596,1.9761,2.1238,2.2856,2.2856,2.3448,0.0,0.0,0.0,0.0,1.3818,0.0,1.3954,1.3382,1.2579,1.1742,1.0562,0.9787,0.9893,1.0013,1.0223,1.0565,1.0954,1.1237,1.1278,1.1632,1.1803,1.1843,1.1945,1.1945,1.1945,1.1945,1.1945,1.1945,1.2139,1.2237,1.2237,1.3494,1.4262,1.4262,1.5242,1.5832,1.5832,1.5832,1.5832,1.5832,1.5832,1.5832,1.5832,1.5832,1.5832,1.5832,1.5832,1.5832,1.5832,1.5832,1.5832,1.5832,1.5832,1.5832,1.5832,1.5832,1.5832,1.5832,1.5832,1.5832,1.5872,1.6119,1.6121,1.6522,1.8542,1.8442,1.8048,1.9869,1.8864,1.7412,1.7412,1.6574,1.5832,1.5832,1.6052,1.6273,1.6273,1.6273,1.6433,1.6967,1.652,1.6179,1.6567,1.6313,1.6039,1.5992,1.6192,1.6279,1.6079,1.6693,1.7177,1.717,1.7448,1.7513,1.7572,1.7076,1.6607,1.6359,1.6119,1.5979,1.5979,1.5979,1.5979,1.5979,1.7421,1.8714,2.0046,2.1229,2.255,2.4014,2.4014,2.4238,0.0,0.0,0.0,0.0,1.4378,1.5021,0.0,0.0,1.4799,0.0,1.2492,1.0444,1.0023,0.9882,1.012,1.0545,1.0735,1.097,1.1253,1.149,1.1622,1.1828,1.1945,1.1945,1.1945,1.1945,1.1945,1.1945,1.3011,1.3584,1.3584,1.4854,1.554,1.554,1.573,1.5832,1.5832,1.5832,1.5832,1.5832,1.5832,1.5832,1.5832,1.5832,1.5832,1.5832,1.5832,1.5832,1.5832,1.5832,1.5832,1.5832,1.5832,1.5832,1.5832,1.5832,1.5832,1.5832,1.5832,1.5832,1.5838,1.5879,1.6602,1.7326,1.6522,1.6972,1.7505,1.6756,1.6292,1.6015,1.6015,1.592,1.5832,1.5832,1.6052,1.6273,1.6273,1.6273,1.6373,1.67,1.6874,1.6834,1.6406,1.6687,1.6887,1.6627,1.662,1.6727,1.6941,1.7074,1.7736,1.9067,1.8018,1.7695,1.8853,1.7566,1.6687,1.6653,1.6613,1.6587,1.6587,1.6587,1.6587,1.6587,1.8701,2.0585,2.216,2.339,2.4278,2.4902,2.4902,2.5137,1.0525,0.0,0.0,0.0,1.5296,1.6,1.6,0.0,1.5234,1.5234,1.4359,1.3582,1.3473,1.2949,1.2753,1.34,1.3151,1.3004,1.3357,1.3397,1.3564,1.3832,1.3862,1.3862,1.3862,1.3993,1.4082,1.4082,1.4657,1.4949,1.4949,1.5534,1.5832,1.5832,1.5832,1.5832,1.5832,1.5832,1.5832,1.5832,1.5832,1.5832,1.5832,1.5832,1.5832,1.5832,1.5832,1.5832,1.5832,1.5832,1.5832,1.5832,1.5832,1.5832,1.5832,1.5832,1.5832,1.5832,1.5832,1.5832,1.5832,1.5832,1.6204,1.6669,1.685,1.7225,1.7684,1.7855,1.7397,1.685,1.685,1.6292,1.5832,1.5832,1.5925,1.6025,1.6025,1.6152,1.6259,1.6219,1.6453,1.6573,1.6319,1.6486,1.6673,1.67,1.6707,1.6754,1.6881,1.7048,1.7503,1.8135,1.7777,1.7565,1.7816,1.7332,1.6814,1.648,1.6613,1.6707,1.6707,1.6707,1.7175,1.8038,1.8889,2.003,2.144,2.2793,2.3965,2.5068,2.5068,2.5312,0.0,0.0,0.0,0.0,1.5854,1.679,0.0,0.0,1.5974,0.0,1.6303,1.6642,1.7035,1.6069,1.5426,1.6016,1.5584,1.5268,1.5232,1.528,1.5301,1.5342,1.5351,1.5398,1.5398,1.5658,1.5832,1.5832,1.5832,1.5832,1.5832,1.5832,1.5832,1.5832,1.5832,1.5832,1.5832,1.5832,1.5832,1.5832,1.5832,1.5832,1.5832,1.5832,1.5832,1.5832,1.5832,1.5832,1.5832,1.5832,1.5832,1.5832,1.5832,1.5832,1.5832,1.5832,1.5832,1.5832,1.5832,1.5832,1.5832,1.5832,1.5832,1.6015,1.6943,1.7225,1.7404,1.8311,1.7948,1.7225,1.7225,1.648,1.5832,1.5832,1.5832,1.5832,1.5832,1.6286,1.6587,1.6436,1.6649,1.6883,1.7064,1.6851,1.668,1.6894,1.6927,1.6927,1.6927,1.7121,1.7255,1.7255,1.7388,1.7295,1.6854,1.7021,1.6961,1.6526,1.6767,1.6927,1.6927,1.6927,1.7733,1.9269,1.9029,1.9582,2.0842,2.1926,2.3153,2.4727,2.4727,2.5112,0.0,0.0,0.0,0.0,0.0,0.0,0.0,0.0,1.7978,1.8305,1.8472,1.8744,1.9568,1.8077,1.6872,1.7195,1.7188,1.6916,1.6167,1.6041,1.5828,1.5129,1.5231,1.5398,1.5398,1.5658,1.5832,1.5832,1.5832,1.5832,1.5832,1.5832,1.5832,1.5832,1.5832,1.5832,1.5832,1.5832,1.5832,1.5832,1.5832,1.5832,1.5832,1.5832,1.5832,1.5832,1.5832,1.5832,1.5832,1.5832,1.5832,1.5832,1.5832,1.5832,1.5832,1.5832,1.5832,1.5832,1.5832,1.5832,1.5832,1.5832,1.5832,1.5825,1.5927,1.592,1.592,1.6015,1.592,1.592,1.592,1.5825,1.5832,1.5832,1.5832,1.5832,1.5832,1.677,1.7702,1.8088,1.8312,1.8533,1.8944,1.8245,1.7522,1.7535,1.7535,1.7535,1.7535,1.7549,1.7562,1.7562,1.7328,1.7161,1.723,1.7141,1.7237,1.721,1.7375,1.7535,1.7535,1.7535,1.8157,1.9502,1.959,2.0287,2.1593,2.1694,2.2415,2.3755,2.3755,2.4492,0.0,0.0,0.0,1.2586,1.432,1.5699,1.7216,1.7438,1.7788,1.9272,1.9273,1.9436,2.0675,1.8958,1.7655,1.8285,1.7536,1.6944,1.7211,1.7008,1.692,1.7147,1.7228,1.7478,1.7784,1.8018,1.8211,1.8211,1.8211,1.8211,1.8211,1.8211,1.8211,1.8211,1.7397,1.6669,1.5832,1.5832,1.5832,1.5832,1.5832,1.5832,1.5832,1.5832,1.5832,1.5832,1.5832,1.5832,1.5832,1.5832,1.5832,1.5832,1.5832,1.5832,1.5832,1.5832,1.5832,1.5832,1.5832,1.5832,1.5832,1.5832,1.5832,1.5832,1.5832,1.5832,1.5832,1.5832,1.5832,1.5832,1.5832,1.5832,1.5832,1.5832,1.5832,1.5879,1.6072,1.6341,1.6848,1.8103,1.8095,1.8555,2.0186,1.9936,1.9729,2.0161,2.0231,2.0231,2.0231,2.0231,2.0231,2.0231,2.0123,1.9664,1.8564,1.8635,1.8259,1.7264,1.7422,1.7582,1.7582,1.7582,1.8199,1.9524,1.9627,2.0333,2.1752,2.2567,2.3276,2.3692,2.4609,2.5226,0.3796,0.0,0.0,0.0,0.0,1.435,1.5996,0.0,1.7423,1.8982,1.916,1.9456,2.0675,1.9341,1.8341,1.9362,1.8644,1.8092,1.8206,1.8172,1.811,1.8261,1.8448,1.8783,1.9024,1.9372,1.9497,1.9497,1.9497,0.0,1.9497,1.9497,1.9497,1.9497,1.868,1.7677,1.648,1.648,1.6197,1.5832,1.6204,1.6204,1.5825,1.6197,1.6197,1.5832,1.5832,1.5832,1.5832,1.5832,1.5832,1.5832,1.5832,1.5832,1.5832,1.5832,1.5832,1.5832,1.5832,1.6109,1.648,1.648,1.648,1.648,1.648,1.6109,1.5832,1.5832,1.5832,1.5832,1.5832,1.5832,1.5832,1.5832,1.5832,1.5912,1.6213,1.6402,1.7127,1.8877,1.8977,1.9454,2.1641,2.1483,2.1098,2.1677,2.1752,2.1752,2.1752,2.1752,2.1752,2.1752,2.1752,2.1054,1.9423,1.9508,1.8926,1.7412,1.7475,1.7582,1.7582,1.7582,1.8401,2.0231,1.9834,2.0538,2.2366,2.2366,2.2776,2.3692,2.4196,2.4815,0.0,0.0,0.0,0.0,0.0,0.0,1.4707,0.0,1.7025,1.7564,1.8152,1.8854,1.9756,1.9238,1.9082,2.0342,2.0537,2.0216,1.9195,1.9371,1.9288,1.8213,1.8774,1.9217,1.9226,1.9454,1.9571,1.9588,1.9588,1.9588,1.9588,1.9588,1.9579,1.9571,1.9579,1.8948,1.777,1.7777,1.7131,1.592,1.7131,1.7131,1.592,1.7225,1.7037,1.592,1.592,1.592,1.592,1.5832,1.5832,1.5832,1.5832,1.5832,1.5832,1.5832,1.5832,1.5832,1.5832,1.6669,1.7692,1.7692,1.7692,1.7777,1.7777,1.685,1.592,1.5825,1.5832,1.5825,1.5832,1.5832,1.5832,1.5838,1.5845,1.5925,1.6233,1.7251,1.8662,2.0769,2.109,2.161,2.3421,2.2659,2.1837,2.1845,2.1853,2.1853,2.1853,2.1853,2.1853,2.1853,2.1853,2.1245,1.9826,1.9627,1.9117,1.7687,1.7582,1.7582,1.7582,1.7582,1.8909,2.1643,2.0333,2.1049,2.3791,2.1049,2.1049,2.3683,2.2366,2.3185,0.4138,0.0,0.0,0.0,0.0,0.0,0.0,0.0,1.5045,1.7532,1.8215,1.8695,1.9645,1.9687,1.9678,2.0029,1.9844,1.9778,2.0081,2.0531,2.0647,2.0314,2.0772,2.1212,2.1502,2.1633,2.182,0.0,2.2129,2.2129,2.2129,2.2129,2.1539,2.0439,2.0606,2.0078,1.8481,1.8819,1.8856,1.8488,1.8856,1.8856,1.8488,1.8856,1.8764,1.8488,1.8488,1.8488,1.8303,1.6567,1.5832,1.5832,1.5832,1.5832,1.5832,1.5832,1.5832,1.5832,1.5832,1.6669,1.7692,1.7692,1.8319,1.9047,1.9047,1.8764,1.8303,1.7404,1.7131,1.6943,1.6015,1.5832,1.5885,1.6099,1.6152,1.6293,1.68,1.7204,1.8232,2.067,2.1679,2.2793,2.4799,2.4551,2.4253,2.4562,2.4609,2.4609,2.4609,2.4609,2.4609,2.4609,2.4609,2.3692,2.1347,2.1143,2.0128,1.7786,1.7582,1.7582,1.7582,1.7582,1.8909,2.1643,2.1347,2.2466,2.5118,2.3384,2.2976,2.3683,2.4304,2.5182,0.6069,0.6661,0.6996,0.7701,0.0,0.0,1.0972,1.198,1.3167,0.0,1.636,1.7063,1.8853,1.9052,1.9231,2.0051,1.9824,1.9785,2.0469,2.1113,2.1435,2.126,2.1777,2.2178,2.2246,2.2246,2.2353,2.2598,2.2617,2.2617,2.2617,2.2617,2.2226,2.1435,2.15,2.0875,1.957,1.963,1.9563,1.9175,1.9715,1.9715,1.9265,1.9966,1.9859,1.9183,1.943,1.9497,1.9405,1.794,1.7296,1.7296,1.6756,1.6574,1.6574,1.6015,1.6109,1.6574,1.6574,1.7762,1.9131,1.8588,1.8956,1.9405,1.8864,1.8403,1.7848,1.7124,1.6943,1.6763,1.6015,1.6293,1.6901,1.7084,1.7225,1.745,1.7943,1.8048,1.8484,2.021,2.146,2.2753,2.4524,2.5266,2.5644,2.5723,2.5889,2.5947,2.5762,2.5742,2.5742,2.5742,2.5742,2.4815,2.2667,2.2558,2.1347,1.8603,1.8401,1.8199,1.7582,1.7582,1.8603,2.0743,2.0988,2.2162,2.4399,2.4117,2.4016,2.428,2.5462,2.624,0.6625,0.6746,0.6894,0.6991,0.7933,0.0,0.8679,0.997,1.1508,0.0,1.3586,1.485,1.7441,1.7881,1.8355,2.0053,2.0168,2.0195,2.0586,2.1357,2.1748,2.1357,2.1982,2.2295,2.1924,2.1846,2.1836,2.1885,2.1885,2.1885,2.1885,2.1885,2.2031,2.2363,2.206,2.1511,2.0762,2.0368,1.9865,1.915,2.0341,2.0254,1.9167,2.0696,2.0572,1.9175,1.9592,1.9743,1.9743,1.9785,1.9728,1.9405,1.8319,1.787,1.7777,1.6662,1.6943,1.787,1.787,1.9405,2.1114,2.0034,1.9761,1.9679,1.8503,1.7304,1.6379,1.6285,1.6197,1.6204,1.6238,1.7384,1.8464,1.8452,1.8686,1.8988,1.9227,1.9396,1.958,1.9774,2.0837,2.2156,2.3692,2.5126,2.5974,2.5693,2.6074,2.6172,2.5781,2.5742,2.5742,2.5742,2.5742,2.5128,2.3791,2.3692,2.2567,1.9731,1.9627,1.9013,1.7687,1.7582,1.8199,1.9524,2.0061,2.1023,2.2536,2.3782,2.4642,2.5032,2.6015,2.6689,0.6702,0.6797,0.6902,0.6963,0.7232,0.0,0.8669,0.9143,0.9961,0.0,1.3271,1.4342,1.5545,1.7367,1.8756,1.8738,2.001,2.1006,2.1094,2.1553,2.1855,2.1768,2.1904,2.1982,2.1894,2.1562,2.1504,2.1865,2.1885,2.1885,2.1885,2.1885,2.1758,2.1494,2.1748,2.1666,2.114,2.1399,2.1489,2.1315,2.1901,2.1891,2.1324,2.1997,2.1873,2.1315,2.139,2.1428,2.1457,2.1788,2.0943,1.9497,1.9222,1.9131,1.9131,1.8856,1.8948,1.9131,1.9131,2.0124,2.1293,2.1025,2.1578,2.2129,2.0935,2.0387,2.0025,1.9031,1.8764,1.8827,1.9191,1.9507,1.9605,1.9117,1.9881,2.0504,1.966,2.0437,2.1265,2.133,2.155,2.2458,2.4913,2.4674,2.4603,2.5547,2.581,2.583,2.5752,2.5742,2.5742,2.5742,2.5742,2.5128,2.3791,2.3692,2.2567,1.9731,1.9627,1.9013,1.7687,1.7582,1.8199,1.9524,2.0995,2.1974,2.2642,2.4053,2.4945,2.5324,2.6445,2.7129,0.6814,0.6871,0.6946,0.7017,0.7088,0.0,0.0,0.7899,0.841,1.0103,1.0932,1.2015,1.4193,1.5621,1.6887,1.79,1.8717,1.9634,2.0819,2.1707,2.2119,2.1904,2.207,2.2031,2.1602,2.1367,2.123,2.123,2.123,2.1328,2.1553,2.1562,2.1562,2.1562,2.1562,2.1455,2.123,2.123,2.1338,2.1562,2.1777,2.1768,2.1582,2.2002,2.1963,2.1572,2.1787,2.1885,2.1904,2.2119,2.1618,2.0683,2.0526,2.0395,2.0305,1.9761,1.9852,2.0395,2.0395,2.1212,2.212,2.148,2.1756,2.1943,2.0755,2.0395,2.0305,1.967,1.9497,1.9571,2.0027,2.0721,2.1303,2.1293,2.1849,2.2335,2.1719,2.1651,2.2005,2.2808,2.2435,2.2588,2.444,2.5055,2.5252,2.4946,2.5186,2.5041,2.4025,2.3818,2.3692,2.3692,2.3692,2.3384,2.2767,2.2667,2.1853,1.9731,1.9627,1.9013,1.7687,1.7582,1.8034,1.9085,2.0033,2.0676,2.1115,2.252,2.3695,2.4637,2.5669,2.6464,0.7311,0.7311,0.7253,0.7109,0.7139,0.7109,0.0,0.0,0.0,0.8495,0.0,0.971,1.2759,0.0,0.0,0.0,0.0,0.0,0.0,2.1194,0.0,2.2084,2.2353,2.2236,2.1553,2.1406,2.1281,2.1144,2.0889,2.0928,2.1521,2.1232,2.1269,2.1621,2.1289,2.1103,2.1103,2.0742,2.0752,2.1103,2.1191,2.1191,2.1123,2.1562,2.1523,2.1123,2.1484,2.1631,2.1641,2.1719,2.1768,2.1753,2.1603,2.1502,2.128,2.0532,2.0801,2.1557,2.164,2.2306,2.295,2.1943,2.148,2.1114,2.0124,1.9852,1.9852,1.9852,2.0034,2.0326,2.0763,2.1968,2.3015,2.3308,2.3761,2.3998,2.3791,2.3129,2.2967,2.4417,2.3932,2.3469,2.4181,2.5607,2.604,2.4431,2.4593,2.4216,2.2358,2.1882,2.1752,2.1752,2.1752,2.1752,2.1752,2.1752,2.1143,1.9731,1.9687,1.9114,1.7775,1.7729,1.7989,1.8477,1.8778,1.9038,1.9285,2.0558,2.1926,2.3367,2.4828,2.573,0.8943,0.8686,0.8428,0.7401,0.7139,0.7136,0.7119,0.0,0.7379,0.8599,0.0,0.9291,1.0773,0.0,0.0,0.0,0.0,0.0,1.849,1.9381,2.0596,2.2727,2.2715,2.2471,2.2373,2.2031,2.2177,2.3116,2.19,2.1551,2.2673,2.1379,2.0664,2.0713,2.0664,2.0644,2.0644,2.0596,2.0596,2.0644,2.1045,2.1025,2.0654,2.1103,2.1064,2.0644,2.0693,2.0713,2.0752,2.1143,2.1309,2.1316,2.2078,2.2175,2.1942,2.2505,2.2544,2.237,2.2737,2.296,2.3047,2.295,2.2208,2.1293,2.1114,2.1114,2.1114,2.1114,2.1854,2.2869,2.3664,2.4088,2.4133,2.3742,2.4571,2.5128,2.3989,2.4799,2.591,2.6168,2.6367,2.6497,2.656,2.5872,2.5063,2.481,2.453,2.3803,2.2324,2.1882,2.1752,2.1752,2.1752,2.1752,2.1752,2.1752,2.1143,1.9731,1.9904,1.9447,1.7989,1.825,1.8424,1.849,1.8778,1.8938,1.8978,1.9462,2.0371,2.1919,2.4769,2.6,0.8897,0.8644,0.8324,0.7379,0.7139,0.7139,0.7139,0.7139,0.7228,0.7753,0.0,0.0,0.0,0.0,0.0,0.0,1.2913,1.4145,0.0,0.0,1.8025,2.1673,0.0,0.0,2.2104,2.2531,2.2734,2.2657,2.2843,2.3195,2.3656,2.3013,2.2677,2.2677,2.2677,2.2539,2.2264,2.1669,2.1451,2.1364,2.0797,2.0498,2.0566,2.0498,2.0498,2.0566,2.0566,2.0566,2.0576,2.0762,2.084,2.0908,2.1533,2.1973,2.2295,2.2646,2.2822,2.29,2.3076,2.3135,2.3135,2.3135,2.2765,2.2306,2.2306,2.2306,2.2306,2.2306,2.2677,2.3281,2.3896,2.4238,2.4375,2.4497,2.514,2.5605,2.5334,2.5843,2.6533,2.7031,2.707,2.7168,2.7676,2.7112,2.619,2.5312,2.4864,2.3878,2.1565,2.0779,2.0231,1.942,1.931,1.9398,1.9589,1.9506,1.9382,1.894,1.9073,1.8939,1.8303,1.8584,1.8744,1.8744,1.9032,1.9185,1.9185,1.9305,2.0148,2.1699,2.3813,2.5261,0.9279,0.0,0.0,0.0,0.0,0.0,0.7139,0.7139,0.7139,0.7139,0.7139,0.0,0.0,0.0,0.8844,1.0298,0.0,1.1242,0.0,1.4359,0.0,0.0,0.0,0.0,0.0,2.2752,2.3205,2.2835,2.3556,2.415,2.439,2.4133,2.3988,2.3988,2.3988,2.381,2.3526,2.2776,2.2339,2.2211,2.1143,2.0741,2.0933,2.0386,2.0277,2.0586,2.0485,2.0391,2.0391,2.0518,2.0566,2.0596,2.0918,2.1504,2.2187,2.2422,2.2559,2.2666,2.3018,2.3135,2.3135,2.3135,2.3135,2.3135,2.3135,2.3135,2.3135,2.3135,2.3135,2.3262,2.3818,2.4189,2.456,2.5117,2.5508,2.582,2.6143,2.6396,2.6748,2.7363,2.7422,2.7529,2.8037,2.7773,2.7122,2.58,2.5089,2.4,2.1556,2.0317,1.9352,1.8429,1.7914,1.7836,1.8143,1.8096,1.821,1.8584,1.8611,1.8644,1.8731,1.8931,1.9045,1.9045,1.9259,1.9366,1.9366,1.9366,2.0148,2.1699,2.3151,2.4599,0.0,0.0,0.0,0.7661,0.0,0.0,0.0,0.0,0.7139,0.7139,0.7139,0.7139,0.7139,0.7139,0.758,0.8811,0.922,0.0,0.0,1.3129,1.4727,1.8742,2.0438,0.0,0.0,2.2444,2.3577,2.4618,2.3874,2.378,2.4904,2.4063,2.3548,2.3548,2.3548,2.3537,2.3514,2.3441,2.3206,2.2666,2.2644,2.2329,2.1827,2.0977,2.0563,2.0605,2.0108,1.9932,1.9971,2.0391,2.0566,2.0566,2.0576,2.0869,2.1377,2.2207,2.1992,2.1475,2.2715,2.3135,2.3135,2.3135,2.3135,2.3135,2.3135,2.3135,2.3135,2.3135,2.3135,2.333,2.418,2.4404,2.4639,2.5508,2.5723,2.5742,2.5752,2.6416,2.7002,2.7031,2.7695,2.8135,2.7754,2.7324,2.6778,2.6136,2.5035,2.3909,2.2805,2.116,2.0113,2.0007,1.8756,1.815,1.845,1.8217,1.8297,1.8871,1.8911,1.9038,1.9325,1.9352,1.9352,1.9352,1.9366,1.9366,1.9366,1.9366,2.0148,2.1699,2.3151,2.4599,0.0,0.0,0.9833,0.7636,0.0,0.0,0.0,0.0,0.0,0.7139,0.7139,0.7139,0.7139,0.7139,0.7262,0.7814,0.7963,0.8623,0.0,1.1809,1.3686,1.5827,1.833,2.0112,0.0,0.0,2.2914,2.3721,2.4537,2.5096,2.5344,2.5445,2.5499,2.5499,2.5499,2.5499,2.5499,2.485,2.4399,2.4224,2.2888,2.2302,2.2377,2.1446,2.1363,2.1985,2.179,2.1597,2.1302,2.1456,2.1155,2.0566,2.0566,2.0654,2.0859,2.1445,2.1846,2.2178,2.2891,2.3135,2.3135,2.3135,2.3135,2.3135,2.3135,2.3135,2.3135,2.3135,2.335,2.3633,2.3926,2.4424,2.4922,2.5225,2.5518,2.5898,2.6465,2.6592,2.6768,2.7334,2.7226,2.707,2.7207,2.6641,2.6352,2.7046,2.6503,2.5769,2.4765,2.3617,2.2286,2.0627,2.0018,1.9516,1.8857,1.8865,1.9005,1.9205,1.9219,1.9265,1.9366,1.9366,1.9366,1.9366,1.9366,1.9366,1.9366,1.9366,2.0148,2.1578,2.2145,2.3151,1.0947,1.0393,0.0,0.8158,0.7404,0.0,0.7139,0.0,0.7139,0.0,0.7139,0.7139,0.7139,0.7139,0.7173,0.7275,0.7288,0.7822,0.0,1.1345,1.3057,1.4328,1.6861,1.8764,1.9548,2.1065,2.2136,2.2524,2.404,2.4952,0.0,2.5648,2.6094,2.6465,2.6533,2.6533,2.6533,2.5873,2.5329,2.4873,2.3609,2.2919,2.2794,2.187,2.1898,2.2685,2.2329,2.2204,2.2305,2.186,2.1449,2.1078,2.0712,2.0566,2.0625,2.1064,2.1777,2.2549,2.2822,2.3018,2.3135,2.3135,2.3135,2.3135,2.3135,2.3135,2.3203,2.3506,2.3691,2.3896,2.4365,2.4775,2.5107,2.5273,2.5527,2.5889,2.6445,2.6475,2.6443,2.6445,2.6132,2.5904,2.6018,2.5714,2.5944,2.7201,2.707,2.6628,2.6162,2.524,2.394,2.1836,2.1099,2.0332,1.9011,1.9199,1.9366,1.9366,1.9366,1.9366,1.9366,1.9366,1.9412,1.9519,1.9419,1.9419,1.9519,1.9419,1.9924,2.0809,2.1365,2.1813]},{"header":{"parameterUnit":"m.s-1","parameterCategory":1,"la1":30.6,"la2":29.2853,"lo1":-89.7004,"lo2":-87.6739,"dy":0.0162,"dx":0.0183,"nx":112,"ny":82,"refTime":"2023-06-27T12:00:00:Z","depth":0,"parameterNumber":3,"parameterNumberName":"V-component_of_WINDS"},"data":[0.0,0.0,0.0,0.0,0.0,0.0,0.0,0.0,0.0,0.0,0.0,0.0,0.0,0.0,0.0,0.0,0.0,0.0,0.0,0.0,0.0,0.0,0.0,0.0,0.0,0.0,0.0,0.0,0.0,0.0,0.0,0.0,0.0,0.0,0.0,0.0,0.0,0.0,0.0,0.0,0.0,0.0,0.0,0.0,0.0,0.0,0.0,0.0,0.0,0.0,0.0,0.0,0.0,0.0,0.0,0.0,0.0,0.0,0.0,0.0,0.0,0.0,0.0,0.0,0.0,0.0,0.0,0.0,0.0,0.0,0.0,0.0,0.0,0.0,0.0,0.0,0.0,0.0,0.0,0.0,0.0,0.0,0.0,0.0,0.0,0.0,0.0,0.0,0.0,0.0,-0.1517,0.159,-0.1683,-0.4512,-0.554,-1.0445,-1.4309,-1.6317,0.0,0.0,0.0,0.0,0.0,0.0,0.0,0.0,0.0,0.0,0.0,0.0,0.0,0.0,0.0,0.0,0.0,0.0,0.0,0.0,0.0,0.0,0.0,0.0,0.0,0.0,0.0,0.0,0.0,0.0,0.0,0.0,0.0,0.0,0.0,0.0,0.0,0.0,0.0,0.0,0.0,0.0,0.0,0.0,0.0,0.0,0.0,0.0,0.0,0.0,0.0,0.0,0.0,0.0,0.0,0.0,0.0,0.0,0.0,0.0,0.0,0.0,0.0,0.0,0.0,0.0,0.0,0.0,0.0,0.0,0.0,0.0,0.0,0.0,0.0,0.0,0.0,0.0,0.0,0.0,0.0,0.0,0.0,0.0,0.0,0.0,0.0,0.0,0.0,0.0,0.0,0.0,0.0,0.0,0.0,0.0,0.0,0.0,0.0,0.0,0.0,0.0,0.0,0.0,0.0222,0.3055,0.0519,-0.2211,-0.4277,-1.0212,-1.4603,-1.6462,0.0,0.0,0.0,0.0,0.0,0.0,0.0,0.0,0.0,0.0,0.0,0.0,0.0,0.0,0.0,0.0,0.0,0.0,0.0,0.0,0.0,0.0,0.0,0.0,0.0,0.0,0.0,0.0,0.0,0.0,0.0,0.0,0.0,0.0,0.0,0.0,0.0,0.0,0.0,0.0,0.0,0.0,0.0,0.0,0.0,0.0,0.0,0.0,0.0,0.0,0.0,0.0,0.0,0.0,0.0,0.0,0.0,0.0,0.0,0.0,0.0,0.0,0.0,0.0,0.0,0.0,0.0,0.0,0.0,0.0,0.0,0.0,0.0,0.0,0.0,0.0,0.0,0.0,0.0,0.0,0.0,0.0,0.0,0.0,0.0,0.0,0.0,0.0,0.0,0.0,0.0,0.0,0.0,0.0,0.0,0.0,0.0,0.0,0.0,0.0,0.0,0.0,0.0,0.2423,0.4928,0.49,0.2323,-0.0521,-0.3375,-0.8947,-1.3565,-1.6564,-1.7695,0.0,0.0,0.0,0.0,0.0,0.0,0.0,0.0,0.0,0.0,0.0,0.0,0.0,0.0,0.0,0.0,0.0,0.0,0.0,0.0,0.0,0.0,0.0,0.0,0.0,0.0,0.0,0.0,0.0,0.0,0.0,0.0,0.0,0.0,0.0,0.0,0.0,0.0,0.0,0.0,0.0,0.0,0.0,0.0,0.0,0.0,0.0,0.0,0.0,0.0,0.0,0.0,0.0,0.0,0.0,0.0,0.0,0.0,0.0,0.0,0.0,0.0,0.0,0.0,0.0,0.0,0.0,0.0,0.0,0.0,0.0,0.0,0.0,0.0,0.0,0.0,0.0,0.0,0.0,0.0,0.0,0.0,0.0,0.0,0.0,0.0,0.0,0.0,0.0,0.0,0.0,0.0,0.0,0.0,0.0,0.0,0.0,0.0,0.0,0.0,0.0,0.0,0.5813,0.7927,0.6164,0.3409,0.0453,-0.265,-0.7689,-1.2342,-1.6189,-1.7499,0.0,0.0,0.0,0.0,0.0,0.0,0.0,0.0,0.0,0.0,0.0,0.0,0.0,0.0,0.0,0.0,0.0,0.0,0.0,0.0,0.0,0.0,0.0,0.0,0.0,0.0,0.0,0.0,0.0,0.0,0.0,0.0,0.0,0.0,0.0,0.0,0.0,0.0,0.0,0.0,0.0,0.0,0.0,0.0,0.0,0.0,0.0,0.0,0.0,0.0,0.0,0.0,0.0,0.0,0.0,0.0,0.0,0.0,0.0,0.0,0.0,0.0,0.0,0.0,0.0,0.0,0.0,0.0,0.0,0.0,0.0,0.0,0.0,0.0,0.0,0.0,0.0,0.0,0.0,0.0,0.0,0.0,0.0,0.0,0.0,0.0,0.0,0.0,0.0,0.0,0.0,0.0,0.0,0.0,0.0,0.0,0.0,0.0,0.0,0.0,0.0,0.0,0.4343,0.5961,0.6147,0.3269,0.0351,-0.2126,-0.7135,-1.154,-1.4833,-1.703,0.0,0.0,0.0,0.0,0.0,0.0,0.0,0.0,0.0,0.0,0.0,0.0,0.0,0.0,0.0,0.0,0.0,0.0,0.0,0.0,0.0,0.0,0.0,0.0,0.0,0.0,0.0,0.0,0.0,0.0,0.0,0.0,0.0,0.0,0.0,0.0,0.0,0.0,0.0,0.0,0.0,0.0,0.0,0.0,0.0,0.0,0.0,0.0,0.0,0.0,0.0,0.0,0.0,0.0,0.0,0.0,0.0,0.0,0.0,0.0,0.0,0.0,0.0,0.0,0.0,0.0,0.0,0.0,0.0,0.0,0.0,0.0,0.0,0.0,0.0,0.0,0.0,0.0,0.0,0.0,0.0,0.0,0.0,0.0,0.0,0.0,0.0,0.0,0.0,0.0,0.0,0.0,0.0,0.0,0.0,0.0,0.0,0.0,0.0,0.0,0.0,0.0,0.3245,0.5285,0.6317,0.4126,0.1128,-0.2553,-0.6975,-1.0868,-1.404,0.0,0.0,0.0,0.0,0.0,0.0,0.0,0.0,0.0,0.0,0.0,0.0,0.0,0.0,0.0,0.0,0.0,0.0,0.0,0.0,0.0,0.0,0.0,0.0,0.0,0.0,0.0,0.0,0.0,0.0,0.0,0.0,0.0,0.0,0.0,0.0,0.0,0.0,0.0,0.0,0.0,0.0,0.0,0.0,0.0,0.0,0.0,0.0,0.0,0.0,0.0,0.0,0.0,0.0,0.0,0.0,0.0,0.0,0.0,0.0,0.0,0.0,0.0,0.0,0.0,0.0,0.0,0.0,0.0,0.0,0.0,0.0,0.0,0.0,0.0,0.0,0.0,0.0,0.0,0.0,0.0,0.0,0.0,0.0,0.0,0.0,0.0,0.0,0.0,0.0,0.0,0.0,0.0,0.0,0.0,0.0,0.0,0.0,0.0,0.0,0.0,0.0,-0.0995,0.1241,0.3088,0.4357,0.2756,0.0202,-0.3271,-0.693,-1.0208,-1.2986,0.0,0.0,0.0,0.0,0.0,0.0,0.0,0.0,0.0,0.0,0.0,0.0,0.0,0.0,0.0,0.0,0.0,0.0,0.0,0.0,0.0,0.0,0.0,0.0,0.0,0.0,0.0,0.0,0.0,0.0,0.0,0.0,0.0,0.0,0.0,0.0,0.0,0.0,0.0,0.0,0.0,0.0,0.0,0.0,0.0,0.0,0.0,0.0,0.0,0.0,0.0,0.0,0.0,0.0,0.0,0.0,0.0,0.0,0.0,0.0,0.0,0.0,0.0,0.0,0.0,0.0,0.0,0.0,0.0,0.0,0.0,0.0,0.0,0.0,0.0,0.0,0.0,0.0,0.0,0.0,0.0,0.0,0.0,0.0,0.0,0.0,0.0,0.0,0.0,0.0,0.0,0.0,0.0,0.0,0.0,0.0,0.0,0.0,0.0,0.0,0.0,0.0,-0.2393,-0.1835,-0.1163,-0.0166,-0.1381,-0.2865,-0.4321,-0.705,-0.9592,0.0,0.0,0.0,0.0,0.0,0.0,0.0,0.0,0.0,0.0,0.0,0.0,0.0,0.0,0.0,0.0,0.0,0.0,0.0,0.0,0.0,0.0,0.0,0.0,0.0,0.0,0.0,0.0,0.0,0.0,0.0,0.0,0.0,0.0,0.0,0.0,0.0,0.0,0.0,0.0,0.0,0.0,0.0,0.0,0.0,0.0,0.0,0.0,0.0,0.0,0.0,0.0,0.0,0.0,0.0,0.0,0.0,0.0,0.0,0.0,0.0,0.0,0.0,0.0,0.0,0.0,0.0,0.0,0.0,0.0,0.0,0.0,0.0,0.0,0.0,0.0,0.0,0.0,0.0,0.0,0.0,0.0,0.0,0.0,0.0,0.0,0.0,0.0,0.0,0.0,0.0,0.0,0.0,0.0,0.0,0.0,0.0,0.0,0.0,0.0,0.0,0.0,0.0,-0.3866,-0.4591,-0.4967,-0.4677,-0.5382,-0.6317,-0.7424,-0.8678,-1.0253,-1.2291,0.0,0.0,0.0,0.0,0.0,0.0,0.0,0.0,0.0,0.0,0.0,0.0,0.0,0.0,0.0,0.0,0.0,0.0,0.0,0.0,0.0,0.0,0.0,0.0,0.0,0.0,0.0,0.0,0.0,0.0,0.0,0.0,0.0,0.0,0.0,0.0,0.0,0.0,0.0,0.0,0.0,0.0,0.0,0.0,0.0,0.0,0.0,0.0,0.0,0.0,0.0,0.0,0.0,0.0,0.0,0.0,0.0,0.0,0.0,0.0,0.0,0.0,0.0,0.0,0.0,0.0,0.0,0.0,0.0,0.0,0.0,0.0,0.0,0.0,0.0,0.0,0.0,0.0,0.0,0.0,0.0,0.0,0.0,0.0,0.0,0.0,0.0,0.0,0.0,0.0,0.0,0.0,0.0,0.0,0.0,0.0,0.0,0.0,0.0,0.0,0.0,0.0,-0.5148,-0.5986,-0.6698,-0.6954,-0.7263,-0.7955,-0.9049,-0.9974,-1.1236,-1.2932,0.0,0.0,0.0,0.0,0.0,0.0,0.0,0.0,0.0,0.0,0.0,0.0,0.0,0.0,0.0,0.0,0.0,0.0,0.0,0.0,0.0,0.0,0.0,0.0,0.0,0.0,0.0,0.0,0.0,0.0,0.0,0.0,0.0,0.0,0.0,0.0,0.0,0.0,0.0,0.0,0.0,0.0,0.0,0.0,0.0,0.0,0.0,0.0,0.0,0.0,0.0,0.0,0.0,0.0,0.0,0.0,0.0,0.0,0.0,0.0,0.0,0.0,0.0,0.0,0.0,0.0,0.0,0.0,0.0,0.0,0.0,0.0,0.0,0.0,0.0,0.0,0.0,0.0,0.0,0.0,0.0,0.0,0.0,0.0,0.0,0.0,0.0,0.0,0.0,0.0,0.0,0.0,0.0,0.0,0.0,0.0,0.0,0.0,0.0,0.0,0.0,0.0,-0.6579,-0.6657,-0.7154,-0.7811,-0.7964,-0.8534,-0.987,-1.1187,-1.2474,-1.3708,0.0,0.0,0.0,0.0,0.0,0.0,0.0,0.0,0.0,0.0,0.0,0.0,0.0,0.0,0.0,0.0,0.0,0.0,0.0,0.0,0.0,0.0,0.0,0.0,0.0,0.0,0.0,0.0,0.0,0.0,0.0,0.0,0.0,0.0,0.0,0.0,0.0,0.0,0.0,0.0,0.0,0.0,0.0,0.0,0.0,0.0,0.0,0.0,0.0,0.0,0.0,0.0,0.0,0.0,0.0,0.0,0.0,0.0,0.0,0.0,-2.7229,0.0,0.0,0.0,0.0,0.0,0.0,0.0,0.0,0.0,0.0,0.0,0.0,0.0,0.0,0.0,0.0,0.0,0.0,0.0,0.0,0.0,0.0,0.0,0.0,0.0,0.0,0.0,0.0,0.0,0.0,0.0,0.0,0.0,0.0,0.0,0.0,0.0,0.0,0.0,0.0,0.0,-0.9962,-0.9383,-0.9306,-0.9984,-1.0513,-1.1163,-1.1972,-1.3185,-1.4202,-1.4966,-1.6715,0.0,0.0,0.0,0.0,0.0,0.0,0.0,0.0,0.0,0.0,0.0,0.0,0.0,0.0,0.0,0.0,0.0,0.0,0.0,0.0,0.0,0.0,0.0,0.0,0.0,0.0,0.0,0.0,0.0,0.0,0.0,0.0,0.0,0.0,0.0,0.0,0.0,0.0,0.0,0.0,0.0,0.0,0.0,0.0,0.0,0.0,0.0,0.0,0.0,0.0,0.0,0.0,0.0,0.0,0.0,0.0,0.0,0.0,0.0,0.0,-2.8106,0.0,0.0,0.0,0.0,0.0,0.0,0.0,0.0,0.0,0.0,0.0,0.0,0.0,0.0,0.0,0.0,0.0,0.0,0.0,0.0,0.0,0.0,0.0,0.0,0.0,0.0,0.0,0.0,0.0,0.0,0.0,0.0,0.0,0.0,0.0,0.0,0.0,0.0,0.0,0.0,-1.18,-1.1571,-1.1683,-1.2078,-1.2704,-1.332,-1.3982,-1.5145,-1.6106,-1.6887,-1.8464,0.0,0.0,0.0,0.0,0.0,0.0,0.0,0.0,0.0,0.0,0.0,0.0,0.0,0.0,0.0,0.0,0.0,0.0,0.0,0.0,0.0,0.0,0.0,0.0,0.0,0.0,0.0,0.0,0.0,0.0,0.0,0.0,0.0,0.0,0.0,0.0,0.0,0.0,0.0,0.0,0.0,0.0,0.0,0.0,0.0,0.0,0.0,0.0,0.0,0.0,0.0,0.0,0.0,-3.2044,-3.2479,-3.3143,-3.3149,-3.2771,-3.209,-3.1145,-2.9986,-2.8769,-2.9304,0.0,0.0,0.0,0.0,0.0,0.0,0.0,0.0,0.0,0.0,0.0,0.0,0.0,0.0,0.0,0.0,0.0,0.0,0.0,0.0,0.0,0.0,0.0,0.0,-2.4077,-2.3977,-2.2252,0.0,0.0,0.0,0.0,0.0,0.0,0.0,0.0,0.0,0.0,0.0,-1.3813,-1.3971,-1.435,-1.453,-1.4942,-1.5468,-1.6113,-1.714,-1.8057,-1.8833,-2.0481,-2.1823,0.0,0.0,0.0,0.0,0.0,0.0,0.0,0.0,0.0,0.0,0.0,0.0,0.0,0.0,0.0,0.0,0.0,0.0,0.0,0.0,0.0,0.0,0.0,0.0,0.0,0.0,0.0,0.0,0.0,0.0,0.0,0.0,-2.8384,-2.9233,0.0,0.0,0.0,0.0,0.0,0.0,0.0,0.0,0.0,0.0,0.0,0.0,0.0,-3.0461,-3.11,-3.1373,-3.1958,-3.2814,-3.2957,-3.3119,-3.3281,-3.3331,-3.3265,-3.3109,-3.2963,0.0,-3.1642,-3.1626,0.0,0.0,0.0,0.0,0.0,0.0,0.0,0.0,0.0,0.0,0.0,0.0,0.0,0.0,0.0,0.0,0.0,0.0,0.0,0.0,0.0,0.0,-2.5486,-2.4918,-2.5535,-2.6191,0.0,-2.4491,-2.3238,-2.3223,-2.2963,0.0,0.0,0.0,0.0,0.0,0.0,0.0,-1.8106,-1.7611,-1.7515,-1.7841,-1.7921,-1.8229,-1.8819,-1.9456,-1.9867,-1.997,-2.1872,-2.3338,-2.4086,-2.6222,0.0,0.0,0.0,0.0,0.0,0.0,0.0,0.0,0.0,0.0,0.0,0.0,0.0,0.0,0.0,0.0,0.0,0.0,0.0,0.0,0.0,0.0,0.0,0.0,0.0,0.0,0.0,0.0,0.0,-2.9265,-2.996,-3.0862,-3.145,-3.1637,0.0,0.0,0.0,0.0,0.0,0.0,0.0,0.0,0.0,-3.1432,-3.1655,-3.1953,-3.2355,-3.2486,-3.299,-3.3837,-3.3932,-3.4224,-3.4649,-3.4757,-3.4786,-3.4762,-3.4768,-3.4603,-3.4245,-3.3172,-3.2955,-3.3261,0.0,0.0,0.0,0.0,-3.245,-3.2325,-3.1903,-3.1875,-3.2041,-3.2307,0.0,0.0,0.0,0.0,0.0,0.0,0.0,0.0,0.0,0.0,-2.7555,-2.6903,-2.7107,-2.7446,-2.7485,-2.6757,-2.6326,0.0,-2.7055,-2.7225,-2.8246,0.0,0.0,0.0,0.0,-2.3261,-2.1391,-2.0862,-2.0384,-1.9733,-1.9858,-2.0064,-2.032,-2.0827,-2.1456,-2.2185,-2.323,-2.4392,-2.5515,-2.7235,-2.8239,0.0,0.0,0.0,0.0,0.0,0.0,0.0,0.0,0.0,0.0,0.0,0.0,0.0,0.0,0.0,0.0,0.0,0.0,0.0,0.0,0.0,0.0,0.0,0.0,0.0,0.0,0.0,0.0,-3.0493,-3.1249,-3.2107,-3.2882,-3.3151,0.0,0.0,0.0,0.0,0.0,0.0,-3.3218,-3.3554,-3.3652,-3.3451,-3.338,-3.3372,-3.3462,-3.3462,-3.3776,-3.4422,-3.473,-3.5168,-3.5717,-3.5861,-3.5924,-3.593,-3.593,-3.5956,-3.589,-3.432,-3.3799,-3.3965,-3.375,-3.376,-3.3886,-3.3672,-3.3764,-3.3962,-3.3729,-3.3671,-3.3728,-3.3971,-3.3874,-3.371,-3.3984,0.0,0.0,0.0,0.0,-3.1092,-3.0051,-2.9847,-2.97,-2.8946,-2.8769,-2.8777,-2.8829,-2.8989,-2.9253,0.0,-2.9881,-3.0309,-3.1142,0.0,0.0,0.0,0.0,-2.624,-2.4313,-2.3689,-2.2987,-2.1858,-2.1778,-2.1786,-2.1786,-2.216,-2.2841,-2.3962,-2.4611,-2.5506,-2.6749,-2.8143,-2.8912,-2.8961,0.0,0.0,0.0,0.0,0.0,0.0,0.0,0.0,0.0,0.0,0.0,0.0,0.0,0.0,0.0,0.0,0.0,0.0,0.0,0.0,0.0,0.0,0.0,0.0,0.0,0.0,0.0,0.0,0.0,-3.2233,-3.2778,0.0,0.0,0.0,0.0,-3.3868,-3.4691,-3.5242,-3.5428,-3.6176,-3.6246,-3.5476,-3.4661,-3.4218,-3.4141,-3.4141,-3.416,-3.4218,-3.5199,-3.5651,-3.5716,-3.5903,-3.5982,-3.6001,-3.6001,-3.6006,-3.5937,-3.5018,-3.5117,-3.5781,-3.4941,-3.5137,-3.5761,-3.4921,-3.5155,-3.5741,-3.4842,-3.454,-3.4677,-3.5512,-3.5269,-3.4922,-3.6504,-3.5839,0.0,0.0,-3.4399,-3.3997,-3.2376,-3.1838,-3.1557,-3.0758,-3.0565,-3.0565,-3.0565,-3.1172,-3.1059,0.0,-2.906,-2.9628,-2.9628,0.0,-3.0257,-2.922,-2.8954,-2.8347,-2.6883,-2.5933,-2.5227,-2.4905,-2.4149,-2.3652,-2.3652,-2.369,-2.3974,-2.4608,-2.5943,-2.6971,-2.7619,-2.911,-2.9927,-2.9927,-3.0158,0.0,0.0,0.0,0.0,0.0,0.0,0.0,0.0,0.0,0.0,0.0,0.0,0.0,0.0,0.0,0.0,0.0,0.0,0.0,0.0,0.0,0.0,0.0,0.0,0.0,0.0,0.0,0.0,-3.4889,-3.5862,0.0,-3.6375,-3.6345,-3.645,-3.6745,-3.7494,-3.7712,-3.723,-3.802,-3.8061,-3.7166,-3.693,-3.6526,-3.5935,-3.5982,-3.5713,-3.5161,-3.5622,-3.5824,-3.5839,-3.5942,-3.6007,-3.6002,-3.6002,-3.5976,-3.59,-3.5609,-3.568,-3.5976,-3.5664,-3.6074,-3.6797,-3.6484,-3.6562,-3.6797,-3.6445,-3.6337,-3.6395,-3.6707,-3.6235,-3.5644,-3.625,-3.5625,-3.4706,-3.4679,-3.4237,-3.3631,-3.3028,-3.2791,-3.2668,-3.2384,-3.2314,-3.2313,-3.2353,-3.2598,-3.256,-3.1738,-3.1797,-3.2343,-3.3494,-3.2988,-3.2304,-3.1923,-3.1295,-3.03,-2.8701,-2.7989,-2.7161,-2.5993,-2.5477,-2.5227,-2.5227,-2.5227,-2.5686,-2.6814,-2.7512,-2.8217,-2.8952,-2.9525,-2.9902,-3.0125,-2.9636,-2.9926,0.0,0.0,0.0,0.0,0.0,0.0,0.0,0.0,0.0,0.0,0.0,0.0,0.0,0.0,0.0,0.0,0.0,0.0,0.0,0.0,0.0,0.0,0.0,0.0,0.0,0.0,-3.648,-3.7348,-3.8238,-3.8677,-3.8434,-3.8627,-3.8897,-3.9193,-3.9941,-4.0115,-3.9488,-4.0277,-4.0331,-3.9407,-3.9196,-3.883,-3.8259,-3.7704,-3.7154,-3.6582,-3.6685,-3.6747,-3.6754,-3.6844,-3.6845,-3.6815,-3.6815,-3.6596,-3.63,-3.6581,-3.6559,-3.6338,-3.6336,-3.6875,-3.7636,-3.7636,-3.7812,-3.8029,-3.7739,-3.7641,-3.7582,-3.729,-3.6636,-3.6016,-3.6328,-3.5801,-3.5137,-3.5137,-3.4687,-3.4219,-3.4219,-3.4187,-3.4133,-3.4133,-3.3918,-3.3707,-3.3737,-3.3737,-3.3746,-3.3765,-3.3764,-3.4062,-3.4978,-3.4414,-3.373,-3.3437,-3.2541,-3.1499,-3.0386,-2.9461,-2.8492,-2.7369,-2.6886,-2.6534,-2.6236,-2.6477,-2.6986,-2.784,-2.8392,-2.8988,-2.9676,-3.0065,-3.0305,-3.0433,-2.9901,-3.0346,-3.1781,0.0,0.0,0.0,0.0,0.0,0.0,0.0,0.0,0.0,0.0,0.0,0.0,0.0,0.0,0.0,0.0,0.0,0.0,0.0,0.0,0.0,0.0,0.0,-3.6972,-3.821,-3.9143,-3.9369,-3.9661,-3.9529,-3.8826,-3.9512,-4.0305,-4.1031,-4.1894,-4.2306,-4.2162,-4.2977,-4.3046,-4.2183,-4.1401,-4.0965,-4.0941,-3.9259,-3.8416,-3.8397,-3.8446,-3.8498,-3.8479,-3.86,-3.8558,-3.8424,-3.8424,-3.7861,-3.7051,-3.7945,-3.7796,-3.7026,-3.7036,-3.7572,-3.8338,-3.8338,-3.8863,-3.9482,-3.8622,-3.8305,-3.813,-3.7306,-3.6516,-3.6054,-3.6894,-3.6601,-3.5996,-3.5996,-3.5996,-3.5996,-3.5996,-3.5996,-3.5996,-3.5996,-3.5351,-3.4705,-3.465,-3.4634,-3.461,-3.4556,-3.4632,-3.4472,-3.3652,-3.4219,-3.4472,-3.3594,-3.2596,0.0,-3.1904,-3.0279,-2.914,-2.914,-2.8429,-2.764,-2.6794,-2.7486,-2.7862,-2.7578,-2.8548,-2.9308,-2.9713,-3.0712,-3.113,-3.0903,-3.117,-3.1721,-3.2553,0.0,0.0,0.0,0.0,0.0,0.0,0.0,0.0,0.0,0.0,0.0,0.0,0.0,0.0,0.0,0.0,0.0,0.0,0.0,0.0,0.0,0.0,-3.8841,-3.851,-3.9572,-4.0653,-4.1385,-4.215,-4.2519,-4.2324,-4.2461,-4.2672,-4.2869,-4.3607,-4.3743,-4.3082,-4.3878,-4.3947,-4.3083,-4.2911,-4.2541,-4.1911,-4.1499,-4.0986,-4.04,-4.0424,-4.039,-4.0265,-3.9674,-3.9323,-3.918,-3.8579,-3.7791,-3.6986,-3.7805,-3.7973,-3.7738,-3.7885,-3.8472,-3.9251,-3.9251,-3.9386,-3.9573,-3.9322,-3.8421,-3.7421,-3.782,-3.6945,-3.5795,-3.6027,-3.5963,-3.5788,-3.5788,-3.5788,-3.5788,-3.5788,-3.5788,-3.5788,-3.5788,-3.5593,-3.5416,-3.541,-3.54,-3.5386,-3.5372,-3.5394,-3.5562,-3.5943,-3.6211,-3.606,-3.5203,-3.3755,0.0,-3.1903,-3.0775,-3.0044,-3.0044,-2.9852,-2.9621,-2.939,-2.9583,-2.9608,-2.9327,-2.9598,-3.0007,-3.0544,-3.0152,-3.015,-3.0671,-3.1332,-3.226,0.0,0.0,0.0,0.0,0.0,0.0,0.0,0.0,0.0,0.0,0.0,0.0,0.0,0.0,0.0,0.0,0.0,0.0,0.0,0.0,0.0,0.0,-4.0289,-4.0864,-4.1338,-4.2024,-4.2739,-4.3366,-4.3899,-4.4101,-4.373,-4.4004,-4.4199,-4.4199,-4.4923,-4.4992,-4.4109,-4.4904,-4.4963,-4.409,-4.4148,-4.3946,-4.3441,-4.3102,-4.27,-4.2213,-4.2213,-4.2131,-4.1981,-4.1112,-4.0651,-4.0502,-3.9678,-3.8781,-3.7969,-3.8777,-3.8873,0.0,0.0,0.0,0.0,0.0,-3.9973,-3.9915,-3.9588,-3.8796,-3.7998,-3.8127,-3.7516,-3.6702,-3.6723,-3.6745,-3.6784,-3.6784,-3.6784,-3.6706,-3.6348,-3.6523,-3.661,-3.5873,-3.598,-3.6135,-3.5737,-3.5666,-3.5757,-3.6065,-3.6122,0.0,-3.7274,-3.688,-3.628,-3.5776,-3.4218,-3.2923,-3.241,-3.1218,-3.0398,-3.0398,-3.0398,-3.0256,-2.989,-3.0198,0.0,0.0,0.0,-3.0907,-3.1745,-3.1098,0.0,0.0,0.0,-3.2866,-3.3979,0.0,0.0,0.0,-3.3658,-3.3662,0.0,0.0,0.0,0.0,0.0,0.0,0.0,0.0,0.0,0.0,0.0,0.0,0.0,0.0,0.0,0.0,-4.2183,-4.291,-4.4872,-4.5137,-4.515,-4.5155,-4.5134,-4.4815,-4.4054,-4.4664,-4.5095,-4.5095,-4.5817,-4.5915,-4.5134,0.0,0.0,0.0,0.0,-4.5095,-4.5095,-4.4333,-4.391,-4.3869,-4.3857,-4.3801,-4.3637,-4.2763,-4.228,-4.2085,-4.1216,-4.0254,-3.9354,-4.0162,-4.0065,-3.9431,-3.9431,-3.9873,-4.0489,-4.0489,-4.0489,-4.0392,-3.9681,0.0,0.0,-3.8392,-3.8118,-3.808,-3.808,-3.8176,-3.8272,-3.8272,-3.8272,-3.8099,-3.7305,-3.7676,-3.7873,-3.6334,-3.6463,-3.6747,-3.5892,-3.5718,-3.5892,-3.6469,-3.6642,-3.693,-3.7603,-3.6671,-3.5797,-3.5801,-3.4347,-3.3185,-3.3089,-3.1679,-3.0667,-3.0667,0.0,0.0,-2.9694,-3.0336,-3.0727,-3.0586,-3.1172,-3.1883,-3.279,-3.2668,-3.2944,-3.3642,-3.3198,-3.3366,-3.42,-3.3999,-3.4308,-3.5086,-3.4654,-3.4502,0.0,0.0,0.0,0.0,0.0,0.0,0.0,0.0,0.0,0.0,0.0,0.0,0.0,0.0,0.0,-4.5701,-4.6179,-4.66,-4.7771,-4.7935,-4.7447,-4.6207,-4.5955,-4.5819,-4.5664,-4.5697,-4.5728,-4.5728,-4.5884,-4.5903,-4.5728,-4.5884,-4.5903,-4.5728,-4.5728,-4.5728,-4.5728,-4.5572,-4.5468,-4.5453,0.0,0.0,-4.5298,-4.4424,-4.3621,-4.2835,-4.197,-4.0719,-3.9354,-4.0162,-4.0412,-4.0258,-4.0258,-4.0354,-4.0489,-4.0489,-4.0489,-4.0469,-4.0315,-3.9835,-3.9258,-3.9104,-3.8584,-3.8007,-3.8007,-3.8046,0.0,-3.8065,-3.8065,-3.8027,-3.7834,-3.793,-3.7969,-3.7642,-3.7142,-3.6699,-3.6526,-3.6488,-3.6353,-3.5834,-3.6257,-3.6546,-3.6084,-3.6262,-3.6512,-3.6507,-3.5064,-3.3731,-3.3026,-3.2622,-3.2429,-3.2429,-3.3045,-3.3319,-3.2917,-3.3035,-3.2746,-3.1841,-3.233,-3.2389,-3.1722,-3.2272,-3.2687,-3.2834,-3.2739,-3.3192,-3.42,-3.4423,-3.4718,-3.5105,-3.5268,-3.5392,0.0,0.0,0.0,0.0,0.0,0.0,0.0,0.0,0.0,0.0,0.0,-4.4916,0.0,0.0,-4.6983,-4.8884,-4.9262,-4.9481,-4.9926,-5.0023,-4.9247,-4.7106,-4.6795,-4.6544,-4.6046,-4.595,-4.5893,-4.5893,-4.5893,-4.5893,-4.5893,-4.5893,-4.5893,-4.5893,-4.5893,-4.5893,-4.5893,-4.5893,-4.5874,-4.5854,-4.5857,-4.5796,-4.568,-4.4795,-4.4141,-4.3643,-4.2816,-4.1989,-4.1219,-4.1643,-4.1797,-4.1797,-4.1797,-4.1258,-4.0489,-4.0489,-4.0489,-4.0489,-4.0489,-4.0156,-3.971,-3.971,-3.9278,-3.888,-3.928,-3.9128,-3.8976,-3.9776,-3.9414,-3.8785,-3.8747,-3.8785,-3.8613,-3.7915,-3.774,-3.7677,-3.7401,-3.7353,-3.7353,-3.7392,-3.7373,-3.7353,-3.7392,-3.7373,-3.7065,-3.6238,-3.5026,-3.4045,-3.3603,-3.316,-3.2891,-3.2891,-3.3295,-3.344,-3.3176,-3.3424,-3.3299,-3.2585,-3.322,-3.329,-3.264,-3.2999,-3.3201,-3.3201,-3.3201,-3.3464,-3.4012,-3.4464,-3.4754,-3.4908,-3.5343,-3.5598,0.0,0.0,0.0,0.0,0.0,0.0,0.0,0.0,-4.7088,-4.8152,-4.8939,-4.9719,-5.0656,-5.0694,-5.086,-5.1764,-5.2005,-5.2012,-5.1848,-5.202,-5.1213,-4.8659,-4.8058,-4.7486,-4.6469,-4.6354,-4.6257,-4.6123,-4.6238,-4.6257,-4.6103,-4.6238,-4.6334,-4.6334,-4.6334,-4.6334,-4.6334,-4.618,-4.6084,-4.6026,-4.5853,-4.5699,-4.5566,-4.4874,-4.4451,-4.4259,-4.3361,-4.2979,-4.2998,-4.3098,-4.3042,-4.2908,-4.308,-4.2179,-4.0799,-4.0938,-4.0973,-4.0886,-4.0886,-4.0746,-4.0557,-4.0478,-4.029,-4.016,-4.0669,-4.0349,-4.0085,-4.1399,-4.0839,-3.984,-3.9967,-3.9915,-3.9551,-3.8401,-3.8441,-3.8575,-3.8142,-3.8057,-3.823,-3.8767,-3.8421,-3.823,-3.8786,-3.8287,-3.7344,-3.5935,-3.5141,-3.4564,-3.4237,-3.3692,-3.3262,-3.3089,-3.3182,-3.3138,-3.2855,-3.3221,-3.3403,-3.317,-3.3746,-3.4018,-3.3807,-3.3807,-3.3807,-3.3807,-3.3807,-3.3807,-3.3807,-3.433,-3.4728,-3.4941,-3.5436,-3.5638,-4.3662,-4.3222,-4.4124,-4.7778,-4.7144,-4.72,0.0,0.0,-5.1945,-5.3637,-5.4066,-5.42,-5.4465,-5.3868,-5.367,-5.4674,-5.4839,-5.4591,-5.382,-5.437,-5.4084,-5.1997,-5.0442,-4.9143,-4.8144,-4.7932,-4.7567,-4.6836,-4.7451,-4.7548,-4.6836,-4.7471,-4.7855,-4.7855,-4.7855,-4.7855,-4.7855,-4.7144,-4.6778,-4.6778,-4.599,-4.5605,-4.5586,-4.549,-4.5028,-4.4241,-4.3063,-4.2582,-4.26,-4.3076,-4.2824,-4.2195,-4.2975,-4.2691,-4.1907,-4.2583,-4.2582,-4.2276,-4.2276,-4.2276,-4.2174,-4.1884,-4.1763,-4.1606,-4.0985,-4.074,-4.0683,-4.0871,-4.0796,-4.0815,-4.155,-4.1192,-4.0632,-4.0467,-3.9377,-3.8339,-3.8288,-3.8269,-3.808,-3.7473,-3.7853,-3.808,-3.7454,-3.7265,-3.7051,-3.6642,-3.6488,-3.5872,-3.4391,-3.458,-3.4566,-3.3783,-3.4186,-3.4372,-3.4035,-3.3858,-3.3721,-3.3713,-3.3787,-3.3842,-3.3807,-3.3807,-3.3807,-3.3807,-3.3807,-3.3807,-3.3807,-3.4117,-3.478,-3.5773,-3.6063,-3.5997,-4.5166,-4.6068,-4.7545,-4.9125,-5.0163,-5.1624,-5.4622,-5.4861,-5.4827,-5.608,-5.6815,-5.7246,-5.7297,-5.7108,-5.7088,0.0,-5.7578,-5.7436,-5.7089,-5.7347,-5.6822,-5.4811,-5.3959,-5.2319,-4.924,-4.8894,-4.8509,-4.7663,-4.7682,-4.7597,-4.7272,-4.7385,-4.7462,-4.7462,-4.7462,-4.7462,-4.7462,-4.6663,-4.6263,-4.6244,-4.543,-4.5011,-4.5011,-4.5011,-4.4821,-4.4459,-4.3942,-4.372,-4.3739,-4.3951,-4.3844,-4.3535,-4.3919,-4.3694,-4.31,-4.2621,-4.2351,-4.2219,-4.2219,-4.2119,-4.1964,-4.1825,-4.1651,-4.1486,-4.1616,-4.1338,-4.1059,-4.1523,-4.1319,-4.1041,-4.1375,-4.1208,-4.0894,-4.0576,-3.9975,-3.9389,-3.9138,-3.9048,-3.8954,-3.8614,-3.8822,-3.8935,-3.8614,-3.8558,-3.8323,-3.7718,-3.6843,-3.5816,-3.4636,-3.4717,-3.4718,-3.4358,-3.4367,-3.4357,-3.42,-3.3961,-3.3807,-3.3807,-3.3807,-3.3807,-3.3807,-3.3807,-3.4027,-3.4504,-3.4504,-3.4761,-3.5257,-3.5532,-3.5988,-3.6602,-3.6882,-3.6999,-4.632,-4.7838,-4.939,-5.0077,-5.2311,-5.4584,-5.5458,-5.6424,-5.7373,-5.8284,-5.9045,-5.9553,-5.9566,-5.9475,-5.9416,-5.9416,-5.9416,-5.9338,-5.9101,-5.9065,-5.8421,-5.668,-5.6057,-5.4474,-5.1125,-5.0587,-4.999,-4.8894,-4.8649,-4.8353,-4.7895,-4.7761,-4.7702,-4.7702,-4.7702,-4.7702,-4.7702,-4.6873,-4.6345,-4.6118,-4.5334,-4.4806,-4.458,-4.458,-4.458,-4.458,-4.4474,-4.4428,-4.4419,-4.4337,-4.4299,-4.4299,-4.4299,-4.4106,-4.3732,-4.2791,-4.2462,-4.2543,-4.2543,-4.2426,-4.2255,-4.2154,-4.1944,-4.1827,-4.2194,-4.1901,-4.1515,-4.1882,-4.1552,-4.1167,-4.1387,-4.1277,-4.1066,-4.0885,-4.0696,-4.042,-4.008,-3.9858,-3.9764,-3.9963,-3.9839,-3.9689,-3.9689,-3.9689,-3.9333,-3.824,-3.7098,-3.6025,-3.5145,-3.4764,-3.4529,-3.4461,-3.4218,-3.4074,-3.4074,-3.3928,-3.3807,-3.3807,-3.3807,-3.3807,-3.3807,-3.4009,-3.4412,-3.499,-3.5229,-3.5679,-3.6303,-3.6481,-3.6851,-3.7318,-3.7618,-3.804,-4.6552,-4.7042,-4.7853,-5.1021,-5.2836,-5.4518,-5.7209,-5.8781,-5.9961,-6.0981,-6.1193,-6.1233,-6.1221,-6.053,-5.9986,-5.9986,-5.9986,-5.9674,-5.8826,-5.8712,-5.8325,-5.7289,-5.5724,-5.4647,0.0,-5.3587,-5.2395,-5.0741,-5.0967,-5.0474,-4.8848,-4.9189,-4.9428,-4.9428,-4.9428,-4.9428,-4.9428,-4.8551,-4.7721,-4.6957,-4.6137,-4.5345,-4.458,-4.458,-4.458,-4.458,-4.4175,-4.4016,-4.3986,-4.3679,-4.3548,-4.3548,-4.3548,-4.3513,-4.3513,-4.3458,-4.3652,-4.3942,-4.3942,-4.3923,-4.3881,-4.3557,-4.3458,-4.3277,-4.2525,-4.2286,-4.2121,-4.1368,-4.113,-4.1295,-4.2066,-4.168,-4.1295,-4.2047,-4.1625,-4.1056,-4.1071,-4.0446,-4.0115,-4.0905,-4.0409,-3.9877,-3.9877,-3.9877,-3.9344,-3.7776,-3.7482,-3.7063,-3.6004,-3.4888,-3.4117,-3.3868,-3.3815,-3.3815,-3.3815,-3.3788,-3.3807,-3.3807,-3.3807,-3.3807,-3.3807,-3.4559,-3.4972,-3.499,-3.5844,-3.6266,-3.6303,-3.6332,-3.686,-3.7877,-3.8221,-3.8963,-4.6253,-4.7841,-4.9733,-5.2165,-5.3917,-5.5583,-5.762,-5.8441,-5.9082,-6.0245,-5.9676,-5.9081,-5.9379,-5.9283,-5.9128,-5.9128,-6.0094,-6.0558,-5.9688,-5.9572,-5.8974,-5.7403,-5.6708,0.0,0.0,0.0,0.0,-5.2035,-5.1844,-5.1385,-5.0504,-5.0405,-5.012,-4.9564,-4.9564,-4.9286,-4.8692,-4.7877,-4.7061,-4.6227,-4.4893,-4.4146,-4.3868,-4.3868,-4.3868,-4.3868,-4.3726,-4.3679,-4.3679,-4.3548,-4.3497,-4.3497,-4.3497,-4.3497,-4.3497,-4.3497,-4.3563,-4.3679,-4.3679,-4.3679,-4.3646,-4.3548,-4.3497,-4.3442,-4.3167,-4.3094,-4.2928,-4.2121,-4.2286,-4.2635,-4.2378,-4.2506,-4.2635,-4.2359,-4.2084,-4.1754,-4.124,-4.0891,-4.0781,-4.1056,-4.0891,-4.0524,-3.9992,-3.99,-3.935,-3.7716,-3.6541,-3.5708,-3.5358,-3.4504,-3.3902,-3.3815,-3.3807,-3.3807,-3.3807,-3.3807,-3.3807,-3.3807,-3.3807,-3.4045,-3.4578,-3.4844,-3.5532,-3.6633,-3.6945,-3.7349,-3.79,-3.79,-3.8161,-3.8689,-3.8801,-3.9175,-4.6539,-4.8328,-5.0139,-5.2246,-5.4153,-5.5849,-5.7221,-5.7853,-5.8434,-5.9254,-5.8186,-5.7086,-5.7092,-5.6933,-5.6747,-5.6578,-5.7757,-5.8726,-5.8899,-5.8399,-5.7918,-5.7629,-5.6783,-5.609,0.0,0.0,0.0,-5.3048,-5.2519,-5.1944,-5.132,-5.0709,-5.0123,-4.9609,-4.9297,-4.8857,-4.8324,-4.781,-4.6985,-4.5883,-4.4268,-4.3497,-4.3497,-4.3497,-4.3497,-4.3497,-4.3497,-4.3497,-4.3497,-4.3497,-4.3497,-4.3497,-4.3497,-4.3497,-4.3497,-4.3497,-4.3497,-4.3497,-4.3497,-4.3497,-4.3497,-4.3497,-4.3497,-4.3497,-4.3497,-4.3497,-4.3314,-4.2525,-4.2671,-4.2947,-4.2433,-4.2671,-4.3002,-4.2782,-4.2727,-4.2598,-4.2066,-4.1735,-4.1625,-4.1901,-4.1497,-4.0946,-4.0414,-3.9845,-3.9111,-3.8065,-3.6762,-3.5697,-3.5064,-3.4302,-3.3807,-3.3807,-3.4064,-3.4229,-3.4229,-3.4504,-3.4688,-3.4688,-3.4688,-3.4926,-3.5459,-3.5752,-3.6395,-3.7489,-3.7771,-3.8175,-3.8707,-3.8707,-3.8773,-3.8961,-3.9063,-3.9231,-4.7241,-4.8379,-4.9079,-5.1328,-5.341,-5.5099,-5.5936,-5.7098,-5.7997,-5.7993,-5.6706,-5.5322,0.0,0.0,-5.3196,-5.2781,-5.3512,-5.4772,-5.6733,-5.566,-5.5544,0.0,0.0,0.0,0.0,0.0,0.0,-5.3846,0.0,-5.2305,-5.1433,-5.0377,-4.9738,-4.9646,-4.8857,-4.8398,-4.8306,-4.8233,-4.7407,-4.5883,-4.4268,-4.3497,-4.3497,-4.3497,-4.3497,-4.3497,-4.3497,-4.3497,-4.3497,-4.3497,-4.3497,-4.3497,-4.3497,-4.3497,-4.3497,-4.3497,-4.3497,-4.3497,-4.3497,-4.3497,-4.3497,-4.3497,-4.3497,-4.3497,-4.3497,-4.3497,-4.3332,-4.258,-4.2359,-4.2359,-4.2359,-4.2359,-4.2543,-4.3314,-4.3497,-4.3497,-4.3497,-4.2892,-4.2598,-4.3332,-4.2194,-4.1111,-4.1111,-3.9772,-3.8707,-3.8707,-3.801,-3.6927,-3.532,-3.4431,-3.3935,-3.3935,-3.4614,-3.5064,-3.5064,-3.5826,-3.6303,-3.6303,-3.6303,-3.6321,-3.6358,-3.7074,-3.7514,-3.7551,-3.8303,-3.8707,-3.8707,-3.8707,-3.8707,-3.8707,-3.8961,-3.9072,-4.632,-4.7408,-4.8342,-5.0074,-5.1302,-5.2404,-5.3745,-5.4736,-5.5312,-5.5043,-5.3639,-5.2132,0.0,0.0,0.0,-5.3005,-5.5352,0.0,-5.6922,-5.7055,0.0,-5.5605,0.0,-5.5898,-5.4903,-5.5291,0.0,0.0,-5.396,-5.3255,-5.2733,-5.2463,-5.1738,-5.0527,-5.0288,-4.9572,-4.8324,-4.7113,-4.6305,-4.5883,-4.4268,-4.3497,-4.3497,-4.3497,-4.3497,-4.3497,-4.3497,-4.3497,-4.3497,-4.3497,-4.3497,-4.3497,-4.3497,-4.3497,-4.3497,-4.3497,-4.3497,-4.3497,-4.3497,-4.3497,-4.3497,-4.3497,-4.3497,-4.3497,-4.3497,-4.3497,-4.3442,-4.324,-4.3185,-4.3185,-4.3185,-4.3185,-4.324,-4.3442,-4.3497,-4.3497,-4.3497,-4.3332,-4.324,-4.3442,-4.2194,-4.1111,-4.1111,-3.9772,-3.8707,-3.8707,-3.801,-3.7331,-3.6909,-3.6156,-3.5661,-3.5661,-3.5844,-3.5973,-3.5973,-3.6174,-3.6303,-3.6303,-3.6303,-3.656,-3.7165,-3.7397,-3.7771,-3.8377,-3.8597,-3.8707,-3.8707,-3.8707,-3.8707,-3.8707,-3.8762,-3.8803,-4.5905,-4.6822,-4.755,-4.8714,-4.9536,-5.0383,-5.1517,-5.2091,-5.2322,-5.2063,-5.0657,-4.9154,-4.817,-4.9006,-4.9936,0.0,0.0,0.0,-5.5739,-5.5866,-5.5961,0.0,-5.6243,0.0,-5.5602,-5.5957,-5.588,0.0,-5.4404,-5.3979,-5.3739,-5.3059,-5.2105,-5.0839,-5.0453,-4.9462,-4.781,-4.6526,-4.5718,-4.5369,-4.4085,-4.3497,-4.3497,-4.3497,-4.3497,-4.3497,0.0,-4.3497,-4.3497,-4.3497,-4.3497,-4.3497,-4.3497,-4.3497,-4.3497,-4.3497,-4.3497,-4.3497,-4.3497,-4.3497,-4.3497,-4.3497,-4.3497,-4.3497,-4.3497,-4.3497,-4.3497,-4.3497,-4.3497,-4.3497,-4.3497,-4.3497,-4.3497,-4.3497,-4.3497,-4.3497,-4.3497,-4.3497,-4.3387,-4.3039,-4.2249,-4.1405,-4.0708,-3.9827,-3.9111,-3.8762,-3.8322,-3.8028,-3.8028,-3.7019,-3.6303,-3.6303,-3.6615,-3.6817,-3.6817,-3.7147,-3.7349,-3.7349,-3.7349,-3.7551,-3.801,-3.8028,-3.823,-3.8689,-3.8707,-3.8707,-3.8707,-3.8707,-3.8707,-3.8707,-3.8707,-3.8707,-4.5498,-4.6077,-4.6326,-4.7096,-4.789,-4.8649,-4.9341,-4.9604,-4.9554,-4.92,-4.7957,-4.6673,-4.5755,-4.6342,-4.6911,-4.6817,0.0,-5.2064,-5.3987,-5.3774,-5.4446,-5.715,-5.6509,-5.6093,-5.6659,-5.6556,-5.6042,-5.5152,-5.4746,-5.4473,-5.4252,-5.2913,-5.1738,-5.0839,-4.9903,-4.8728,-4.7297,-4.6471,-4.5663,-4.4856,-4.403,-4.3589,-4.3497,-4.3497,-4.3497,-4.3497,-4.3497,-4.3497,-4.3497,-4.3497,-4.3497,-4.3497,-4.3497,-4.3497,-4.3497,-4.3497,-4.3497,-4.3497,-4.3497,-4.3497,-4.3497,-4.3497,-4.3497,-4.3497,-4.3497,-4.3497,-4.3497,-4.3497,-4.3497,-4.3497,-4.3497,-4.3497,-4.3497,-4.3497,-4.3497,-4.3497,-4.3497,-4.3497,-4.3277,-4.2598,-4.2378,-4.1864,-4.0451,-4.012,-3.979,-3.8982,-3.8854,-3.8817,-3.8707,-3.7477,-3.6615,-3.6615,-3.7239,-3.7643,-3.7643,-3.8303,-3.8707,-3.8707,-3.8707,-3.8707,-3.8707,-3.8707,-3.8707,-3.8707,-3.8707,-3.8707,-3.8707,-3.8707,-3.8707,-3.8707,-3.8817,-3.8854,-4.3693,-4.3469,-4.3418,-4.4787,-4.5683,-4.651,-4.7687,-4.8414,0.0,-4.6853,-4.6305,-4.5663,-4.4176,-4.5112,-4.6746,-4.8659,-5.0591,-5.2252,-5.3353,-5.4473,-5.489,0.0,-5.5592,-5.6387,-5.5895,-5.697,0.0,0.0,-5.5416,-5.4803,-5.3482,-5.3151,-5.2325,-5.0857,-4.9315,-4.8398,-4.8104,-4.7297,-4.6507,-4.5681,-4.4892,-4.414,-4.3497,-4.3497,-4.3497,-4.3497,-4.3497,0.0,-4.3497,-4.3497,-4.3497,-4.3497,-4.3497,-4.3497,-4.3497,-4.3497,-4.3497,-4.3497,-4.3497,-4.3497,-4.3497,-4.3497,-4.3497,-4.3497,-4.3497,-4.3497,-4.3497,-4.3497,-4.3497,-4.3497,-4.3497,-4.3497,-4.3497,-4.3497,-4.3497,-4.3497,-4.3497,-4.3497,-4.3442,-4.3314,-4.2745,-4.2213,-4.1937,-4.1332,-4.0616,-3.9808,-3.968,-3.9441,-3.8799,-3.8469,-3.8285,-3.8285,-3.8414,-3.8487,-3.8487,-3.8615,-3.8707,-3.8707,-3.8707,-3.8707,-3.8707,-3.8707,-3.8707,-3.8707,-3.8707,-3.8707,-3.8707,-3.8707,-3.8707,-3.8726,-3.9386,-3.968,-4.2618,-4.2574,-4.2472,-4.32,-4.3659,-4.4027,-4.4628,0.0,0.0,-4.4429,-4.4437,-4.4415,-4.3626,-4.4819,0.0,-4.7443,-4.9117,-5.0828,-5.2383,-5.3015,-5.3477,-5.3915,-5.4927,-5.531,-5.4567,-5.5892,-5.6157,-5.4519,-5.4737,-5.4638,-5.3867,-5.3041,-5.2032,-5.0839,-4.9609,-4.8563,-4.77,-4.7297,-4.6507,-4.5278,-4.4892,-4.4287,-4.3497,-4.3497,-4.3497,-4.3497,-4.3497,-4.3497,-4.3497,-4.3497,-4.3497,-4.3497,-4.3497,-4.3497,-4.3497,-4.3497,-4.3497,-4.3497,-4.3497,-4.3497,-4.3497,-4.3497,-4.3497,-4.3497,-4.3497,-4.3497,-4.3497,-4.3497,-4.3497,-4.3497,-4.3497,-4.3497,-4.3497,-4.3497,-4.3497,-4.3497,-4.3497,-4.3497,-4.3497,-4.3497,-4.3185,-4.2782,-4.2378,-4.1992,-4.146,-4.0653,-4.0175,-3.9753,-3.9368,-3.8964,-3.8707,-3.8707,-3.8707,-3.8707,-3.8707,-3.8707,-3.8707,-3.8707,-3.8707,-3.8707,-3.8707,-3.8707,-3.8707,-3.8707,-3.8707,-3.8707,-3.8707,-3.8707,-3.8927,-3.9331,-3.9717,-4.012,-4.1388,-4.1577,-4.1617,-4.1786,-4.1943,-4.2055,-4.2078,-4.2531,0.0,-4.2739,-4.3142,-4.3497,-4.3497,-4.4525,-4.5498,0.0,-4.7055,-4.872,-5.0994,-5.1087,-5.1705,-5.3629,-5.425,0.0,-5.3602,-5.4668,0.0,-5.3199,-5.359,-5.3976,-5.4142,-5.2619,-5.1444,-5.082,-4.9829,-4.8691,-4.7388,-4.7205,-4.6397,-4.4966,-4.4782,-4.4287,-4.3497,-4.3497,-4.3497,-4.3497,-4.3497,-4.3497,-4.3497,-4.3497,-4.3497,-4.3497,-4.3497,-4.3497,-4.3497,-4.3497,-4.3497,-4.3497,-4.3497,-4.3497,-4.3497,-4.3497,-4.3497,-4.3497,-4.3497,-4.3497,-4.3497,-4.3497,-4.3497,-4.3497,-4.3497,-4.3497,-4.3497,-4.3497,-4.3497,-4.3497,-4.3497,-4.3497,-4.3497,-4.3497,-4.3497,-4.3296,-4.2671,-4.2561,-4.2286,-4.1497,-4.0671,-4.0084,-3.9918,-3.9203,-3.8707,-3.8707,-3.8707,-3.8707,-3.8707,-3.8707,-3.8707,-3.8707,-3.8707,-3.8707,-3.8707,-3.8707,-3.8707,-3.8707,-3.8707,-3.8707,-3.8707,-3.8872,-3.9276,-3.99,-4.0249,-4.0744,-3.9162,-3.921,-3.9396,-4.0128,-4.0833,-4.1426,-4.1957,0.0,-4.286,-4.2739,-4.3142,-4.3497,-4.3497,-4.3608,-4.4195,-4.5663,0.0,-4.6259,-4.8653,-4.9649,-5.0453,-5.1499,0.0,0.0,-5.3602,-5.4205,-5.4082,-5.2484,-5.2328,-5.2599,-5.3274,-5.1793,-5.0875,-5.0802,-4.926,-4.8361,-4.8196,-4.748,-4.6673,-4.5773,-4.5057,-4.4287,-4.3497,-4.3497,-4.3497,-4.3497,-4.3497,-4.3497,0.0,-4.3497,-4.3497,-4.3497,-4.3497,-4.3497,-4.3497,-4.3497,-4.3497,-4.3497,-4.3497,-4.3497,-4.3497,-4.3497,-4.3497,-4.3497,-4.3497,-4.3497,-4.3497,-4.3497,-4.3497,-4.3497,-4.3497,-4.3497,-4.3497,-4.3497,-4.3497,-4.3497,-4.3497,-4.3497,-4.3497,-4.3497,-4.3497,-4.3461,-4.3387,-4.3387,-4.3112,-4.2304,-4.1515,-4.0726,-3.9992,-3.9203,-3.8707,-3.8707,-3.8707,-3.8707,-3.8707,-3.8707,-3.8707,-3.8707,-3.8707,-3.8707,-3.8707,-3.8707,-3.8707,-3.8707,-3.8707,-3.8707,-3.8707,-3.9423,-3.9827,-3.9937,-4.1405,-4.2121,-3.7993,-3.8245,-3.8327,-3.8618,-3.8931,-3.932,-4.0034,0.0,-4.1253,-4.2003,-4.2637,-4.3142,-4.3444,-4.3497,-4.3699,0.0,0.0,0.0,-4.6224,-4.6253,-4.6835,-4.8983,-5.0798,0.0,0.0,0.0,-5.273,-5.167,-5.1094,-5.0963,-5.1239,-5.1413,-5.1298,-5.082,-4.9682,-4.882,-4.8324,-4.7994,-4.7186,-4.5902,-4.6085,-4.548,-4.4213,-4.4213,-4.4213,-4.4195,-4.3699,-4.3497,0.0,-4.3497,-4.3497,-4.3497,-4.3497,-4.3497,-4.3497,-4.3497,-4.3497,-4.3497,-4.3497,-4.3497,-4.3497,-4.3497,-4.3497,-4.3497,-4.3497,-4.3497,-4.3497,-4.3497,-4.3497,-4.3497,-4.3497,-4.3497,-4.3497,-4.3497,-4.3497,-4.3497,-4.3497,-4.3497,-4.3497,-4.3497,-4.3497,-4.3497,-4.3497,-4.3497,-4.3387,-4.3057,-4.2341,-4.1534,-4.0726,-4.0341,-3.9772,-3.8799,-3.8707,-3.8707,-3.8707,-3.8707,-3.8707,-3.8707,-3.9148,-3.9203,-3.8726,-3.9643,-3.9918,-3.9423,-3.99,-4.0157,-4.0157,-4.0469,-4.0873,-4.135,-4.1992,-4.2561,-3.6557,-3.7121,-3.7456,-3.7456,-3.7488,-3.7752,0.0,0.0,-3.9905,-4.1227,-4.2021,-4.2598,-4.316,-4.3124,-4.3105,0.0,0.0,-4.23,-4.447,-4.3958,-4.4299,-4.665,0.0,-4.912,0.0,-5.0488,-5.1094,-5.0495,-4.996,-4.9678,-4.9678,-5.0322,-5.0575,-5.0154,-4.953,-4.8912,-4.8324,-4.8067,-4.726,-4.5902,-4.6232,-4.581,-4.4709,-4.4452,-4.447,-4.4672,-4.3846,-4.3497,0.0,-4.3497,-4.3497,-4.3497,-4.3497,-4.3497,-4.3497,-4.3497,-4.3497,-4.3497,-4.3497,-4.3497,-4.3497,-4.3497,-4.3497,-4.3497,-4.3497,-4.3497,-4.3497,-4.3497,-4.3497,-4.3497,-4.3497,-4.3497,-4.3497,-4.3497,-4.3497,-4.3497,-4.3497,-4.3497,-4.3497,-4.3497,-4.3497,-4.3497,-4.3497,-4.3497,-4.3497,-4.3497,-4.2818,-4.2103,-4.1534,-4.1258,-4.0579,-3.9203,-3.9056,-3.8964,-3.8726,-3.8707,-3.8707,-3.8707,-3.946,-3.9643,-3.9074,-4.0377,-4.0836,-4.0267,-4.065,-4.0823,-4.0823,-4.0904,-4.1233,-4.1814,-4.205,-4.245,-3.455,-3.5536,-3.66,-3.66,-3.6727,-3.7189,0.0,0.0,-3.9194,-4.0619,-4.1402,-4.1979,-4.2616,-4.2203,-4.2185,-4.3321,-4.2068,0.0,-4.3719,-4.3631,-4.3724,0.0,0.0,-4.6819,-4.6819,-4.8156,-4.9018,-4.9001,-4.8959,0.0,-4.8927,-4.8184,-4.8003,-4.8594,-4.8415,-4.8324,-4.8306,-4.7517,-4.6709,-4.5883,-4.5112,-4.4727,-4.4672,-4.3883,-4.3956,-4.4672,-4.3846,-4.3497,0.0,-4.3497,-4.3497,-4.3497,-4.3497,-4.3497,-4.3497,-4.3497,-4.3497,-4.3497,-4.3497,-4.3497,-4.3497,-4.3497,-4.3497,-4.3497,-4.3497,-4.3497,-4.3497,-4.3497,-4.3497,-4.3497,-4.3497,-4.3497,-4.3497,-4.3497,-4.3497,-4.3497,-4.3497,-4.3497,-4.3497,-4.3497,-4.3497,-4.3497,-4.3497,-4.3497,-4.3497,-4.3497,-4.2818,-4.2304,-4.2286,-4.1589,-4.0799,-3.9955,-3.9882,-3.957,-3.8781,-3.8707,-3.8707,-3.8707,-3.946,-3.99,-3.9882,-4.0671,-4.1111,-4.1093,-4.0508,-4.0221,-4.0221,-4.0473,-4.0618,-4.0636,-4.1439,-4.1793,-3.3787,-3.445,-3.5076,-3.4622,-3.4829,-3.5628,-3.7102,0.0,-3.8069,-4.044,-4.1041,-4.1358,-4.1979,-4.1937,-4.1937,-4.2266,-4.1516,0.0,0.0,0.0,0.0,-4.4418,-4.7225,-4.9052,0.0,0.0,-4.9001,-4.9001,-4.758,-4.6954,-4.7466,-4.6653,-4.6481,-4.713,-4.6945,-4.6876,-4.6916,-4.6522,-4.6159,-4.5902,-4.5645,-4.5241,-4.4709,-4.4452,-4.447,-4.4672,-4.3846,-4.3497,-4.3497,-4.3497,-4.3497,-4.3497,-4.3497,-4.3497,-4.3497,-4.3497,-4.3497,-4.3497,-4.3497,-4.3497,-4.3497,-4.3497,-4.3497,-4.3497,-4.3497,-4.3497,-4.3497,-4.3497,-4.3497,-4.3497,-4.3497,-4.3497,-4.3497,-4.3497,-4.3497,-4.3497,-4.3497,-4.3497,-4.3497,-4.3497,-4.3497,-4.3497,-4.3497,-4.3497,-4.3497,-4.3497,-4.3277,-4.291,-4.2378,-4.2561,-4.2213,-4.0873,-4.1222,-4.0983,-3.9643,-3.9515,-3.9753,-4.0322,-4.1111,-4.1295,-4.0744,-4.2029,-4.2297,-4.1325,-4.2067,-4.2049,-4.1296,-4.1801,-4.1805,-4.1414,-4.1687,-4.181,0.0,-3.338,-3.3602,-3.3528,-3.3351,0.0,0.0,0.0,0.0,-3.9357,-4.0209,-4.0797,-4.1358,-4.1286,-4.1286,-4.1725,-4.1133,-4.0758,0.0,0.0,0.0,-4.3995,0.0,0.0,0.0,-4.8105,-4.8173,-4.8173,-4.6633,-4.5788,-4.5957,-4.5183,-4.4665,-4.4492,-4.5364,-4.5878,-4.5939,-4.5718,-4.544,-4.5148,-4.537,-4.5186,-4.4709,-4.4397,-4.4415,-4.4672,-4.3846,-4.3497,0.0,-4.3497,-4.3497,-4.3497,-4.3497,-4.3497,-4.3497,-4.3497,-4.3497,-4.3497,-4.3497,-4.3497,-4.3497,-4.3497,-4.3497,-4.3497,-4.3497,-4.3497,-4.3497,-4.3497,-4.3497,-4.3497,-4.3497,-4.3497,-4.3497,-4.3497,-4.3497,-4.3497,-4.3497,-4.3497,-4.3497,-4.3497,-4.3497,-4.3497,-4.3497,-4.3497,-4.3497,-4.3497,-4.3497,-4.3314,-4.2818,-4.3185,-4.2896,-4.1389,-4.1873,-4.1797,-4.0586,-4.0408,-4.0579,-4.1075,-4.1864,-4.2084,-4.1589,-4.28,-4.3083,-4.2214,-4.2631,-4.26,-4.2121,-4.208,-4.1725,-4.1168,-4.1168,-4.1168,0.0,-3.233,-3.2451,-3.3166,-3.2308,-3.1877,0.0,0.0,0.0,0.0,0.0,0.0,-4.0664,-4.0414,-4.0434,-4.1508,-4.0767,-4.0542,0.0,-4.2176,0.0,0.0,-4.479,0.0,-4.4654,-4.5771,-4.6583,-4.6633,-4.5906,-4.5179,-4.4536,-4.3758,-4.2709,-4.1322,-4.3694,-4.5039,-4.5103,-4.4928,-4.4534,-4.3866,-4.4327,-4.4546,-4.4509,-4.3828,-4.3901,0.0,-4.3809,-4.3497,0.0,-4.3497,-4.3497,-4.3497,-4.3497,-4.3497,-4.3497,-4.3497,-4.3497,-4.3497,-4.3497,-4.3497,-4.3497,-4.3497,-4.3497,-4.3497,-4.3497,-4.3497,-4.3497,-4.3497,-4.3497,-4.3497,-4.3497,-4.3497,-4.3497,-4.3497,-4.3497,-4.3497,-4.3497,-4.3497,-4.3497,-4.3497,-4.3497,-4.3497,-4.3497,-4.3497,-4.3497,-4.3497,-4.3497,-4.3497,-4.3497,-4.3497,-4.2975,-4.163,-4.1994,-4.2083,-4.1465,-4.1265,-4.1189,-4.1211,-4.1907,-4.231,-4.2276,-4.2972,-4.3356,-4.3356,-4.2346,-4.208,-4.2711,-4.1534,-4.0703,-4.0204,-4.0171,-4.0171,-3.2181,0.0,-3.2983,-3.2152,-3.205,-3.2497,0.0,0.0,0.0,0.0,0.0,0.0,0.0,0.0,-4.0221,-4.0483,-4.0254,-4.0239,-4.0559,-4.1562,0.0,-4.4942,-4.4976,-4.4773,-4.4604,-4.4367,-4.4451,-4.506,-4.3842,-4.3267,-4.3673,-4.2963,-4.2388,-4.2049,-4.2091,-4.2408,-4.2922,-4.2705,-4.2768,-4.3202,-4.3195,-4.3192,-4.3174,-4.3412,-4.3589,-4.3754,-4.3571,0.0,-4.3497,-4.3497,-4.3497,-4.3497,-4.3497,-4.3497,-4.3497,-4.3497,-4.3497,-4.3497,-4.3497,-4.3497,-4.3497,-4.3497,-4.3497,-4.3497,-4.3497,-4.3497,-4.3497,-4.3497,-4.3497,-4.3497,-4.3497,-4.3497,-4.3497,-4.3497,-4.3497,-4.3497,-4.3497,-4.3497,-4.3497,-4.3497,-4.3497,-4.3497,-4.3497,-4.3497,-4.3497,-4.3497,-4.3497,-4.3497,-4.3497,-4.3497,-4.3212,-4.2461,-4.2537,-4.2366,-4.1777,-4.1905,-4.2097,-4.2304,-4.2484,-4.2405,-4.1958,-4.2096,-4.2185,-4.2185,-4.1937,-4.208,-4.2711,-4.1937,-4.1534,-4.1375,-4.092,-4.0685,-3.3176,-3.2665,-3.2179,-3.2037,-3.1708,-3.1799,0.0,0.0,0.0,0.0,0.0,0.0,0.0,0.0,0.0,0.0,-4.0449,0.0,0.0,0.0,-4.3492,-4.4751,-4.4527,-4.4285,0.0,-4.3939,-4.387,-4.4302,-4.3323,-4.2757,-4.2774,-4.2157,-4.1644,-4.1288,-4.0882,-4.1036,-4.1711,-4.1505,-4.1612,-4.2043,-4.2234,-4.2302,-4.2302,-4.2884,-4.3124,-4.3142,-4.341,0.0,-4.3497,-4.3497,-4.3497,-4.3497,-4.3497,-4.3497,-4.3497,-4.3497,-4.3497,-4.3497,-4.3497,-4.3497,-4.3497,-4.3497,-4.3497,-4.3497,-4.3497,-4.3497,-4.3497,-4.3497,-4.3497,-4.3497,-4.3497,-4.3497,-4.3497,-4.3497,-4.3497,-4.3497,-4.3497,-4.3497,-4.3497,-4.3497,-4.3497,-4.3497,-4.3497,-4.3497,-4.3497,-4.3497,-4.3286,-4.3214,-4.3463,-4.3304,-4.2921,-4.2342,-4.2519,-4.2342,-4.1446,-4.2049,-4.243,-4.2324,-4.2302,-4.2121,-4.1793,-4.208,-4.2203,-4.2203,-4.2444,-4.2346,-4.1895,-4.1793,-4.1552,-4.103,-4.0672,-4.0528,-3.4189,-3.2713,-3.1443,-3.2498,-3.1696,-3.1175,-3.3256,0.0,0.0,0.0,0.0,0.0,0.0,-4.0031,0.0,0.0,0.0,0.0,-4.2903,-4.3403,-4.3793,-4.3899,-4.3811,0.0,-4.3749,-4.3749,-4.3722,-4.3668,-4.3243,-4.2697,-4.2072,-4.1572,-4.1,-4.0353,-4.0336,-4.061,-4.1155,-4.0886,-4.078,-4.078,-4.1402,-4.1664,-4.1664,-4.2302,-4.2559,-4.2598,0.0,0.0,-4.3375,-4.3463,-4.3497,-4.3497,-4.3497,-4.3497,-4.3497,-4.3497,-4.3497,-4.3497,-4.3497,-4.3497,-4.3497,-4.3497,-4.3497,-4.3497,-4.3497,-4.3497,-4.3497,-4.3497,-4.3497,-4.3497,-4.3497,-4.3497,-4.3497,-4.3497,-4.3497,-4.3497,-4.3497,-4.3497,-4.3497,-4.3497,-4.3497,-4.3497,-4.3497,-4.3497,-4.3497,-4.3497,-4.305,-4.2864,-4.3339,-4.2884,-4.2342,-4.1725,-4.2203,-4.2121,-4.0995,-4.1937,-4.2342,-4.1853,-4.181,-4.175,-4.1664,-4.2342,-4.2711,-4.2711,-4.3214,-4.2754,-4.1296,-4.1707,-4.142,-4.0466,-4.0286,-4.0204,-3.2993,-3.2763,-3.3038,-3.3844,-3.3339,-3.2934,-3.3957,0.0,0.0,0.0,0.0,0.0,0.0,-4.0098,-4.0943,0.0,0.0,-4.2922,0.0,0.0,-4.3214,-4.3907,0.0,-4.285,-4.2598,-4.2577,-4.245,-4.2147,-4.2078,-4.1982,-4.1858,-4.1771,-4.1675,-4.1552,-4.1552,-4.1338,-4.0953,-4.0468,-4.0204,-4.0254,-4.0797,-4.1041,-4.1041,-4.1664,-4.1937,-4.1979,0.0,-4.2826,-4.2864,-4.3321,-4.3497,-4.3497,-4.3497,-4.3497,-4.3497,-4.3497,-4.3497,-4.3497,-4.3497,-4.3497,-4.3497,-4.3497,-4.3497,-4.3497,-4.3497,-4.3497,-4.3497,-4.3497,-4.3497,-4.3497,-4.3497,-4.3497,-4.3497,-4.3497,-4.3497,-4.3497,-4.3497,-4.3497,-4.3497,-4.3497,-4.3497,-4.3497,-4.3497,-4.3497,-4.3497,-4.3497,-4.305,-4.275,-4.2826,-4.2302,-4.1725,-4.1087,-4.1578,-4.1664,-4.0949,-4.1534,-4.1895,-4.181,-4.181,-4.1578,-4.1041,-4.2121,-4.2711,-4.2711,-4.3214,-4.3356,-4.3105,-4.2714,-4.248,-4.2279,-4.1268,-4.078,-3.4195,-3.4147,-3.4244,-3.5166,-3.4213,-3.3334,-3.4483,0.0,0.0,0.0,0.0,0.0,0.0,0.0,-4.2008,-4.3391,0.0,-4.3415,-4.3793,-4.3513,-4.3386,0.0,0.0,-4.3268,-4.3515,-4.354,-4.3463,-4.3321,-4.285,-4.2571,-4.2571,-4.2091,-4.181,-4.181,-4.181,-4.1664,-4.1402,-4.115,-4.0737,-4.0121,-4.0319,-4.0449,-4.0497,-4.1059,-4.1313,-4.1358,0.0,-4.2203,-4.2262,-4.2846,-4.3069,-4.3105,-4.3375,-4.3497,-4.3497,-4.3497,-4.3497,-4.3497,-4.3497,-4.3497,-4.3497,-4.3497,-4.3497,-4.3497,-4.3497,-4.3497,-4.3497,-4.3497,-4.3497,-4.3497,-4.3497,-4.3497,-4.3497,-4.3497,-4.3497,-4.3497,-4.3497,-4.3497,-4.3497,-4.3497,-4.3497,-4.3497,-4.3497,-4.3497,-4.3497,-4.3497,-4.279,-4.2342,-4.2655,-4.1895,-4.1223,-4.0949,-4.1133,-4.1223,-4.0903,-4.1446,-4.181,-4.181,-4.181,-4.181,-4.1853,-4.24,-4.2826,-4.3142,-4.3375,-4.3375,-4.3069,-4.2826,-4.2342,-4.1707,-4.1178,-4.0733,-3.4831,-3.4923,-3.4858,-3.5474,0.0,-3.3831,-3.5082,0.0,0.0,0.0,0.0,0.0,0.0,-4.2089,0.0,-4.4664,-4.4493,-4.4223,-4.4214,-4.4233,-4.4162,-4.4058,-4.4036,-4.4211,-4.4675,-4.4726,-4.4682,-4.4624,-4.3916,-4.3536,-4.3536,-4.2759,-4.2315,-4.2315,-4.2248,-4.2144,-4.2021,-4.2021,-4.1508,-4.0514,-4.0514,-4.0514,-4.0514,-4.092,-4.1133,-4.1133,-4.175,-4.2021,-4.208,-4.2637,-4.2902,-4.2939,-4.3339,-4.341,-4.3339,-4.3444,-4.341,-4.3321,-4.3444,-4.3497,-4.3497,-4.3497,-4.3497,-4.3497,-4.3497,-4.3626,-4.3773,-4.3773,-4.392,-4.3975,-4.3589,-4.3773,-4.3993,-4.3828,-4.392,-4.3993,-4.3809,-4.3773,-4.3718,-4.3534,-4.3497,-4.3497,-4.3497,-4.3497,-4.3497,-4.3497,-4.2523,-4.1979,-4.244,-4.1464,-4.0685,-4.0685,-4.0827,-4.0995,-4.1313,-4.1877,-4.2185,-4.2185,-4.2185,-4.2364,-4.2711,-4.2826,-4.3014,-4.3304,-4.3444,-4.3178,-4.248,-4.248,-4.1937,-4.0903,-4.078,-4.0497,-3.3007,-3.375,-3.4524,-3.3788,-3.4282,0.0,-3.6014,-3.6819,0.0,0.0,0.0,0.0,0.0,-4.3738,-4.5124,-4.5242,-4.5545,-4.5736,-4.5745,0.0,-4.5714,-4.5653,-4.5638,-4.5496,-4.5096,-4.5074,-4.4943,-4.4606,-4.4553,-4.4508,-4.4508,-4.4069,-4.3825,-4.3825,-4.3542,-4.3124,-4.2655,-4.2616,-4.2302,-4.1682,-4.1682,-4.1682,-4.1682,-4.1725,-4.1768,-4.175,-4.2382,-4.2616,-4.2693,-4.3214,-4.3444,-4.3444,-4.3479,-4.3214,-4.2826,-4.3339,-4.3178,-4.2826,-4.3339,-4.3497,-4.3497,-4.3497,-4.3497,-4.3497,-4.3497,-4.4011,-4.4617,-4.4617,-4.5149,-4.5369,-4.3883,-4.4599,-4.5535,-4.48,-4.5186,-4.5516,-4.4782,-4.4617,-4.4397,-4.3626,-4.3497,-4.3497,-4.3497,-4.3497,-4.3497,-4.3497,-4.2523,-4.181,-4.1853,-4.0861,-4.0171,-4.0171,-4.0625,-4.1358,-4.248,-4.3087,-4.3375,-4.3375,-4.3375,-4.316,-4.2711,-4.3178,-4.3214,-4.2788,-4.325,-4.294,-4.1853,-4.1853,-4.1534,-4.0903,-4.0368,-4.0121,-3.3527,-3.437,-3.513,-3.4786,0.0,0.0,0.0,0.0,0.0,0.0,-3.9353,0.0,0.0,0.0,-4.5802,-4.5802,-4.6007,-4.6147,-4.6147,-4.6147,-4.608,-4.5891,-4.5863,-4.5741,-4.5438,-4.5419,-4.5362,-4.5243,-4.503,-4.4919,-4.4919,-4.458,-4.4261,-4.4016,-4.3881,-4.3609,-4.3214,-4.3214,-4.3087,-4.2847,-4.2144,-4.181,-4.181,-4.181,-4.181,-4.1793,-4.2021,-4.2121,-4.2203,-4.2752,-4.3014,-4.3014,-4.3375,-4.3178,-4.2732,-4.2939,-4.2864,-4.2655,-4.2483,-4.2903,-4.3444,-4.3087,-4.3014,-4.316,-4.3979,-4.4218,-4.4398,-4.5224,-4.603,-4.6397,-4.5278,-4.5443,-4.581,-4.5516,-4.5681,-4.5681,-4.4874,-4.4709,-4.4617,-4.4305,-4.425,-4.4415,-4.4911,-4.458,-4.425,-4.425,-4.3154,-4.2203,-4.1853,-4.142,-4.0908,-4.0171,-4.0938,-4.181,-4.2616,-4.3178,-4.3497,-4.3497,-4.3497,-4.341,-4.3214,-4.305,-4.2902,-4.2693,-4.2902,-4.2637,-4.181,-4.2162,-4.1853,-4.0903,-4.0703,-4.0417,-3.3105,-3.4098,-3.4918,0.0,0.0,0.0,0.0,0.0,0.0,0.0,-3.9727,0.0,0.0,0.0,0.0,0.0,-4.6212,-4.6285,-4.6231,-4.624,-4.6157,-4.5897,-4.5877,-4.5796,-4.5605,-4.5586,-4.5586,-4.5586,-4.54,-4.5243,-4.5243,-4.4943,-4.4561,-4.4204,-4.4076,-4.3818,-4.3479,-4.3497,-4.3497,-4.3479,-4.2734,-4.2346,-4.2346,-4.2346,-4.2346,-4.2346,-4.2346,-4.2346,-4.2346,-4.279,-4.2939,-4.2976,-4.3375,-4.3178,-4.2711,-4.2711,-4.2577,-4.2342,-4.1937,-4.2444,-4.3178,-4.2826,-4.2874,-4.324,-4.4364,-4.469,-4.4853,-4.5955,-4.6874,-4.737,-4.6801,-4.6654,-4.6599,-4.6342,-4.6287,-4.6067,-4.5259,-4.4892,-4.4709,-4.4709,-4.4488,-4.458,-4.5388,-4.5057,-4.4617,-4.436,-4.3614,-4.2847,-4.2157,-4.1937,-4.1508,-4.0737,-4.1508,-4.2262,-4.2655,-4.3178,-4.3497,-4.3497,-4.3497,-4.3497,-4.3497,-4.2976,-4.2711,-4.2711,-4.2711,-4.2382,-4.181,-4.2203,-4.1895,-4.0903,-4.075,-4.0449,-3.1264,-3.2527,-3.3658,0.0,0.0,0.0,0.0,0.0,0.0,0.0,0.0,-4.3828,-4.4648,0.0,0.0,-4.6102,-4.6193,-4.6249,-4.6121,-4.6084,-4.6026,-4.5815,-4.5796,-4.5757,-4.5605,-4.5586,-4.5586,-4.5586,-4.5586,-4.5586,-4.5586,-4.5302,-4.4943,-4.4606,-4.4204,-4.3849,-4.3479,-4.3497,-4.3497,-4.3497,-4.3497,-4.3497,-4.3497,-4.3497,-4.3497,-4.3497,-4.3497,-4.3497,-4.3497,-4.3497,-4.3497,-4.3497,-4.3497,-4.3178,-4.2711,-4.2711,-4.2302,-4.181,-4.181,-4.2203,-4.2711,-4.2711,-4.3195,-4.3906,-4.451,-4.5417,-4.6313,-4.6943,-4.77,-4.8306,-4.8288,-4.8288,-4.8104,-4.7297,-4.7113,-4.6893,-4.6067,-4.5259,-4.4709,-4.4727,-4.4066,-4.3754,-4.458,-4.4727,-4.4433,-4.3626,-4.3723,-4.3617,-4.2802,-4.2162,-4.1793,-4.181,-4.2342,-4.2711,-4.2711,-4.3178,-4.3497,-4.3497,-4.3497,-4.3497,-4.3497,-4.2976,-4.2711,-4.2711,-4.2711,-4.2382,-4.181,-4.181,-4.149,-4.0903,-4.0385,-4.0121,-3.2751,-3.3128,0.0,0.0,0.0,0.0,0.0,0.0,0.0,0.0,-4.1003,-4.2184,-4.3558,0.0,0.0,-4.511,-4.5616,-4.6006,-4.5966,-4.5969,-4.593,-4.5815,-4.5796,-4.5757,-4.5605,-4.5586,-4.5586,-4.5586,-4.5586,-4.5586,-4.5586,-4.5513,-4.5182,-4.4606,-4.4474,-4.4125,-4.3532,-4.3497,-4.3497,-4.3497,-4.3497,-4.3497,-4.3497,-4.3497,-4.3497,-4.3497,-4.3497,-4.3497,-4.3497,-4.3497,-4.3497,-4.3497,-4.3497,-4.3178,-4.2711,-4.2711,-4.2577,-4.2382,-4.1937,-4.2203,-4.2783,-4.3343,-4.3391,-4.3644,-4.5751,-4.6348,-4.6413,-4.6943,-4.77,-4.8049,-4.6911,-4.704,-4.7407,-4.7186,-4.7113,-4.6746,-4.5351,-4.4874,-4.4874,-4.5424,-4.4892,-4.4782,-4.6159,-4.5461,-4.4635,-4.4378,-4.3942,-4.3524,-4.3286,-4.2404,-4.2103,-4.2903,-4.2808,-4.2864,-4.3214,-4.341,-4.3497,-4.3497,-4.3497,-4.3497,-4.3497,-4.2976,-4.2711,-4.2711,-4.2711,-4.2382,-4.181,-4.2221,-4.1895,-4.0903,-4.075,-4.0449,-3.1877,-3.2294,0.0,0.0,0.0,-3.4298,-3.4812,0.0,0.0,0.0,0.0,-4.126,-4.2237,-4.3402,0.0,-4.4182,-4.4878,-4.5401,-4.5355,-4.565,-4.5834,-4.5738,-4.5719,-4.5699,-4.5605,-4.5586,-4.5586,-4.5586,-4.5586,-4.5586,-4.5586,-4.5457,-4.5161,-4.4606,-4.4447,-4.4076,-4.3532,-4.3497,-4.3497,-4.3497,-4.3497,-4.3497,-4.3497,-4.3497,-4.3497,-4.3497,-4.3497,-4.3497,-4.3497,-4.3497,-4.3497,-4.3497,-4.3497,-4.3286,-4.2976,-4.2788,-4.2711,-4.2616,-4.2021,-4.2203,-4.2838,-4.3653,-4.3629,-4.368,-4.5703,-4.6063,-4.5843,-4.62,-4.6815,-4.7131,-4.614,-4.6269,-4.6636,-4.6636,-4.6397,-4.5902,-4.4929,-4.4452,-4.4562,-4.5681,-4.4984,-4.4727,-4.6361,-4.5553,-4.4599,-4.4268,-4.4085,-4.3864,-4.3534,-4.3447,-4.3547,-4.3923,-4.3981,-4.4089,-4.4452,-4.4158,-4.3975,-4.3975,-4.3663,-4.3497,-4.3497,-4.2976,-4.2788,-4.3014,-4.2559,-4.2302,-4.2162,-4.2021,-4.1621,-4.0903,-4.0703,-4.0417,-2.9901,0.0,0.0,0.0,-3.2918,0.0,-3.4694,-3.5734,-3.6954,-3.7843,0.0,-4.0626,-4.0733,-4.2066,-4.3169,-4.3236,-4.4066,-4.4607,-4.4506,-4.5238,-4.5738,-4.5605,-4.5586,-4.5586,-4.5586,-4.5586,-4.5586,-4.5586,-4.5568,-4.5549,-4.5549,-4.5243,-4.4896,-4.4553,-4.4175,-4.3818,-4.3479,-4.3497,-4.3497,-4.3497,-4.3497,-4.3497,-4.3497,-4.3497,-4.3497,-4.3497,-4.3497,-4.3497,-4.3497,-4.3497,-4.3497,-4.3497,-4.3497,-4.3497,-4.3444,-4.2939,-4.2788,-4.2693,-4.2162,-4.2284,-4.2838,-4.3692,-4.3866,-4.3913,-4.4885,-4.512,-4.5021,-4.507,-4.5455,-4.5865,-4.5718,-4.5736,-4.5773,-4.57,-4.5186,-4.4709,-4.4709,-4.4121,-4.4085,-4.57,-4.4709,-4.4121,-4.5736,-4.5223,-4.4342,-4.3608,-4.4121,-4.436,-4.3681,-4.4892,-4.5498,-4.4802,-4.5425,-4.5902,-4.581,-4.5132,-4.4709,-4.4709,-4.3938,-4.3497,-4.3497,-4.3014,-4.3014,-4.3479,-4.2426,-4.2162,-4.2711,-4.1534,-4.0984,-4.1024,-4.0519,-4.0307,0.0,-3.2164,0.0,0.0,-3.3751,-3.4379,-3.4653,-3.4945,-3.5457,-3.6511,-3.7594,-3.8652,-3.9488,-4.0545,-4.1466,-4.2047,-4.3412,-4.4374,-4.4335,-4.5086,-4.5624,-4.5586,-4.5586,-4.5586,-4.5586,-4.5586,-4.5586,-4.5586,-4.5342,-4.5201,-4.5201,-4.4896,-4.4527,-4.4146,-4.4046,-4.3818,-4.3479,-4.3497,-4.3497,0.0,-4.3497,-4.3497,-4.3497,-4.3497,-4.3497,-4.3497,-4.3497,-4.3497,-4.3497,-4.3497,-4.3497,-4.3497,-4.3497,-4.3497,-4.3497,-4.3375,-4.3339,-4.3286,-4.3196,-4.2921,-4.2915,-4.4126,-4.3927,-4.3489,-4.5217,-4.5415,-4.5034,-4.4838,-4.5334,-4.5608,-4.4342,-4.4488,-4.48,-4.4158,-4.4378,-4.4709,-4.4709,-4.4562,-4.4929,-4.6544,-4.5553,-4.4947,-4.6581,-4.5131,-4.3699,-4.3516,-4.3644,-4.392,-4.4378,-4.4745,-4.4967,-4.495,-4.5533,-4.5718,-4.524,-4.4912,-4.4709,-4.4709,-4.3938,-4.3497,-4.3497,-4.341,-4.3375,-4.3497,-4.2846,-4.2577,-4.2711,-4.1979,-4.169,-4.1825,-4.1747,-4.173,0.0,0.0,0.0,0.0,0.0,-3.3776,-3.3938,-3.4123,-3.4465,-3.5164,-3.6122,-3.7123,-3.8078,-3.8994,-3.9853,-4.0616,-4.2142,-4.3248,-4.3248,-4.4317,-4.5118,-4.5118,-4.5118,-4.5118,-4.5118,-4.5118,-4.5118,-4.5118,-4.4966,-4.4872,-4.4872,-4.4508,-4.4204,-4.4016,-4.3849,-4.3679,-4.3479,-4.3497,-4.3497,-4.3497,-4.3497,-4.3497,-4.3497,-4.3497,-4.3497,-4.3497,-4.3497,-4.3497,-4.3497,-4.3497,-4.3497,-4.3497,-4.3497,-4.3497,-4.3497,-4.3497,-4.3497,-4.3497,-4.3497,-4.3339,-4.3269,-4.4362,-4.4053,-4.3397,-4.4231,-4.4231,-4.383,-4.3099,-4.3617,-4.418,-4.3342,-4.3615,-4.4011,-4.3589,-4.4103,-4.4709,-4.4709,-4.4709,-4.5186,-4.6801,-4.5498,-4.4635,-4.625,-4.4837,-4.3497,-4.3497,-4.3828,-4.4085,-4.4121,-4.5131,-4.5736,-4.5453,-4.6413,-4.6762,-4.6072,-4.5571,-4.5112,-4.4727,-4.3938,-4.3497,-4.3497,-4.3497,-4.3497,-4.3497,-4.2976,-4.2577,-4.2262,-4.1664,-4.1459,-4.1662,-4.1662,-4.1869,0.0,0.0,0.0,0.0,-3.3154,0.0,-3.3075,-3.3332,-3.3643,-3.3862,-3.482,-3.5897,-3.692,-3.7697,-3.849,-3.9429,-4.0882,-4.1938,-4.2089,-4.341,-4.4436,-4.4587,-4.458,-4.458,-4.458,-4.458,-4.458,-4.458,-4.4527,-4.4501,-4.4501,-4.4136,-4.3893,-4.3893,-4.3646,-4.3497,-4.3497,-4.3497,-4.3497,-4.3497,-4.3497,-4.3497,-4.3497,-4.3497,-4.3497,-4.3497,-4.3497,-4.3497,-4.3497,-4.3497,-4.3497,-4.3497,-4.3497,-4.3497,-4.3497,-4.3497,-4.3497,-4.3497,-4.3497,-4.3497,-4.3608,-4.4287,-4.3995,-4.3324,-4.3158,-4.2925,-4.2519,-4.1656,-4.2121,-4.2826,-4.2826,-4.3178,-4.3497,-4.3497,-4.4103,-4.4709,-4.4709,-4.4709,-4.5149,-4.6617,-4.5388,-4.4452,-4.5516,-4.4819,-4.4066,-4.3938,-4.4488,-4.4727,-4.4176,-4.5865,-4.6874,-4.6231,-4.7294,-4.7791,-4.6998,-4.6286,-4.5626,-4.4947,-4.4287,-4.3901,-4.3901,-4.3901,-4.3901,-4.3901,-4.3118,-4.253,-4.2027,-4.1441,-4.1317,-4.1593,-4.1593,-4.1982,0.0,0.0,0.0,0.0,-3.2872,-3.2583,0.0,0.0,-3.2663,0.0,-3.3634,-3.4978,-3.6764,-3.7206,-3.7769,-3.9354,-4.0415,-4.1302,-4.1995,-4.2882,-4.3756,-4.453,-4.458,-4.458,-4.458,-4.458,-4.458,-4.458,-4.428,-4.4087,-4.4087,-4.3758,-4.3582,-4.3582,-4.3513,-4.3497,-4.3497,-4.3497,-4.3497,-4.3497,-4.3497,-4.3497,-4.3497,-4.3497,-4.3497,-4.3497,-4.3497,-4.3497,-4.3497,-4.3497,-4.3497,-4.3497,-4.3497,-4.3497,-4.3497,-4.3497,-4.3497,-4.3497,-4.3497,-4.3497,-4.3516,-4.3626,-4.3251,-4.2882,-4.3324,-4.3086,-4.2788,-4.3087,-4.3286,-4.341,-4.341,-4.3444,-4.3497,-4.3497,-4.4103,-4.4709,-4.4709,-4.4709,-4.4984,-4.5883,-4.6361,-4.625,-4.5076,-4.5847,-4.6397,-4.5681,-4.5663,-4.5957,-4.6544,-4.6911,-4.7124,-4.7192,-4.7247,-4.7015,-4.6372,-4.6061,-4.5847,-4.5755,-4.5645,-4.5571,-4.5571,-4.5571,-4.5571,-4.5571,-4.3791,-4.2916,-4.3027,-4.2415,-4.2477,-4.3132,-4.3132,-4.3538,-3.4157,0.0,0.0,0.0,-3.2433,-3.2092,-3.2092,0.0,-3.2484,-3.2484,-3.3221,-3.4261,-3.5561,-3.6066,-3.6777,-3.8372,-3.9592,-4.0626,-4.1415,-4.1853,-4.2374,-4.3211,-4.3304,-4.3304,-4.3304,-4.3713,-4.3992,-4.3992,-4.3804,-4.3726,-4.3726,-4.3563,-4.3497,-4.3497,-4.3497,-4.3497,-4.3497,-4.3497,-4.3497,-4.3497,-4.3497,-4.3497,-4.3497,-4.3497,-4.3497,-4.3497,-4.3497,-4.3497,-4.3497,-4.3497,-4.3497,-4.3497,-4.3497,-4.3497,-4.3497,-4.3497,-4.3497,-4.3497,-4.3497,-4.3497,-4.3497,-4.3497,-4.3339,-4.3142,-4.305,-4.2902,-4.2693,-4.258,-4.279,-4.305,-4.305,-4.3286,-4.3497,-4.3497,-4.3754,-4.403,-4.403,-4.4378,-4.4672,-4.4562,-4.5204,-4.5535,-4.4837,-4.5296,-4.581,-4.5883,-4.5902,-4.603,-4.6379,-4.6838,-4.7128,-4.7244,-4.7547,-4.7293,-4.6111,-4.6358,-4.6195,-4.5278,-4.5645,-4.5902,-4.5902,-4.5902,-4.5937,-4.6088,-4.4772,-4.3952,-4.3717,-4.3093,-4.3012,-4.342,-4.342,-4.3842,0.0,0.0,0.0,0.0,-3.2686,-3.2083,0.0,0.0,-3.2214,0.0,-3.2879,-3.3561,-3.4544,-3.5261,-3.6121,-3.7504,-3.8572,-3.9516,-4.0471,-4.0598,-4.0924,-4.1867,-4.2176,-4.2304,-4.2304,-4.302,-4.3497,-4.3497,-4.3497,-4.3497,-4.3497,-4.3497,-4.3497,-4.3497,-4.3497,-4.3497,-4.3497,-4.3497,-4.3497,-4.3497,-4.3497,-4.3497,-4.3497,-4.3497,-4.3497,-4.3497,-4.3497,-4.3497,-4.3497,-4.3497,-4.3497,-4.3497,-4.3497,-4.3497,-4.3497,-4.3497,-4.3497,-4.3497,-4.3497,-4.3497,-4.3497,-4.3497,-4.3497,-4.341,-4.3014,-4.2902,-4.2808,-4.2364,-4.2541,-4.2902,-4.2902,-4.3214,-4.3497,-4.3497,-4.3497,-4.3497,-4.3497,-4.3851,-4.4072,-4.3669,-4.4236,-4.4858,-4.504,-4.537,-4.5828,-4.6416,-4.6507,-4.6507,-4.6507,-4.704,-4.7407,-4.7407,-4.7774,-4.7517,-4.6305,-4.6764,-4.6599,-4.5406,-4.6067,-4.6507,-4.6507,-4.6507,-4.6499,-4.6519,-4.5941,-4.5305,-4.4696,-4.4218,-4.4007,-4.3929,-4.3929,-4.416,0.0,0.0,0.0,0.0,0.0,0.0,0.0,0.0,-3.1455,-3.219,-3.232,-3.2795,-3.4236,-3.5288,-3.6181,-3.7086,-3.7283,-3.7772,-3.903,-3.9209,-3.9674,-4.1009,-4.1846,-4.2304,-4.2304,-4.302,-4.3497,-4.3497,-4.3497,-4.3497,-4.3497,-4.3497,-4.3497,-4.3497,-4.3497,-4.3497,-4.3497,-4.3497,-4.3497,-4.3497,-4.3497,-4.3497,-4.3497,-4.3497,-4.3497,-4.3497,-4.3497,-4.3497,-4.3497,-4.3497,-4.3497,-4.3497,-4.3497,-4.3497,-4.3497,-4.3497,-4.3497,-4.3497,-4.3497,-4.3497,-4.3497,-4.3497,-4.3497,-4.3479,-4.3463,-4.3444,-4.3444,-4.341,-4.3444,-4.3444,-4.3444,-4.3479,-4.3497,-4.3497,-4.3497,-4.3497,-4.3497,-4.3123,-4.3003,-4.3668,-4.4484,-4.5301,-4.6019,-4.7223,-4.8141,-4.8177,-4.8177,-4.8177,-4.8177,-4.8214,-4.8251,-4.8251,-4.7609,-4.715,-4.702,-4.7095,-4.7039,-4.6965,-4.7737,-4.8177,-4.8177,-4.8177,-4.7926,-4.7373,-4.7295,-4.6936,-4.6307,-4.6259,-4.5958,-4.539,-4.539,-4.5108,0.0,0.0,0.0,-3.5055,-3.4785,-3.4249,-3.3072,-3.2624,-3.2256,-3.1759,-3.2396,-3.3161,-3.3739,-3.4377,-3.5217,-3.6474,-3.6559,-3.6966,-3.8431,-3.8201,-3.8454,-3.991,-4.0342,-4.0682,-4.1145,-4.1938,-4.2386,-4.2386,-4.2386,-4.2386,-4.2386,-4.2386,-4.2386,-4.2386,-4.279,-4.3142,-4.3497,-4.3497,-4.3497,-4.3497,-4.3497,-4.3497,-4.3497,-4.3497,-4.3497,-4.3497,-4.3497,-4.3497,-4.3497,-4.3497,-4.3497,-4.3497,-4.3497,-4.3497,-4.3497,-4.3497,-4.3497,-4.3497,-4.3497,-4.3497,-4.3497,-4.3497,-4.3497,-4.3497,-4.3497,-4.3497,-4.3497,-4.3497,-4.3497,-4.3497,-4.3497,-4.3497,-4.3497,-4.3497,-4.3497,-4.3626,-4.4158,-4.3705,-4.3324,-4.3704,-4.3686,-4.398,-4.5338,-4.5577,-4.5922,-4.6926,-4.7088,-4.7088,-4.7088,-4.7088,-4.7088,-4.7088,-4.6837,-4.6608,-4.6531,-4.7007,-4.7259,-4.7112,-4.7865,-4.8306,-4.8306,-4.8306,-4.8035,-4.7428,-4.7385,-4.7044,-4.6383,-4.6014,-4.5681,-4.5511,-4.5089,-4.4814,-3.6895,0.0,0.0,0.0,0.0,-3.5742,-3.4499,0.0,-3.2942,-3.2386,-3.2689,-3.3195,-3.3739,-3.3668,-3.4134,-3.5847,-3.6006,-3.6287,-3.7536,-3.7466,-3.7756,-3.8938,-3.9562,-4.0053,-4.0565,-4.1308,-4.181,-4.181,-4.181,0.0,-4.181,-4.181,-4.181,-4.181,-4.2203,-4.2675,-4.3214,-4.3214,-4.3321,-4.3497,-4.3339,-4.3339,-4.3479,-4.3321,-4.3321,-4.3497,-4.3497,-4.3497,-4.3497,-4.3497,-4.3497,-4.3497,-4.3497,-4.3497,-4.3497,-4.3497,-4.3497,-4.3497,-4.3497,-4.3375,-4.3214,-4.3214,-4.3214,-4.3214,-4.3214,-4.3375,-4.3497,-4.3497,-4.3497,-4.3497,-4.3497,-4.3497,-4.3497,-4.3497,-4.3497,-4.3718,-4.4544,-4.4162,-4.376,-4.4204,-4.3906,-4.3953,-4.5117,-4.5041,-4.5244,-4.6224,-4.6383,-4.6383,-4.6383,-4.6383,-4.6383,-4.6383,-4.6383,-4.6468,-4.6603,-4.7096,-4.7438,-4.7516,-4.8012,-4.8306,-4.8306,-4.8306,-4.7937,-4.7088,-4.7299,-4.6955,-4.6112,-4.6112,-4.5933,-4.5511,-4.5267,-4.4998,0.0,0.0,0.0,0.0,0.0,0.0,-3.663,0.0,-3.3413,-3.4102,-3.3259,-3.2822,-3.4218,-3.3322,-3.3051,-3.5233,-3.5571,-3.5732,-3.6291,-3.7015,-3.7652,-3.8183,-3.9582,-4.0517,-4.0535,-4.1248,-4.1732,-4.1768,-4.1768,-4.1768,-4.1768,-4.1768,-4.175,-4.1732,-4.175,-4.2062,-4.2637,-4.2655,-4.2939,-4.3444,-4.2939,-4.2939,-4.3444,-4.2902,-4.2976,-4.3444,-4.3444,-4.3444,-4.3444,-4.3497,-4.3497,-4.3497,-4.3497,-4.3497,-4.3497,-4.3497,-4.3497,-4.3497,-4.3497,-4.3142,-4.2711,-4.2711,-4.2711,-4.2655,-4.2655,-4.305,-4.3444,-4.3479,-4.3497,-4.3479,-4.3497,-4.3497,-4.3497,-4.3516,-4.3534,-4.3754,-4.4599,-4.4361,-4.4232,-4.5052,-4.5227,-4.5305,-4.5475,-4.5947,-4.63,-4.6318,-4.6336,-4.6336,-4.6336,-4.6336,-4.6336,-4.6336,-4.6336,-4.6618,-4.7281,-4.7385,-4.7614,-4.8267,-4.8306,-4.8306,-4.8306,-4.8306,-4.7697,-4.6413,-4.7044,-4.6728,-4.5459,-4.6728,-4.6728,-4.5494,-4.6112,-4.5749,-3.7035,0.0,0.0,0.0,0.0,0.0,0.0,0.0,-3.5879,-3.4973,-3.4622,-3.4432,-3.4372,-3.41,-3.4083,-3.4692,-3.437,-3.443,-3.5674,-3.6474,-3.7058,-3.722,-3.806,-3.8865,-3.9397,-3.9637,-3.998,0.0,-4.0546,-4.0546,-4.0546,-4.0546,-4.0509,-4.0331,-4.0882,-4.1165,-4.1266,-4.1777,-4.2103,-4.2266,-4.2103,-4.2103,-4.2266,-4.2103,-4.2144,-4.2266,-4.2266,-4.2266,-4.2346,-4.316,-4.3497,-4.3497,-4.3497,-4.3497,-4.3497,-4.3497,-4.3497,-4.3497,-4.3497,-4.3142,-4.2711,-4.2711,-4.2382,-4.2038,-4.2038,-4.2144,-4.2346,-4.2808,-4.2939,-4.3014,-4.341,-4.3497,-4.3644,-4.4232,-4.4378,-4.4764,-4.6159,-4.6322,-4.599,-4.5356,-4.4448,-4.4019,-4.4739,-4.4519,-4.4437,-4.5003,-4.5089,-4.5089,-4.5089,-4.5089,-4.5089,-4.5089,-4.5089,-4.5511,-4.6571,-4.6664,-4.7132,-4.821,-4.8306,-4.8306,-4.8306,-4.8306,-4.7697,-4.6413,-4.6571,-4.6063,-4.4852,-4.5648,-4.5833,-4.5494,-4.5232,-4.5196,-3.7263,-3.7777,-3.8212,-3.8714,0.0,0.0,-3.8263,-3.7426,-3.6673,0.0,-3.5084,-3.4791,-3.4723,-3.4548,-3.4516,-3.4905,-3.4336,-3.4269,-3.5453,-3.6569,-3.7127,-3.6823,-3.7719,-3.8413,-3.8531,-3.8531,-3.8717,-3.914,-3.9174,-3.9174,-3.9174,-3.9174,-3.9285,-3.9478,-3.9598,-3.9887,-4.0348,-4.0471,-4.0785,-4.1357,-4.1102,-4.1102,-4.1315,-4.1393,-4.1402,-4.1374,-4.1669,-4.181,-4.1853,-4.2523,-4.281,-4.281,-4.3087,-4.3178,-4.3178,-4.341,-4.3375,-4.3178,-4.3178,-4.2619,-4.1979,-4.2244,-4.208,-4.1853,-4.2121,-4.2324,-4.2562,-4.2921,-4.3014,-4.3105,-4.341,-4.3577,-4.3743,-4.4217,-4.4581,-4.5164,-4.6439,-4.6713,-4.6626,-4.6203,-4.5247,-4.4655,-4.4934,-4.4657,-4.4418,-4.4553,-4.484,-4.4942,-4.4621,-4.4587,-4.4587,-4.4587,-4.4587,-4.4998,-4.5965,-4.5996,-4.6571,-4.7838,-4.7937,-4.8035,-4.8306,-4.8306,-4.7838,-4.6864,-4.714,-4.6989,-4.6375,-4.6082,-4.6135,-4.6394,-4.5465,-4.5449,-3.806,-3.8257,-3.8608,-4.0158,-4.0341,0.0,-3.9147,-3.787,-3.6777,0.0,-3.5392,-3.4774,-3.5367,-3.4905,-3.4703,-3.5443,-3.5108,-3.4979,-3.5656,-3.6992,-3.7669,-3.6992,-3.8075,-3.8616,-3.7973,-3.7838,-3.7821,-3.7905,-3.7905,-3.7905,-3.7905,-3.7905,-3.8159,-3.8734,-3.821,-3.841,-3.9461,-3.8918,-3.9199,-4.0376,-3.9921,-3.9965,-4.0411,-4.0617,-4.0593,-4.0429,-4.1075,-4.1392,-4.1392,-4.148,-4.1594,-4.1853,-4.2382,-4.2616,-4.2655,-4.3124,-4.3014,-4.2616,-4.2616,-4.1853,-4.0995,-4.1534,-4.1664,-4.1725,-4.2302,-4.2828,-4.3232,-4.3267,-4.3321,-4.3339,-4.3431,-4.3574,-4.3764,-4.4003,-4.4561,-4.5281,-4.6134,-4.6254,-4.641,-4.7155,-4.6801,-4.6192,-4.5511,-4.5562,-4.5445,-4.4727,-4.5162,-4.5331,-4.4654,-4.4587,-4.4587,-4.4587,-4.4587,-4.4869,-4.5459,-4.5511,-4.6014,-4.7342,-4.7385,-4.7656,-4.8267,-4.8306,-4.8035,-4.7428,-4.8135,-4.8639,-4.8884,-4.7439,-4.7086,-4.783,-4.6453,-4.6227,-3.8007,-3.8546,-3.9142,-3.9488,-3.9996,0.0,-3.9929,-3.9603,-3.9223,0.0,-3.8003,-3.7361,-3.6622,-3.6207,-3.5838,-3.5428,-3.5915,-3.6383,-3.6535,-3.733,-3.7855,-3.7702,-3.7939,-3.8075,-3.7922,-3.7347,-3.7246,-3.7872,-3.7905,-3.7905,-3.7905,-3.7905,-3.7686,-3.7229,-3.7669,-3.7716,-3.7364,-3.7823,-3.8176,-3.8452,-3.8908,-3.8891,-3.847,-3.9078,-3.9058,-3.8452,-3.8589,-3.8657,-3.8709,-3.9307,-4.0446,-4.181,-4.1937,-4.1979,-4.1979,-4.2103,-4.2062,-4.1979,-4.1979,-4.149,-4.0903,-4.1041,-4.0797,-4.0546,-4.1087,-4.134,-4.1516,-4.2003,-4.2144,-4.2287,-4.2852,-4.3052,-4.3522,-4.5312,-4.5451,-4.5517,-4.6884,-4.6722,-4.6394,-4.6536,-4.6478,-4.6046,-4.4944,-4.5209,-4.5314,-4.4699,-4.4705,-4.4739,-4.4604,-4.4587,-4.4587,-4.4587,-4.4587,-4.4869,-4.5459,-4.5511,-4.6014,-4.7342,-4.7385,-4.7656,-4.8267,-4.8306,-4.8035,-4.7428,-4.7714,-4.8217,-4.8834,-4.798,-4.7919,-4.8647,-4.722,-4.6989,-3.8642,-3.8969,-3.9392,-3.9796,-4.02,0.0,0.0,-3.971,-3.9565,-3.9066,-3.8761,-3.8398,-3.771,-3.748,-3.7271,-3.6904,-3.6934,-3.7318,-3.8145,-3.8367,-3.8311,-3.7939,-3.8227,-3.8159,-3.7415,-3.7009,-3.6772,-3.6772,-3.6772,-3.6941,-3.733,-3.7347,-3.7347,-3.7347,-3.7347,-3.7161,-3.6772,-3.6772,-3.6958,-3.7347,-3.7719,-3.7702,-3.7381,-3.8108,-3.8041,-3.7364,-3.7736,-3.7905,-3.7939,-3.8311,-3.8999,-3.9943,-4.0944,-4.1358,-4.1402,-4.1664,-4.1621,-4.1358,-4.1358,-4.0967,-4.0528,-4.0827,-4.0703,-4.0625,-4.1178,-4.1358,-4.1402,-4.1707,-4.181,-4.197,-4.2705,-4.2959,-4.3436,-4.4894,-4.5299,-4.554,-4.6312,-4.643,-4.6394,-4.6505,-4.6773,-4.6569,-4.5247,-4.5668,-4.6028,-4.5706,-4.5908,-4.6121,-4.6152,-4.5754,-4.5511,-4.5511,-4.5511,-4.5648,-4.5915,-4.5965,-4.6336,-4.7342,-4.7385,-4.7656,-4.8267,-4.8306,-4.8556,-4.9076,-4.9582,-5.0227,-5.0976,-5.0285,-4.9958,-4.9958,-4.8532,-4.8237,-3.9445,-3.9445,-3.9615,-4.0315,-4.0489,-4.0315,0.0,0.0,0.0,-3.9127,0.0,-3.8944,-3.8693,0.0,0.0,0.0,0.0,0.0,0.0,-3.9652,0.0,-3.8444,-3.8717,-3.8514,-3.733,-3.7077,-3.6675,-3.5896,-3.5819,-3.6067,-3.6535,-3.6591,-3.684,-3.7449,-3.6874,-3.6552,-3.6552,-3.5926,-3.5943,-3.6552,-3.6705,-3.6705,-3.6586,-3.7347,-3.728,-3.6586,-3.7212,-3.7466,-3.7483,-3.7618,-3.7702,-3.7868,-3.9787,-4.044,-4.0447,-4.1181,-4.1046,-4.0543,-4.0698,-4.0449,-4.0154,-4.0625,-4.0827,-4.0995,-4.149,-4.1621,-4.1621,-4.1621,-4.1534,-4.1674,-4.257,-4.2884,-4.3285,-4.4301,-4.4924,-4.5372,-4.5459,-4.5887,-4.6318,-4.641,-4.6969,-4.7071,-4.596,-4.6435,-4.6977,-4.6932,-4.7244,-4.7526,-4.7674,-4.6926,-4.6383,-4.6383,-4.6383,-4.6383,-4.6383,-4.6383,-4.6664,-4.7342,-4.7529,-4.791,-4.8506,-4.871,-4.9426,-5.0765,-5.1591,-5.2307,-5.2986,-5.2526,-5.197,-5.1274,-4.9798,-4.9426,-3.9929,-4.0005,-4.008,-4.0422,-4.0489,-4.0469,-4.0373,0.0,-4.0307,-4.0024,0.0,-3.9849,-3.9515,0.0,0.0,0.0,0.0,0.0,-3.9651,-4.0634,-4.1084,-3.9966,-3.9343,-3.892,-3.8751,-3.8159,-3.7463,-3.6637,-3.6628,-3.6404,-3.5762,-3.5756,-3.5791,-3.5876,-3.5791,-3.5757,-3.5757,-3.5673,-3.5673,-3.5757,-3.6451,-3.6417,-3.5774,-3.6552,-3.6485,-3.5757,-3.5842,-3.5876,-3.5943,-3.662,-3.6907,-3.7106,-3.8628,-3.8798,-3.8391,-3.9778,-3.9846,-3.9338,-3.9983,-4.0171,-4.0121,-4.0154,-4.048,-4.0903,-4.0995,-4.0995,-4.0995,-4.0995,-4.0672,-4.0627,-4.2039,-4.236,-4.2873,-4.4889,-4.502,-4.4869,-4.5355,-4.5674,-4.5796,-4.5784,-4.6367,-4.6833,-4.6707,-4.7158,-4.7637,-4.7659,-4.7122,-4.6969,-4.7603,-4.6926,-4.6383,-4.6383,-4.6383,-4.6383,-4.6383,-4.6383,-4.6664,-4.7342,-4.8052,-4.8744,-4.9426,-5.0141,-5.0618,-5.0802,-5.1591,-5.2032,-5.2142,-5.2755,-5.2725,-5.1952,-5.0503,-4.9946,-3.9318,-3.9395,-3.9583,-4.0307,-4.0489,-4.0489,-4.0489,-4.0489,-4.0473,-4.0356,0.0,0.0,0.0,0.0,0.0,0.0,-4.0039,-4.0222,0.0,0.0,-4.0485,-4.0548,0.0,0.0,-3.8478,-3.7684,-3.6738,-3.5564,-3.5514,-3.5379,-3.5072,-3.5101,-3.5087,-3.5087,-3.5087,-3.4874,-3.4447,-3.4847,-3.5005,-3.5035,-3.5307,-3.5504,-3.5622,-3.5504,-3.5504,-3.5622,-3.5622,-3.5622,-3.5639,-3.596,-3.6096,-3.6214,-3.7297,-3.8058,-3.8616,-3.9225,-3.9529,-3.9665,-3.9969,-4.007,-4.007,-4.007,-4.0237,-4.0449,-4.0449,-4.0449,-4.0449,-4.0449,-4.0286,-4.0324,-4.139,-4.1982,-4.2647,-4.3968,-4.4436,-4.48,-4.5469,-4.5677,-4.5957,-4.6819,-4.6887,-4.7056,-4.7936,-4.792,-4.7986,-4.8367,-4.7763,-4.7631,-4.8722,-4.7787,-4.7088,-4.747,-4.7494,-4.7711,-4.8182,-4.8279,-4.8581,-4.9341,-4.9688,-4.9989,-5.0288,-5.1059,-5.1499,-5.1499,-5.2289,-5.2711,-5.2711,-5.3041,-5.2831,-5.2065,-5.1068,-5.039,-3.8648,0.0,0.0,0.0,0.0,0.0,-4.0489,-4.0489,-4.0489,-4.0489,-4.0489,0.0,0.0,0.0,-4.0311,-4.0549,0.0,-4.0196,0.0,-4.027,0.0,0.0,0.0,0.0,0.0,-3.8053,-3.7135,-3.5844,-3.5421,-3.5138,-3.4995,-3.4627,-3.4418,-3.4418,-3.4418,-3.4162,-3.3598,-3.4087,-3.4235,-3.4039,-3.4001,-3.418,-3.4497,-3.4097,-3.4253,-3.4774,-3.5127,-3.5318,-3.5318,-3.5537,-3.5622,-3.5673,-3.6231,-3.7246,-3.843,-3.8836,-3.9073,-3.9259,-3.9868,-4.007,-4.007,-4.007,-4.007,-4.007,-4.007,-4.007,-4.007,-4.007,-4.007,-4.029,-4.1255,-4.1897,-4.254,-4.3504,-4.4181,-4.4722,-4.528,-4.572,-4.6329,-4.7394,-4.7496,-4.7682,-4.8562,-4.8105,-4.7937,-4.9037,-4.8196,-4.7876,-4.9281,-4.8451,-4.7898,-4.8324,-4.8559,-4.9003,-4.9848,-4.9719,-5.0031,-5.1059,-5.1132,-5.1224,-5.1463,-5.2013,-5.2325,-5.2325,-5.2913,-5.3206,-5.3206,-5.3206,-5.2831,-5.2065,-5.1393,-5.0716,0.0,0.0,0.0,-4.0353,0.0,0.0,0.0,0.0,-4.0489,-4.0489,-4.0489,-4.0489,-4.0489,-4.0489,-4.0408,-4.0158,-4.0747,0.0,0.0,-4.1016,-4.13,-4.0654,-4.0769,0.0,0.0,-4.0283,-3.963,-3.883,-3.7475,-3.6443,-3.5732,-3.4366,-3.363,-3.363,-3.363,-3.3614,-3.3582,-3.3633,-3.3297,-3.2673,-3.2641,-3.2337,-3.1758,-3.2302,-3.259,-3.2656,-3.3967,-3.4523,-3.459,-3.5318,-3.5622,-3.5622,-3.5639,-3.6146,-3.7026,-3.8464,-3.8091,-3.7195,-3.9343,-4.007,-4.007,-4.007,-4.007,-4.007,-4.007,-4.007,-4.007,-4.007,-4.007,-4.0409,-4.188,-4.2269,-4.2675,-4.4181,-4.4553,-4.4587,-4.4604,-4.5754,-4.6769,-4.6819,-4.797,-4.8731,-4.8071,-4.7327,-4.7571,-4.9677,-4.8093,-4.7178,-4.8629,-4.8665,-4.8558,-4.8601,-4.9182,-4.9866,-5.0692,-5.005,-5.027,-5.1848,-5.1958,-5.2307,-5.3096,-5.317,-5.317,-5.317,-5.3206,-5.3206,-5.3206,-5.3206,-5.2831,-5.2065,-5.1393,-5.0716,0.0,0.0,-3.9075,-4.0219,0.0,0.0,0.0,0.0,0.0,-4.0489,-4.0489,-4.0489,-4.0489,-4.0489,-4.0665,-4.1159,-4.1449,-4.1456,0.0,-4.0847,-4.0607,-4.0179,-4.0455,-4.0561,0.0,0.0,-3.8706,-3.7595,-3.5701,-3.4541,-3.4408,-3.3011,-3.2201,-3.2201,-3.2201,-3.2201,-3.2201,-3.268,-3.2823,-3.2588,-3.2088,-3.1999,-3.2256,-3.1498,-3.1672,-3.2595,-3.3077,-3.3738,-3.4592,-3.4841,-3.5207,-3.5622,-3.5622,-3.5774,-3.6129,-3.7144,-3.7838,-3.8413,-3.9648,-4.007,-4.007,-4.007,-4.007,-4.007,-4.007,-4.007,-4.007,-4.007,-4.0443,-4.0933,-4.1441,-4.2303,-4.3166,-4.369,-4.4198,-4.4857,-4.5838,-4.6058,-4.6363,-4.7344,-4.7158,-4.6887,-4.7124,-4.6143,-4.6106,-4.8294,-4.7568,-4.7215,-4.8605,-4.7891,-4.7793,-4.919,-4.9546,-5.0186,-5.1458,-5.183,-5.2215,-5.2766,-5.2803,-5.2931,-5.3206,-5.3206,-5.3206,-5.3206,-5.3206,-5.3206,-5.3206,-5.3206,-5.2831,-5.2094,-5.1856,-5.1393,-3.7253,-3.812,0.0,-4.0096,-4.0441,0.0,-4.0489,0.0,-4.0489,0.0,-4.0489,-4.0489,-4.0489,-4.0489,-4.0681,-4.1258,-4.1335,-4.1198,0.0,-4.0228,-3.989,-3.9908,-4.0455,-4.0471,-3.9423,-3.9411,-3.873,-3.6936,-3.5473,-3.4501,0.0,-3.268,-3.1796,-3.1539,-3.1482,-3.1482,-3.1482,-3.1951,-3.1986,-3.1551,-3.1047,-3.0833,-3.0804,-3.0101,-3.0418,-3.1512,-3.1741,-3.2611,-3.386,-3.4149,-3.4662,-3.5253,-3.5515,-3.5622,-3.5723,-3.6485,-3.7719,-3.9056,-3.9529,-3.9868,-4.007,-4.007,-4.007,-4.007,-4.007,-4.007,-4.0189,-4.0713,-4.1035,-4.139,-4.2202,-4.2912,-4.3487,-4.3775,-4.4215,-4.484,-4.5805,-4.5855,-4.6031,-4.722,-4.6903,-4.6493,-4.6698,-4.6152,-4.609,-4.7352,-4.6887,-4.6826,-4.7935,-4.772,-4.8015,-4.9627,-5.0009,-5.0641,-5.188,-5.2747,-5.3206,-5.3206,-5.3206,-5.3206,-5.3206,-5.3206,-5.3335,-5.3628,-5.3353,-5.3353,-5.3628,-5.3353,-5.2937,-5.249,-5.2224,-5.2018]}]]